<?xml version="1.0" encoding="UTF-8" standalone="no" ?>
<gpx xmlns="http://www.topografix.com/GPX/1/1" xmlns:xsi="http://www.w3.org/2001/XMLSchema-instance" xsi:schemaLocation="http://www.topografix.com/GPX/1/1 http://www.topografix.com/GPX/1/1/gpx.xsd" version="1.1" creator="VisuGPX - https://www.visugpx.com">
  <metadata>
    <name>Brières-les-Scellés - St Hilaire - Villeconin - Etrechy - Morigny VTT</name>
  </metadata>
  <trk>
    <name><![CDATA[Brières-les-Scellés Cyclisme]]></name>
    <trkseg>
      <trkpt lat="48.45673" lon="2.13807">
        <ele>88.400001525879</ele>
        <time>2020-08-04T13:57:50.000Z</time>
      </trkpt>
      <trkpt lat="48.45653" lon="2.13794">
        <ele>89.199996948242</ele>
        <time>2020-08-04T13:57:58.000Z</time>
      </trkpt>
      <trkpt lat="48.45646" lon="2.13791">
        <ele>89.400001525879</ele>
        <time>2020-08-04T13:58:01.000Z</time>
      </trkpt>
      <trkpt lat="48.45643" lon="2.13788">
        <ele>89.400001525879</ele>
        <time>2020-08-04T13:58:02.000Z</time>
      </trkpt>
      <trkpt lat="48.45621" lon="2.13776">
        <ele>90</ele>
        <time>2020-08-04T13:58:08.000Z</time>
      </trkpt>
      <trkpt lat="48.45602" lon="2.13767">
        <ele>90.400001525879</ele>
        <time>2020-08-04T13:58:13.000Z</time>
      </trkpt>
      <trkpt lat="48.45598" lon="2.13765">
        <ele>90.400001525879</ele>
        <time>2020-08-04T13:58:14.000Z</time>
      </trkpt>
      <trkpt lat="48.45573" lon="2.13754">
        <ele>91</ele>
        <time>2020-08-04T13:58:21.000Z</time>
      </trkpt>
      <trkpt lat="48.4555" lon="2.13753">
        <ele>91.400001525879</ele>
        <time>2020-08-04T13:58:27.000Z</time>
      </trkpt>
      <trkpt lat="48.45525" lon="2.13756">
        <ele>91.400001525879</ele>
        <time>2020-08-04T13:58:34.000Z</time>
      </trkpt>
      <trkpt lat="48.45511" lon="2.13748">
        <ele>91.400001525879</ele>
        <time>2020-08-04T13:58:38.000Z</time>
      </trkpt>
      <trkpt lat="48.45499" lon="2.13736">
        <ele>91.199996948242</ele>
        <time>2020-08-04T13:58:42.000Z</time>
      </trkpt>
      <trkpt lat="48.45487" lon="2.13704">
        <ele>92</ele>
        <time>2020-08-04T13:58:49.000Z</time>
      </trkpt>
      <trkpt lat="48.4548" lon="2.13667">
        <ele>93</ele>
        <time>2020-08-04T13:58:56.000Z</time>
      </trkpt>
      <trkpt lat="48.45476" lon="2.13624">
        <ele>94.800003051758</ele>
        <time>2020-08-04T13:59:04.000Z</time>
      </trkpt>
      <trkpt lat="48.45472" lon="2.13589">
        <ele>95.400001525879</ele>
        <time>2020-08-04T13:59:11.000Z</time>
      </trkpt>
      <trkpt lat="48.45471" lon="2.1355">
        <ele>96.800003051758</ele>
        <time>2020-08-04T13:59:18.000Z</time>
      </trkpt>
      <trkpt lat="48.45471" lon="2.13507">
        <ele>98.800003051758</ele>
        <time>2020-08-04T13:59:26.000Z</time>
      </trkpt>
      <trkpt lat="48.45469" lon="2.1346">
        <ele>100.59999847412</ele>
        <time>2020-08-04T13:59:35.000Z</time>
      </trkpt>
      <trkpt lat="48.45469" lon="2.1343">
        <ele>101.80000305176</ele>
        <time>2020-08-04T13:59:41.000Z</time>
      </trkpt>
      <trkpt lat="48.45468" lon="2.13396">
        <ele>102.19999694824</ele>
        <time>2020-08-04T13:59:48.000Z</time>
      </trkpt>
      <trkpt lat="48.45466" lon="2.13392">
        <ele>102.19999694824</ele>
        <time>2020-08-04T13:59:49.000Z</time>
      </trkpt>
      <trkpt lat="48.45464" lon="2.13391">
        <ele>102.19999694824</ele>
        <time>2020-08-04T13:59:50.000Z</time>
      </trkpt>
      <trkpt lat="48.45457" lon="2.13396">
        <ele>102.19999694824</ele>
        <time>2020-08-04T13:59:52.000Z</time>
      </trkpt>
      <trkpt lat="48.45434" lon="2.13409">
        <ele>102</ele>
        <time>2020-08-04T13:59:58.000Z</time>
      </trkpt>
      <trkpt lat="48.4541" lon="2.13423">
        <ele>101.19999694824</ele>
        <time>2020-08-04T14:00:03.000Z</time>
      </trkpt>
      <trkpt lat="48.45405" lon="2.13423">
        <ele>101.19999694824</ele>
        <time>2020-08-04T14:00:04.000Z</time>
      </trkpt>
      <trkpt lat="48.454" lon="2.13421">
        <ele>101.19999694824</ele>
        <time>2020-08-04T14:00:05.000Z</time>
      </trkpt>
      <trkpt lat="48.45392" lon="2.1341">
        <ele>101.59999847412</ele>
        <time>2020-08-04T14:00:07.000Z</time>
      </trkpt>
      <trkpt lat="48.45389" lon="2.13405">
        <ele>101.40000152588</ele>
        <time>2020-08-04T14:00:08.000Z</time>
      </trkpt>
      <trkpt lat="48.45381" lon="2.13389">
        <ele>100.80000305176</ele>
        <time>2020-08-04T14:00:11.000Z</time>
      </trkpt>
      <trkpt lat="48.45378" lon="2.13384">
        <ele>100.80000305176</ele>
        <time>2020-08-04T14:00:12.000Z</time>
      </trkpt>
      <trkpt lat="48.45368" lon="2.13369">
        <ele>100.19999694824</ele>
        <time>2020-08-04T14:00:16.000Z</time>
      </trkpt>
      <trkpt lat="48.45367" lon="2.13362">
        <ele>100</ele>
        <time>2020-08-04T14:00:18.000Z</time>
      </trkpt>
      <trkpt lat="48.45368" lon="2.13355">
        <ele>99.800003051758</ele>
        <time>2020-08-04T14:00:20.000Z</time>
      </trkpt>
      <trkpt lat="48.45367" lon="2.13333">
        <ele>99.599998474121</ele>
        <time>2020-08-04T14:00:25.000Z</time>
      </trkpt>
      <trkpt lat="48.4537" lon="2.13307">
        <ele>99.400001525879</ele>
        <time>2020-08-04T14:00:31.000Z</time>
      </trkpt>
      <trkpt lat="48.45368" lon="2.13284">
        <ele>99.400001525879</ele>
        <time>2020-08-04T14:00:36.000Z</time>
      </trkpt>
      <trkpt lat="48.45369" lon="2.13261">
        <ele>99.599998474121</ele>
        <time>2020-08-04T14:00:41.000Z</time>
      </trkpt>
      <trkpt lat="48.45365" lon="2.13238">
        <ele>100.59999847412</ele>
        <time>2020-08-04T14:00:46.000Z</time>
      </trkpt>
      <trkpt lat="48.45363" lon="2.13223">
        <ele>102</ele>
        <time>2020-08-04T14:00:50.000Z</time>
      </trkpt>
      <trkpt lat="48.45354" lon="2.13202">
        <ele>103.80000305176</ele>
        <time>2020-08-04T14:00:55.000Z</time>
      </trkpt>
      <trkpt lat="48.45346" lon="2.13178">
        <ele>105.80000305176</ele>
        <time>2020-08-04T14:01:01.000Z</time>
      </trkpt>
      <trkpt lat="48.45344" lon="2.13176">
        <ele>106</ele>
        <time>2020-08-04T14:01:02.000Z</time>
      </trkpt>
      <trkpt lat="48.45335" lon="2.13168">
        <ele>106.19999694824</ele>
        <time>2020-08-04T14:01:05.000Z</time>
      </trkpt>
      <trkpt lat="48.45321" lon="2.13153">
        <ele>107</ele>
        <time>2020-08-04T14:01:10.000Z</time>
      </trkpt>
      <trkpt lat="48.45307" lon="2.13139">
        <ele>108</ele>
        <time>2020-08-04T14:01:15.000Z</time>
      </trkpt>
      <trkpt lat="48.45291" lon="2.13124">
        <ele>109.19999694824</ele>
        <time>2020-08-04T14:01:21.000Z</time>
      </trkpt>
      <trkpt lat="48.45272" lon="2.13105">
        <ele>110.59999847412</ele>
        <time>2020-08-04T14:01:28.000Z</time>
      </trkpt>
      <trkpt lat="48.45256" lon="2.13089">
        <ele>111.40000152588</ele>
        <time>2020-08-04T14:01:34.000Z</time>
      </trkpt>
      <trkpt lat="48.45238" lon="2.13074">
        <ele>111.59999847412</ele>
        <time>2020-08-04T14:01:41.000Z</time>
      </trkpt>
      <trkpt lat="48.45227" lon="2.1306">
        <ele>111.19999694824</ele>
        <time>2020-08-04T14:01:46.000Z</time>
      </trkpt>
      <trkpt lat="48.45214" lon="2.13038">
        <ele>111</ele>
        <time>2020-08-04T14:01:52.000Z</time>
      </trkpt>
      <trkpt lat="48.45202" lon="2.13002">
        <ele>112.80000305176</ele>
        <time>2020-08-04T14:02:00.000Z</time>
      </trkpt>
      <trkpt lat="48.45192" lon="2.12974">
        <ele>113.80000305176</ele>
        <time>2020-08-04T14:02:06.000Z</time>
      </trkpt>
      <trkpt lat="48.4518" lon="2.1295">
        <ele>114</ele>
        <time>2020-08-04T14:02:12.000Z</time>
      </trkpt>
      <trkpt lat="48.45173" lon="2.12925">
        <ele>115.80000305176</ele>
        <time>2020-08-04T14:02:18.000Z</time>
      </trkpt>
      <trkpt lat="48.45166" lon="2.12906">
        <ele>117</ele>
        <time>2020-08-04T14:02:23.000Z</time>
      </trkpt>
      <trkpt lat="48.45161" lon="2.12891">
        <ele>117.59999847412</ele>
        <time>2020-08-04T14:02:27.000Z</time>
      </trkpt>
      <trkpt lat="48.45151" lon="2.1287">
        <ele>118.80000305176</ele>
        <time>2020-08-04T14:02:32.000Z</time>
      </trkpt>
      <trkpt lat="48.45142" lon="2.12851">
        <ele>120.19999694824</ele>
        <time>2020-08-04T14:02:37.000Z</time>
      </trkpt>
      <trkpt lat="48.45129" lon="2.12827">
        <ele>121.59999847412</ele>
        <time>2020-08-04T14:02:43.000Z</time>
      </trkpt>
      <trkpt lat="48.45119" lon="2.12807">
        <ele>121.80000305176</ele>
        <time>2020-08-04T14:02:48.000Z</time>
      </trkpt>
      <trkpt lat="48.45109" lon="2.12782">
        <ele>122.40000152588</ele>
        <time>2020-08-04T14:02:54.000Z</time>
      </trkpt>
      <trkpt lat="48.45098" lon="2.12758">
        <ele>122.59999847412</ele>
        <time>2020-08-04T14:03:00.000Z</time>
      </trkpt>
      <trkpt lat="48.45089" lon="2.12739">
        <ele>123.19999694824</ele>
        <time>2020-08-04T14:03:05.000Z</time>
      </trkpt>
      <trkpt lat="48.45081" lon="2.1272">
        <ele>123.40000152588</ele>
        <time>2020-08-04T14:03:10.000Z</time>
      </trkpt>
      <trkpt lat="48.4507" lon="2.12699">
        <ele>123.59999847412</ele>
        <time>2020-08-04T14:03:16.000Z</time>
      </trkpt>
      <trkpt lat="48.45061" lon="2.12677">
        <ele>124.19999694824</ele>
        <time>2020-08-04T14:03:21.000Z</time>
      </trkpt>
      <trkpt lat="48.4505" lon="2.12646">
        <ele>125.19999694824</ele>
        <time>2020-08-04T14:03:28.000Z</time>
      </trkpt>
      <trkpt lat="48.45041" lon="2.12624">
        <ele>125.80000305176</ele>
        <time>2020-08-04T14:03:33.000Z</time>
      </trkpt>
      <trkpt lat="48.45036" lon="2.12608">
        <ele>126.40000152588</ele>
        <time>2020-08-04T14:03:37.000Z</time>
      </trkpt>
      <trkpt lat="48.45028" lon="2.12587">
        <ele>127</ele>
        <time>2020-08-04T14:03:42.000Z</time>
      </trkpt>
      <trkpt lat="48.45019" lon="2.12566">
        <ele>127.80000305176</ele>
        <time>2020-08-04T14:03:47.000Z</time>
      </trkpt>
      <trkpt lat="48.45006" lon="2.12539">
        <ele>130.39999389648</ele>
        <time>2020-08-04T14:03:54.000Z</time>
      </trkpt>
      <trkpt lat="48.44995" lon="2.12519">
        <ele>132.39999389648</ele>
        <time>2020-08-04T14:03:59.000Z</time>
      </trkpt>
      <trkpt lat="48.44983" lon="2.12496">
        <ele>135</ele>
        <time>2020-08-04T14:04:05.000Z</time>
      </trkpt>
      <trkpt lat="48.44971" lon="2.12475">
        <ele>135.80000305176</ele>
        <time>2020-08-04T14:04:11.000Z</time>
      </trkpt>
      <trkpt lat="48.44962" lon="2.12457">
        <ele>136.39999389648</ele>
        <time>2020-08-04T14:04:16.000Z</time>
      </trkpt>
      <trkpt lat="48.44953" lon="2.12439">
        <ele>137</ele>
        <time>2020-08-04T14:04:21.000Z</time>
      </trkpt>
      <trkpt lat="48.44946" lon="2.12425">
        <ele>137.60000610352</ele>
        <time>2020-08-04T14:04:25.000Z</time>
      </trkpt>
      <trkpt lat="48.44939" lon="2.1241">
        <ele>138.39999389648</ele>
        <time>2020-08-04T14:04:29.000Z</time>
      </trkpt>
      <trkpt lat="48.44928" lon="2.12384">
        <ele>138.80000305176</ele>
        <time>2020-08-04T14:04:35.000Z</time>
      </trkpt>
      <trkpt lat="48.4492" lon="2.12362">
        <ele>139.19999694824</ele>
        <time>2020-08-04T14:04:40.000Z</time>
      </trkpt>
      <trkpt lat="48.44917" lon="2.12347">
        <ele>139.60000610352</ele>
        <time>2020-08-04T14:04:44.000Z</time>
      </trkpt>
      <trkpt lat="48.44913" lon="2.12323">
        <ele>140.19999694824</ele>
        <time>2020-08-04T14:04:49.000Z</time>
      </trkpt>
      <trkpt lat="48.44912" lon="2.12303">
        <ele>140.19999694824</ele>
        <time>2020-08-04T14:04:53.000Z</time>
      </trkpt>
      <trkpt lat="48.44913" lon="2.12284">
        <ele>139.80000305176</ele>
        <time>2020-08-04T14:04:58.000Z</time>
      </trkpt>
      <trkpt lat="48.44913" lon="2.12281">
        <ele>139.60000610352</ele>
        <time>2020-08-04T14:05:00.000Z</time>
      </trkpt>
      <trkpt lat="48.44903" lon="2.12276">
        <ele>139.39999389648</ele>
        <time>2020-08-04T14:07:04.000Z</time>
      </trkpt>
      <trkpt lat="48.44903" lon="2.12273">
        <ele>139.39999389648</ele>
        <time>2020-08-04T14:07:05.000Z</time>
      </trkpt>
      <trkpt lat="48.44908" lon="2.1225">
        <ele>138.80000305176</ele>
        <time>2020-08-04T14:07:11.000Z</time>
      </trkpt>
      <trkpt lat="48.44913" lon="2.12228">
        <ele>139.19999694824</ele>
        <time>2020-08-04T14:07:17.000Z</time>
      </trkpt>
      <trkpt lat="48.44921" lon="2.12205">
        <ele>139.39999389648</ele>
        <time>2020-08-04T14:07:23.000Z</time>
      </trkpt>
      <trkpt lat="48.44936" lon="2.12175">
        <ele>140</ele>
        <time>2020-08-04T14:07:31.000Z</time>
      </trkpt>
      <trkpt lat="48.44951" lon="2.12154">
        <ele>140.39999389648</ele>
        <time>2020-08-04T14:07:37.000Z</time>
      </trkpt>
      <trkpt lat="48.44972" lon="2.12134">
        <ele>141</ele>
        <time>2020-08-04T14:07:44.000Z</time>
      </trkpt>
      <trkpt lat="48.44994" lon="2.12121">
        <ele>141.39999389648</ele>
        <time>2020-08-04T14:07:51.000Z</time>
      </trkpt>
      <trkpt lat="48.45021" lon="2.12114">
        <ele>142.19999694824</ele>
        <time>2020-08-04T14:07:58.000Z</time>
      </trkpt>
      <trkpt lat="48.45057" lon="2.12107">
        <ele>143</ele>
        <time>2020-08-04T14:08:07.000Z</time>
      </trkpt>
      <trkpt lat="48.45088" lon="2.12098">
        <ele>143.80000305176</ele>
        <time>2020-08-04T14:08:15.000Z</time>
      </trkpt>
      <trkpt lat="48.45092" lon="2.12085">
        <ele>143.80000305176</ele>
        <time>2020-08-04T14:08:18.000Z</time>
      </trkpt>
      <trkpt lat="48.4509" lon="2.12046">
        <ele>143.80000305176</ele>
        <time>2020-08-04T14:08:24.000Z</time>
      </trkpt>
      <trkpt lat="48.45084" lon="2.11987">
        <ele>143.60000610352</ele>
        <time>2020-08-04T14:08:32.000Z</time>
      </trkpt>
      <trkpt lat="48.45074" lon="2.11916">
        <ele>142.80000305176</ele>
        <time>2020-08-04T14:08:41.000Z</time>
      </trkpt>
      <trkpt lat="48.45065" lon="2.11855">
        <ele>142.60000610352</ele>
        <time>2020-08-04T14:08:49.000Z</time>
      </trkpt>
      <trkpt lat="48.45053" lon="2.11769">
        <ele>143.19999694824</ele>
        <time>2020-08-04T14:09:00.000Z</time>
      </trkpt>
      <trkpt lat="48.45042" lon="2.11693">
        <ele>143.39999389648</ele>
        <time>2020-08-04T14:09:10.000Z</time>
      </trkpt>
      <trkpt lat="48.45031" lon="2.11616">
        <ele>143.80000305176</ele>
        <time>2020-08-04T14:09:20.000Z</time>
      </trkpt>
      <trkpt lat="48.45021" lon="2.11546">
        <ele>144.19999694824</ele>
        <time>2020-08-04T14:09:29.000Z</time>
      </trkpt>
      <trkpt lat="48.4501" lon="2.11467">
        <ele>144</ele>
        <time>2020-08-04T14:09:39.000Z</time>
      </trkpt>
      <trkpt lat="48.45" lon="2.11404">
        <ele>143.80000305176</ele>
        <time>2020-08-04T14:09:47.000Z</time>
      </trkpt>
      <trkpt lat="48.44989" lon="2.11329">
        <ele>144.60000610352</ele>
        <time>2020-08-04T14:09:56.000Z</time>
      </trkpt>
      <trkpt lat="48.44977" lon="2.11242">
        <ele>145.60000610352</ele>
        <time>2020-08-04T14:10:07.000Z</time>
      </trkpt>
      <trkpt lat="48.44972" lon="2.11211">
        <ele>145</ele>
        <time>2020-08-04T14:10:11.000Z</time>
      </trkpt>
      <trkpt lat="48.44969" lon="2.11196">
        <ele>144.80000305176</ele>
        <time>2020-08-04T14:10:13.000Z</time>
      </trkpt>
      <trkpt lat="48.44958" lon="2.11125">
        <ele>145.39999389648</ele>
        <time>2020-08-04T14:10:22.000Z</time>
      </trkpt>
      <trkpt lat="48.4495" lon="2.11062">
        <ele>145.80000305176</ele>
        <time>2020-08-04T14:10:30.000Z</time>
      </trkpt>
      <trkpt lat="48.4494" lon="2.10996">
        <ele>147</ele>
        <time>2020-08-04T14:10:39.000Z</time>
      </trkpt>
      <trkpt lat="48.4493" lon="2.10921">
        <ele>147</ele>
        <time>2020-08-04T14:10:49.000Z</time>
      </trkpt>
      <trkpt lat="48.44924" lon="2.10879">
        <ele>147</ele>
        <time>2020-08-04T14:10:55.000Z</time>
      </trkpt>
      <trkpt lat="48.44919" lon="2.10844">
        <ele>147</ele>
        <time>2020-08-04T14:11:01.000Z</time>
      </trkpt>
      <trkpt lat="48.44913" lon="2.10819">
        <ele>147</ele>
        <time>2020-08-04T14:11:06.000Z</time>
      </trkpt>
      <trkpt lat="48.4491" lon="2.10815">
        <ele>147</ele>
        <time>2020-08-04T14:11:07.000Z</time>
      </trkpt>
      <trkpt lat="48.44902" lon="2.10811">
        <ele>147</ele>
        <time>2020-08-04T14:11:09.000Z</time>
      </trkpt>
      <trkpt lat="48.44866" lon="2.10798">
        <ele>147</ele>
        <time>2020-08-04T14:11:16.000Z</time>
      </trkpt>
      <trkpt lat="48.44814" lon="2.1078">
        <ele>147</ele>
        <time>2020-08-04T14:11:25.000Z</time>
      </trkpt>
      <trkpt lat="48.44764" lon="2.10764">
        <ele>147</ele>
        <time>2020-08-04T14:11:34.000Z</time>
      </trkpt>
      <trkpt lat="48.44744" lon="2.10751">
        <ele>147</ele>
        <time>2020-08-04T14:11:38.000Z</time>
      </trkpt>
      <trkpt lat="48.4474" lon="2.10746">
        <ele>147</ele>
        <time>2020-08-04T14:11:39.000Z</time>
      </trkpt>
      <trkpt lat="48.44731" lon="2.10736">
        <ele>147</ele>
        <time>2020-08-04T14:11:41.000Z</time>
      </trkpt>
      <trkpt lat="48.44721" lon="2.10716">
        <ele>147</ele>
        <time>2020-08-04T14:11:44.000Z</time>
      </trkpt>
      <trkpt lat="48.44712" lon="2.10688">
        <ele>147</ele>
        <time>2020-08-04T14:11:48.000Z</time>
      </trkpt>
      <trkpt lat="48.44711" lon="2.10679">
        <ele>147.19999694824</ele>
        <time>2020-08-04T14:11:49.000Z</time>
      </trkpt>
      <trkpt lat="48.44711" lon="2.10671">
        <ele>147.19999694824</ele>
        <time>2020-08-04T14:11:50.000Z</time>
      </trkpt>
      <trkpt lat="48.44715" lon="2.10655">
        <ele>147.39999389648</ele>
        <time>2020-08-04T14:11:52.000Z</time>
      </trkpt>
      <trkpt lat="48.44717" lon="2.10647">
        <ele>147.19999694824</ele>
        <time>2020-08-04T14:11:53.000Z</time>
      </trkpt>
      <trkpt lat="48.44719" lon="2.1063">
        <ele>147</ele>
        <time>2020-08-04T14:11:55.000Z</time>
      </trkpt>
      <trkpt lat="48.44719" lon="2.10622">
        <ele>147</ele>
        <time>2020-08-04T14:11:56.000Z</time>
      </trkpt>
      <trkpt lat="48.44717" lon="2.10614">
        <ele>146.80000305176</ele>
        <time>2020-08-04T14:11:57.000Z</time>
      </trkpt>
      <trkpt lat="48.44711" lon="2.10601">
        <ele>146.60000610352</ele>
        <time>2020-08-04T14:11:59.000Z</time>
      </trkpt>
      <trkpt lat="48.44704" lon="2.10591">
        <ele>146.60000610352</ele>
        <time>2020-08-04T14:12:01.000Z</time>
      </trkpt>
      <trkpt lat="48.44694" lon="2.10586">
        <ele>146.19999694824</ele>
        <time>2020-08-04T14:12:03.000Z</time>
      </trkpt>
      <trkpt lat="48.44683" lon="2.10586">
        <ele>146.19999694824</ele>
        <time>2020-08-04T14:12:05.000Z</time>
      </trkpt>
      <trkpt lat="48.44672" lon="2.10591">
        <ele>146.39999389648</ele>
        <time>2020-08-04T14:12:07.000Z</time>
      </trkpt>
      <trkpt lat="48.44661" lon="2.10598">
        <ele>146.80000305176</ele>
        <time>2020-08-04T14:12:09.000Z</time>
      </trkpt>
      <trkpt lat="48.4465" lon="2.106">
        <ele>147</ele>
        <time>2020-08-04T14:12:11.000Z</time>
      </trkpt>
      <trkpt lat="48.44644" lon="2.10598">
        <ele>147.19999694824</ele>
        <time>2020-08-04T14:12:12.000Z</time>
      </trkpt>
      <trkpt lat="48.44639" lon="2.10595">
        <ele>147.19999694824</ele>
        <time>2020-08-04T14:12:13.000Z</time>
      </trkpt>
      <trkpt lat="48.4463" lon="2.10584">
        <ele>147.39999389648</ele>
        <time>2020-08-04T14:12:15.000Z</time>
      </trkpt>
      <trkpt lat="48.44626" lon="2.10567">
        <ele>147.39999389648</ele>
        <time>2020-08-04T14:12:17.000Z</time>
      </trkpt>
      <trkpt lat="48.44626" lon="2.10559">
        <ele>147.39999389648</ele>
        <time>2020-08-04T14:12:18.000Z</time>
      </trkpt>
      <trkpt lat="48.44628" lon="2.1055">
        <ele>147.39999389648</ele>
        <time>2020-08-04T14:12:19.000Z</time>
      </trkpt>
      <trkpt lat="48.44635" lon="2.10537">
        <ele>147.19999694824</ele>
        <time>2020-08-04T14:12:21.000Z</time>
      </trkpt>
      <trkpt lat="48.44645" lon="2.10528">
        <ele>147</ele>
        <time>2020-08-04T14:12:23.000Z</time>
      </trkpt>
      <trkpt lat="48.44656" lon="2.10521">
        <ele>147</ele>
        <time>2020-08-04T14:12:25.000Z</time>
      </trkpt>
      <trkpt lat="48.44687" lon="2.10497">
        <ele>147</ele>
        <time>2020-08-04T14:12:31.000Z</time>
      </trkpt>
      <trkpt lat="48.44696" lon="2.10485">
        <ele>147.19999694824</ele>
        <time>2020-08-04T14:12:33.000Z</time>
      </trkpt>
      <trkpt lat="48.44703" lon="2.10472">
        <ele>147.60000610352</ele>
        <time>2020-08-04T14:12:35.000Z</time>
      </trkpt>
      <trkpt lat="48.44706" lon="2.10465">
        <ele>147.60000610352</ele>
        <time>2020-08-04T14:12:36.000Z</time>
      </trkpt>
      <trkpt lat="48.44727" lon="2.10404">
        <ele>148.60000610352</ele>
        <time>2020-08-04T14:12:44.000Z</time>
      </trkpt>
      <trkpt lat="48.44747" lon="2.10322">
        <ele>149</ele>
        <time>2020-08-04T14:12:54.000Z</time>
      </trkpt>
      <trkpt lat="48.44754" lon="2.10281">
        <ele>149</ele>
        <time>2020-08-04T14:12:59.000Z</time>
      </trkpt>
      <trkpt lat="48.44755" lon="2.10256">
        <ele>149</ele>
        <time>2020-08-04T14:13:02.000Z</time>
      </trkpt>
      <trkpt lat="48.44752" lon="2.10222">
        <ele>149</ele>
        <time>2020-08-04T14:13:06.000Z</time>
      </trkpt>
      <trkpt lat="48.4475" lon="2.10215">
        <ele>149</ele>
        <time>2020-08-04T14:13:07.000Z</time>
      </trkpt>
      <trkpt lat="48.44731" lon="2.10169">
        <ele>149</ele>
        <time>2020-08-04T14:13:13.000Z</time>
      </trkpt>
      <trkpt lat="48.447" lon="2.10099">
        <ele>148.19999694824</ele>
        <time>2020-08-04T14:13:22.000Z</time>
      </trkpt>
      <trkpt lat="48.4467" lon="2.10032">
        <ele>148</ele>
        <time>2020-08-04T14:13:31.000Z</time>
      </trkpt>
      <trkpt lat="48.44663" lon="2.10017">
        <ele>148</ele>
        <time>2020-08-04T14:13:33.000Z</time>
      </trkpt>
      <trkpt lat="48.44632" lon="2.0995">
        <ele>147.39999389648</ele>
        <time>2020-08-04T14:13:42.000Z</time>
      </trkpt>
      <trkpt lat="48.44629" lon="2.09942">
        <ele>147.39999389648</ele>
        <time>2020-08-04T14:13:43.000Z</time>
      </trkpt>
      <trkpt lat="48.44599" lon="2.09873">
        <ele>147</ele>
        <time>2020-08-04T14:13:52.000Z</time>
      </trkpt>
      <trkpt lat="48.44595" lon="2.09865">
        <ele>147</ele>
        <time>2020-08-04T14:13:53.000Z</time>
      </trkpt>
      <trkpt lat="48.44564" lon="2.09796">
        <ele>146.60000610352</ele>
        <time>2020-08-04T14:14:02.000Z</time>
      </trkpt>
      <trkpt lat="48.44561" lon="2.09788">
        <ele>146.60000610352</ele>
        <time>2020-08-04T14:14:03.000Z</time>
      </trkpt>
      <trkpt lat="48.44551" lon="2.09765">
        <ele>146.39999389648</ele>
        <time>2020-08-04T14:14:06.000Z</time>
      </trkpt>
      <trkpt lat="48.44548" lon="2.09758">
        <ele>146.39999389648</ele>
        <time>2020-08-04T14:14:07.000Z</time>
      </trkpt>
      <trkpt lat="48.44536" lon="2.09729">
        <ele>146</ele>
        <time>2020-08-04T14:14:11.000Z</time>
      </trkpt>
      <trkpt lat="48.44512" lon="2.09676">
        <ele>145.19999694824</ele>
        <time>2020-08-04T14:14:18.000Z</time>
      </trkpt>
      <trkpt lat="48.44486" lon="2.09614">
        <ele>144</ele>
        <time>2020-08-04T14:14:26.000Z</time>
      </trkpt>
      <trkpt lat="48.44454" lon="2.09546">
        <ele>142.80000305176</ele>
        <time>2020-08-04T14:14:35.000Z</time>
      </trkpt>
      <trkpt lat="48.44447" lon="2.09532">
        <ele>142.60000610352</ele>
        <time>2020-08-04T14:14:37.000Z</time>
      </trkpt>
      <trkpt lat="48.44416" lon="2.09466">
        <ele>142.39999389648</ele>
        <time>2020-08-04T14:14:46.000Z</time>
      </trkpt>
      <trkpt lat="48.44387" lon="2.09398">
        <ele>142.80000305176</ele>
        <time>2020-08-04T14:14:55.000Z</time>
      </trkpt>
      <trkpt lat="48.44369" lon="2.09332">
        <ele>141.60000610352</ele>
        <time>2020-08-04T14:15:03.000Z</time>
      </trkpt>
      <trkpt lat="48.44355" lon="2.0925">
        <ele>141.19999694824</ele>
        <time>2020-08-04T14:15:12.000Z</time>
      </trkpt>
      <trkpt lat="48.44353" lon="2.09241">
        <ele>141.19999694824</ele>
        <time>2020-08-04T14:15:13.000Z</time>
      </trkpt>
      <trkpt lat="48.44337" lon="2.09159">
        <ele>140.80000305176</ele>
        <time>2020-08-04T14:15:22.000Z</time>
      </trkpt>
      <trkpt lat="48.4432" lon="2.09101">
        <ele>140.19999694824</ele>
        <time>2020-08-04T14:15:29.000Z</time>
      </trkpt>
      <trkpt lat="48.44292" lon="2.09031">
        <ele>139.60000610352</ele>
        <time>2020-08-04T14:15:38.000Z</time>
      </trkpt>
      <trkpt lat="48.44289" lon="2.09024">
        <ele>139.60000610352</ele>
        <time>2020-08-04T14:15:39.000Z</time>
      </trkpt>
      <trkpt lat="48.44253" lon="2.08952">
        <ele>139.60000610352</ele>
        <time>2020-08-04T14:15:49.000Z</time>
      </trkpt>
      <trkpt lat="48.44227" lon="2.08904">
        <ele>139.80000305176</ele>
        <time>2020-08-04T14:15:56.000Z</time>
      </trkpt>
      <trkpt lat="48.44218" lon="2.08885">
        <ele>139.80000305176</ele>
        <time>2020-08-04T14:15:59.000Z</time>
      </trkpt>
      <trkpt lat="48.44217" lon="2.08877">
        <ele>140</ele>
        <time>2020-08-04T14:16:00.000Z</time>
      </trkpt>
      <trkpt lat="48.44217" lon="2.0887">
        <ele>140.19999694824</ele>
        <time>2020-08-04T14:16:01.000Z</time>
      </trkpt>
      <trkpt lat="48.44214" lon="2.08852">
        <ele>140.39999389648</ele>
        <time>2020-08-04T14:16:04.000Z</time>
      </trkpt>
      <trkpt lat="48.44212" lon="2.08846">
        <ele>140.39999389648</ele>
        <time>2020-08-04T14:16:07.000Z</time>
      </trkpt>
      <trkpt lat="48.44212" lon="2.08846">
        <ele>140.39999389648</ele>
        <time>2020-08-04T14:16:08.000Z</time>
      </trkpt>
      <trkpt lat="48.44213" lon="2.08842">
        <ele>140.39999389648</ele>
        <time>2020-08-04T14:16:23.000Z</time>
      </trkpt>
      <trkpt lat="48.44212" lon="2.08833">
        <ele>140.39999389648</ele>
        <time>2020-08-04T14:16:25.000Z</time>
      </trkpt>
      <trkpt lat="48.44209" lon="2.08794">
        <ele>140.80000305176</ele>
        <time>2020-08-04T14:16:31.000Z</time>
      </trkpt>
      <trkpt lat="48.44203" lon="2.08733">
        <ele>141.19999694824</ele>
        <time>2020-08-04T14:16:40.000Z</time>
      </trkpt>
      <trkpt lat="48.44197" lon="2.08684">
        <ele>140.39999389648</ele>
        <time>2020-08-04T14:16:47.000Z</time>
      </trkpt>
      <trkpt lat="48.44196" lon="2.08678">
        <ele>140.39999389648</ele>
        <time>2020-08-04T14:16:48.000Z</time>
      </trkpt>
      <trkpt lat="48.4419" lon="2.0864">
        <ele>140.39999389648</ele>
        <time>2020-08-04T14:16:53.000Z</time>
      </trkpt>
      <trkpt lat="48.44181" lon="2.08588">
        <ele>140.80000305176</ele>
        <time>2020-08-04T14:17:00.000Z</time>
      </trkpt>
      <trkpt lat="48.44177" lon="2.08574">
        <ele>140.80000305176</ele>
        <time>2020-08-04T14:17:02.000Z</time>
      </trkpt>
      <trkpt lat="48.44171" lon="2.08562">
        <ele>140.19999694824</ele>
        <time>2020-08-04T14:17:04.000Z</time>
      </trkpt>
      <trkpt lat="48.44167" lon="2.08557">
        <ele>140</ele>
        <time>2020-08-04T14:17:05.000Z</time>
      </trkpt>
      <trkpt lat="48.44163" lon="2.08552">
        <ele>139.80000305176</ele>
        <time>2020-08-04T14:17:06.000Z</time>
      </trkpt>
      <trkpt lat="48.44145" lon="2.08537">
        <ele>138.80000305176</ele>
        <time>2020-08-04T14:17:10.000Z</time>
      </trkpt>
      <trkpt lat="48.44112" lon="2.08518">
        <ele>137</ele>
        <time>2020-08-04T14:17:16.000Z</time>
      </trkpt>
      <trkpt lat="48.44076" lon="2.085">
        <ele>136.19999694824</ele>
        <time>2020-08-04T14:17:21.000Z</time>
      </trkpt>
      <trkpt lat="48.44035" lon="2.08472">
        <ele>135.80000305176</ele>
        <time>2020-08-04T14:17:26.000Z</time>
      </trkpt>
      <trkpt lat="48.44018" lon="2.08457">
        <ele>135.60000610352</ele>
        <time>2020-08-04T14:17:28.000Z</time>
      </trkpt>
      <trkpt lat="48.44002" lon="2.08439">
        <ele>135.60000610352</ele>
        <time>2020-08-04T14:17:30.000Z</time>
      </trkpt>
      <trkpt lat="48.43957" lon="2.08371">
        <ele>133.60000610352</ele>
        <time>2020-08-04T14:17:36.000Z</time>
      </trkpt>
      <trkpt lat="48.43949" lon="2.0836">
        <ele>133</ele>
        <time>2020-08-04T14:17:37.000Z</time>
      </trkpt>
      <trkpt lat="48.43913" lon="2.08323">
        <ele>132.19999694824</ele>
        <time>2020-08-04T14:17:41.000Z</time>
      </trkpt>
      <trkpt lat="48.43876" lon="2.08286">
        <ele>132</ele>
        <time>2020-08-04T14:17:45.000Z</time>
      </trkpt>
      <trkpt lat="48.43867" lon="2.08275">
        <ele>131.60000610352</ele>
        <time>2020-08-04T14:17:46.000Z</time>
      </trkpt>
      <trkpt lat="48.43852" lon="2.08248">
        <ele>130.19999694824</ele>
        <time>2020-08-04T14:17:48.000Z</time>
      </trkpt>
      <trkpt lat="48.4384" lon="2.08219">
        <ele>129.80000305176</ele>
        <time>2020-08-04T14:17:50.000Z</time>
      </trkpt>
      <trkpt lat="48.43811" lon="2.08148">
        <ele>128.39999389648</ele>
        <time>2020-08-04T14:17:55.000Z</time>
      </trkpt>
      <trkpt lat="48.438" lon="2.0812">
        <ele>126.19999694824</ele>
        <time>2020-08-04T14:17:57.000Z</time>
      </trkpt>
      <trkpt lat="48.4379" lon="2.08093">
        <ele>125</ele>
        <time>2020-08-04T14:17:59.000Z</time>
      </trkpt>
      <trkpt lat="48.43779" lon="2.08068">
        <ele>124.19999694824</ele>
        <time>2020-08-04T14:18:01.000Z</time>
      </trkpt>
      <trkpt lat="48.43772" lon="2.08058">
        <ele>123.40000152588</ele>
        <time>2020-08-04T14:18:02.000Z</time>
      </trkpt>
      <trkpt lat="48.43752" lon="2.0803">
        <ele>121.80000305176</ele>
        <time>2020-08-04T14:18:05.000Z</time>
      </trkpt>
      <trkpt lat="48.43741" lon="2.08012">
        <ele>120.80000305176</ele>
        <time>2020-08-04T14:18:07.000Z</time>
      </trkpt>
      <trkpt lat="48.43733" lon="2.07992">
        <ele>120</ele>
        <time>2020-08-04T14:18:09.000Z</time>
      </trkpt>
      <trkpt lat="48.43721" lon="2.07978">
        <ele>118.40000152588</ele>
        <time>2020-08-04T14:18:11.000Z</time>
      </trkpt>
      <trkpt lat="48.43715" lon="2.07972">
        <ele>117.80000305176</ele>
        <time>2020-08-04T14:18:12.000Z</time>
      </trkpt>
      <trkpt lat="48.43709" lon="2.07966">
        <ele>117</ele>
        <time>2020-08-04T14:18:13.000Z</time>
      </trkpt>
      <trkpt lat="48.43683" lon="2.07938">
        <ele>114</ele>
        <time>2020-08-04T14:18:17.000Z</time>
      </trkpt>
      <trkpt lat="48.43676" lon="2.07933">
        <ele>113.19999694824</ele>
        <time>2020-08-04T14:18:18.000Z</time>
      </trkpt>
      <trkpt lat="48.43644" lon="2.07912">
        <ele>109.80000305176</ele>
        <time>2020-08-04T14:18:22.000Z</time>
      </trkpt>
      <trkpt lat="48.43636" lon="2.07907">
        <ele>109.19999694824</ele>
        <time>2020-08-04T14:18:23.000Z</time>
      </trkpt>
      <trkpt lat="48.4361" lon="2.07895">
        <ele>108</ele>
        <time>2020-08-04T14:18:26.000Z</time>
      </trkpt>
      <trkpt lat="48.43592" lon="2.07887">
        <ele>106.80000305176</ele>
        <time>2020-08-04T14:18:28.000Z</time>
      </trkpt>
      <trkpt lat="48.43575" lon="2.07877">
        <ele>105</ele>
        <time>2020-08-04T14:18:30.000Z</time>
      </trkpt>
      <trkpt lat="48.43534" lon="2.07843">
        <ele>100.19999694824</ele>
        <time>2020-08-04T14:18:35.000Z</time>
      </trkpt>
      <trkpt lat="48.4348" lon="2.07809">
        <ele>97</ele>
        <time>2020-08-04T14:18:41.000Z</time>
      </trkpt>
      <trkpt lat="48.43461" lon="2.07797">
        <ele>96.199996948242</ele>
        <time>2020-08-04T14:18:43.000Z</time>
      </trkpt>
      <trkpt lat="48.43428" lon="2.07775">
        <ele>94.199996948242</ele>
        <time>2020-08-04T14:18:47.000Z</time>
      </trkpt>
      <trkpt lat="48.43421" lon="2.07768">
        <ele>93.400001525879</ele>
        <time>2020-08-04T14:18:48.000Z</time>
      </trkpt>
      <trkpt lat="48.43401" lon="2.07745">
        <ele>90.199996948242</ele>
        <time>2020-08-04T14:18:52.000Z</time>
      </trkpt>
      <trkpt lat="48.43393" lon="2.07733">
        <ele>89.400001525879</ele>
        <time>2020-08-04T14:18:55.000Z</time>
      </trkpt>
      <trkpt lat="48.43386" lon="2.07722">
        <ele>88.800003051758</ele>
        <time>2020-08-04T14:18:57.000Z</time>
      </trkpt>
      <trkpt lat="48.43373" lon="2.07682">
        <ele>86.400001525879</ele>
        <time>2020-08-04T14:19:02.000Z</time>
      </trkpt>
      <trkpt lat="48.43351" lon="2.07608">
        <ele>83.800003051758</ele>
        <time>2020-08-04T14:19:10.000Z</time>
      </trkpt>
      <trkpt lat="48.43338" lon="2.07555">
        <ele>83</ele>
        <time>2020-08-04T14:19:16.000Z</time>
      </trkpt>
      <trkpt lat="48.43331" lon="2.07536">
        <ele>83</ele>
        <time>2020-08-04T14:19:19.000Z</time>
      </trkpt>
      <trkpt lat="48.43333" lon="2.07526">
        <ele>83</ele>
        <time>2020-08-04T14:19:21.000Z</time>
      </trkpt>
      <trkpt lat="48.43336" lon="2.0752">
        <ele>83</ele>
        <time>2020-08-04T14:19:22.000Z</time>
      </trkpt>
      <trkpt lat="48.43353" lon="2.07493">
        <ele>83.199996948242</ele>
        <time>2020-08-04T14:19:27.000Z</time>
      </trkpt>
      <trkpt lat="48.43356" lon="2.07486">
        <ele>83.199996948242</ele>
        <time>2020-08-04T14:19:28.000Z</time>
      </trkpt>
      <trkpt lat="48.43364" lon="2.07466">
        <ele>83.400001525879</ele>
        <time>2020-08-04T14:19:31.000Z</time>
      </trkpt>
      <trkpt lat="48.43371" lon="2.07457">
        <ele>83.599998474121</ele>
        <time>2020-08-04T14:19:33.000Z</time>
      </trkpt>
      <trkpt lat="48.43384" lon="2.0743">
        <ele>83.599998474121</ele>
        <time>2020-08-04T14:19:37.000Z</time>
      </trkpt>
      <trkpt lat="48.43407" lon="2.07379">
        <ele>84</ele>
        <time>2020-08-04T14:19:44.000Z</time>
      </trkpt>
      <trkpt lat="48.43427" lon="2.07339">
        <ele>84</ele>
        <time>2020-08-04T14:19:50.000Z</time>
      </trkpt>
      <trkpt lat="48.43435" lon="2.07317">
        <ele>84.400001525879</ele>
        <time>2020-08-04T14:19:53.000Z</time>
      </trkpt>
      <trkpt lat="48.43443" lon="2.07289">
        <ele>86</ele>
        <time>2020-08-04T14:19:57.000Z</time>
      </trkpt>
      <trkpt lat="48.43448" lon="2.07274">
        <ele>86.800003051758</ele>
        <time>2020-08-04T14:19:59.000Z</time>
      </trkpt>
      <trkpt lat="48.43454" lon="2.07254">
        <ele>87.199996948242</ele>
        <time>2020-08-04T14:20:02.000Z</time>
      </trkpt>
      <trkpt lat="48.43473" lon="2.072">
        <ele>86</ele>
        <time>2020-08-04T14:20:09.000Z</time>
      </trkpt>
      <trkpt lat="48.43486" lon="2.07162">
        <ele>85</ele>
        <time>2020-08-04T14:20:15.000Z</time>
      </trkpt>
      <trkpt lat="48.43489" lon="2.0715">
        <ele>85.199996948242</ele>
        <time>2020-08-04T14:20:17.000Z</time>
      </trkpt>
      <trkpt lat="48.43495" lon="2.07131">
        <ele>85.599998474121</ele>
        <time>2020-08-04T14:20:20.000Z</time>
      </trkpt>
      <trkpt lat="48.43504" lon="2.07094">
        <ele>85.199996948242</ele>
        <time>2020-08-04T14:20:25.000Z</time>
      </trkpt>
      <trkpt lat="48.43519" lon="2.07035">
        <ele>86.599998474121</ele>
        <time>2020-08-04T14:20:33.000Z</time>
      </trkpt>
      <trkpt lat="48.43521" lon="2.07028">
        <ele>87</ele>
        <time>2020-08-04T14:20:34.000Z</time>
      </trkpt>
      <trkpt lat="48.43532" lon="2.06985">
        <ele>88.800003051758</ele>
        <time>2020-08-04T14:20:40.000Z</time>
      </trkpt>
      <trkpt lat="48.43534" lon="2.06974">
        <ele>89.199996948242</ele>
        <time>2020-08-04T14:20:42.000Z</time>
      </trkpt>
      <trkpt lat="48.43536" lon="2.06968">
        <ele>89.599998474121</ele>
        <time>2020-08-04T14:20:43.000Z</time>
      </trkpt>
      <trkpt lat="48.43539" lon="2.06953">
        <ele>90.199996948242</ele>
        <time>2020-08-04T14:20:45.000Z</time>
      </trkpt>
      <trkpt lat="48.43542" lon="2.06938">
        <ele>90.800003051758</ele>
        <time>2020-08-04T14:20:47.000Z</time>
      </trkpt>
      <trkpt lat="48.43544" lon="2.0693">
        <ele>90.599998474121</ele>
        <time>2020-08-04T14:20:48.000Z</time>
      </trkpt>
      <trkpt lat="48.43549" lon="2.06906">
        <ele>89.800003051758</ele>
        <time>2020-08-04T14:20:51.000Z</time>
      </trkpt>
      <trkpt lat="48.43551" lon="2.06889">
        <ele>89.400001525879</ele>
        <time>2020-08-04T14:20:53.000Z</time>
      </trkpt>
      <trkpt lat="48.43556" lon="2.06874">
        <ele>89.199996948242</ele>
        <time>2020-08-04T14:20:55.000Z</time>
      </trkpt>
      <trkpt lat="48.43568" lon="2.06832">
        <ele>88.400001525879</ele>
        <time>2020-08-04T14:21:01.000Z</time>
      </trkpt>
      <trkpt lat="48.4357" lon="2.06827">
        <ele>88.400001525879</ele>
        <time>2020-08-04T14:21:02.000Z</time>
      </trkpt>
      <trkpt lat="48.43576" lon="2.06811">
        <ele>88.599998474121</ele>
        <time>2020-08-04T14:21:05.000Z</time>
      </trkpt>
      <trkpt lat="48.43577" lon="2.06805">
        <ele>88.800003051758</ele>
        <time>2020-08-04T14:21:06.000Z</time>
      </trkpt>
      <trkpt lat="48.43579" lon="2.06799">
        <ele>88.800003051758</ele>
        <time>2020-08-04T14:21:07.000Z</time>
      </trkpt>
      <trkpt lat="48.43584" lon="2.06784">
        <ele>89.199996948242</ele>
        <time>2020-08-04T14:21:10.000Z</time>
      </trkpt>
      <trkpt lat="48.43587" lon="2.06779">
        <ele>89.199996948242</ele>
        <time>2020-08-04T14:21:11.000Z</time>
      </trkpt>
      <trkpt lat="48.43593" lon="2.06766">
        <ele>89.599998474121</ele>
        <time>2020-08-04T14:21:13.000Z</time>
      </trkpt>
      <trkpt lat="48.43595" lon="2.06761">
        <ele>89.599998474121</ele>
        <time>2020-08-04T14:21:14.000Z</time>
      </trkpt>
      <trkpt lat="48.43605" lon="2.06741">
        <ele>90</ele>
        <time>2020-08-04T14:21:18.000Z</time>
      </trkpt>
      <trkpt lat="48.43608" lon="2.06735">
        <ele>89.599998474121</ele>
        <time>2020-08-04T14:21:19.000Z</time>
      </trkpt>
      <trkpt lat="48.43613" lon="2.06715">
        <ele>88.199996948242</ele>
        <time>2020-08-04T14:21:22.000Z</time>
      </trkpt>
      <trkpt lat="48.43624" lon="2.06686">
        <ele>86.199996948242</ele>
        <time>2020-08-04T14:21:27.000Z</time>
      </trkpt>
      <trkpt lat="48.43636" lon="2.06662">
        <ele>84.599998474121</ele>
        <time>2020-08-04T14:21:32.000Z</time>
      </trkpt>
      <trkpt lat="48.4365" lon="2.06637">
        <ele>84.400001525879</ele>
        <time>2020-08-04T14:21:37.000Z</time>
      </trkpt>
      <trkpt lat="48.43659" lon="2.06621">
        <ele>84.400001525879</ele>
        <time>2020-08-04T14:21:40.000Z</time>
      </trkpt>
      <trkpt lat="48.43662" lon="2.06615">
        <ele>84.599998474121</ele>
        <time>2020-08-04T14:21:41.000Z</time>
      </trkpt>
      <trkpt lat="48.43665" lon="2.06609">
        <ele>84.599998474121</ele>
        <time>2020-08-04T14:21:42.000Z</time>
      </trkpt>
      <trkpt lat="48.43673" lon="2.06592">
        <ele>84.800003051758</ele>
        <time>2020-08-04T14:21:45.000Z</time>
      </trkpt>
      <trkpt lat="48.43685" lon="2.06571">
        <ele>85.199996948242</ele>
        <time>2020-08-04T14:21:49.000Z</time>
      </trkpt>
      <trkpt lat="48.43689" lon="2.06565">
        <ele>85.199996948242</ele>
        <time>2020-08-04T14:21:50.000Z</time>
      </trkpt>
      <trkpt lat="48.43704" lon="2.06547">
        <ele>85.800003051758</ele>
        <time>2020-08-04T14:21:54.000Z</time>
      </trkpt>
      <trkpt lat="48.43709" lon="2.06543">
        <ele>85.800003051758</ele>
        <time>2020-08-04T14:21:55.000Z</time>
      </trkpt>
      <trkpt lat="48.43719" lon="2.0653">
        <ele>86.199996948242</ele>
        <time>2020-08-04T14:21:58.000Z</time>
      </trkpt>
      <trkpt lat="48.43721" lon="2.06524">
        <ele>86</ele>
        <time>2020-08-04T14:21:59.000Z</time>
      </trkpt>
      <trkpt lat="48.43731" lon="2.0651">
        <ele>85.800003051758</ele>
        <time>2020-08-04T14:22:02.000Z</time>
      </trkpt>
      <trkpt lat="48.43743" lon="2.06494">
        <ele>85.599998474121</ele>
        <time>2020-08-04T14:22:06.000Z</time>
      </trkpt>
      <trkpt lat="48.43761" lon="2.06471">
        <ele>86</ele>
        <time>2020-08-04T14:22:11.000Z</time>
      </trkpt>
      <trkpt lat="48.43774" lon="2.06455">
        <ele>86.599998474121</ele>
        <time>2020-08-04T14:22:15.000Z</time>
      </trkpt>
      <trkpt lat="48.43778" lon="2.06451">
        <ele>86.800003051758</ele>
        <time>2020-08-04T14:22:16.000Z</time>
      </trkpt>
      <trkpt lat="48.43793" lon="2.06436">
        <ele>87.400001525879</ele>
        <time>2020-08-04T14:22:19.000Z</time>
      </trkpt>
      <trkpt lat="48.43816" lon="2.06412">
        <ele>88.199996948242</ele>
        <time>2020-08-04T14:22:25.000Z</time>
      </trkpt>
      <trkpt lat="48.4382" lon="2.06409">
        <ele>88.400001525879</ele>
        <time>2020-08-04T14:22:26.000Z</time>
      </trkpt>
      <trkpt lat="48.4383" lon="2.06403">
        <ele>88.400001525879</ele>
        <time>2020-08-04T14:22:28.000Z</time>
      </trkpt>
      <trkpt lat="48.43843" lon="2.06392">
        <ele>88.400001525879</ele>
        <time>2020-08-04T14:22:32.000Z</time>
      </trkpt>
      <trkpt lat="48.43846" lon="2.0639">
        <ele>88.400001525879</ele>
        <time>2020-08-04T14:22:33.000Z</time>
      </trkpt>
      <trkpt lat="48.43861" lon="2.06378">
        <ele>88.599998474121</ele>
        <time>2020-08-04T14:22:36.000Z</time>
      </trkpt>
      <trkpt lat="48.43882" lon="2.0636">
        <ele>89.400001525879</ele>
        <time>2020-08-04T14:22:40.000Z</time>
      </trkpt>
      <trkpt lat="48.43893" lon="2.06354">
        <ele>89.599998474121</ele>
        <time>2020-08-04T14:22:42.000Z</time>
      </trkpt>
      <trkpt lat="48.43918" lon="2.06337">
        <ele>89.800003051758</ele>
        <time>2020-08-04T14:22:48.000Z</time>
      </trkpt>
      <trkpt lat="48.43929" lon="2.06328">
        <ele>90</ele>
        <time>2020-08-04T14:22:53.000Z</time>
      </trkpt>
      <trkpt lat="48.4393" lon="2.06326">
        <ele>90</ele>
        <time>2020-08-04T14:22:54.000Z</time>
      </trkpt>
      <trkpt lat="48.43937" lon="2.0632">
        <ele>90.800003051758</ele>
        <time>2020-08-04T14:22:57.000Z</time>
      </trkpt>
      <trkpt lat="48.43953" lon="2.06309">
        <ele>93.599998474121</ele>
        <time>2020-08-04T14:23:02.000Z</time>
      </trkpt>
      <trkpt lat="48.43979" lon="2.06293">
        <ele>98.599998474121</ele>
        <time>2020-08-04T14:23:08.000Z</time>
      </trkpt>
      <trkpt lat="48.44009" lon="2.06273">
        <ele>98</ele>
        <time>2020-08-04T14:23:15.000Z</time>
      </trkpt>
      <trkpt lat="48.44026" lon="2.06264">
        <ele>97.599998474121</ele>
        <time>2020-08-04T14:23:20.000Z</time>
      </trkpt>
      <trkpt lat="48.44049" lon="2.06249">
        <ele>96.599998474121</ele>
        <time>2020-08-04T14:23:26.000Z</time>
      </trkpt>
      <trkpt lat="48.44062" lon="2.06238">
        <ele>96</ele>
        <time>2020-08-04T14:23:30.000Z</time>
      </trkpt>
      <trkpt lat="48.44076" lon="2.06227">
        <ele>96.199996948242</ele>
        <time>2020-08-04T14:23:35.000Z</time>
      </trkpt>
      <trkpt lat="48.44086" lon="2.06217">
        <ele>96.800003051758</ele>
        <time>2020-08-04T14:23:39.000Z</time>
      </trkpt>
      <trkpt lat="48.44103" lon="2.06205">
        <ele>98</ele>
        <time>2020-08-04T14:23:44.000Z</time>
      </trkpt>
      <trkpt lat="48.4412" lon="2.06191">
        <ele>98</ele>
        <time>2020-08-04T14:23:49.000Z</time>
      </trkpt>
      <trkpt lat="48.4414" lon="2.06175">
        <ele>98.599998474121</ele>
        <time>2020-08-04T14:23:54.000Z</time>
      </trkpt>
      <trkpt lat="48.4417" lon="2.06149">
        <ele>101.19999694824</ele>
        <time>2020-08-04T14:24:01.000Z</time>
      </trkpt>
      <trkpt lat="48.44191" lon="2.06134">
        <ele>103.40000152588</ele>
        <time>2020-08-04T14:24:06.000Z</time>
      </trkpt>
      <trkpt lat="48.44209" lon="2.06122">
        <ele>105</ele>
        <time>2020-08-04T14:24:10.000Z</time>
      </trkpt>
      <trkpt lat="48.44218" lon="2.06116">
        <ele>105.80000305176</ele>
        <time>2020-08-04T14:24:12.000Z</time>
      </trkpt>
      <trkpt lat="48.44226" lon="2.0611">
        <ele>106</ele>
        <time>2020-08-04T14:24:14.000Z</time>
      </trkpt>
      <trkpt lat="48.44232" lon="2.06107">
        <ele>105.80000305176</ele>
        <time>2020-08-04T14:24:15.000Z</time>
      </trkpt>
      <trkpt lat="48.44254" lon="2.06089">
        <ele>105.80000305176</ele>
        <time>2020-08-04T14:24:20.000Z</time>
      </trkpt>
      <trkpt lat="48.44272" lon="2.06078">
        <ele>105.80000305176</ele>
        <time>2020-08-04T14:24:24.000Z</time>
      </trkpt>
      <trkpt lat="48.44287" lon="2.06065">
        <ele>105.80000305176</ele>
        <time>2020-08-04T14:24:28.000Z</time>
      </trkpt>
      <trkpt lat="48.44308" lon="2.06049">
        <ele>106.40000152588</ele>
        <time>2020-08-04T14:24:33.000Z</time>
      </trkpt>
      <trkpt lat="48.44333" lon="2.06025">
        <ele>108</ele>
        <time>2020-08-04T14:24:40.000Z</time>
      </trkpt>
      <trkpt lat="48.44361" lon="2.05996">
        <ele>110</ele>
        <time>2020-08-04T14:24:46.000Z</time>
      </trkpt>
      <trkpt lat="48.44382" lon="2.05975">
        <ele>110.80000305176</ele>
        <time>2020-08-04T14:24:50.000Z</time>
      </trkpt>
      <trkpt lat="48.44389" lon="2.05967">
        <ele>111.59999847412</ele>
        <time>2020-08-04T14:24:52.000Z</time>
      </trkpt>
      <trkpt lat="48.44404" lon="2.05953">
        <ele>112</ele>
        <time>2020-08-04T14:24:55.000Z</time>
      </trkpt>
      <trkpt lat="48.4442" lon="2.05934">
        <ele>112.40000152588</ele>
        <time>2020-08-04T14:24:59.000Z</time>
      </trkpt>
      <trkpt lat="48.44441" lon="2.05907">
        <ele>113.59999847412</ele>
        <time>2020-08-04T14:25:04.000Z</time>
      </trkpt>
      <trkpt lat="48.44445" lon="2.05901">
        <ele>113.80000305176</ele>
        <time>2020-08-04T14:25:05.000Z</time>
      </trkpt>
      <trkpt lat="48.4446" lon="2.05881">
        <ele>114.80000305176</ele>
        <time>2020-08-04T14:25:09.000Z</time>
      </trkpt>
      <trkpt lat="48.44463" lon="2.05875">
        <ele>115.19999694824</ele>
        <time>2020-08-04T14:25:10.000Z</time>
      </trkpt>
      <trkpt lat="48.44479" lon="2.05855">
        <ele>115.59999847412</ele>
        <time>2020-08-04T14:25:14.000Z</time>
      </trkpt>
      <trkpt lat="48.44484" lon="2.05849">
        <ele>115.59999847412</ele>
        <time>2020-08-04T14:25:15.000Z</time>
      </trkpt>
      <trkpt lat="48.44491" lon="2.05837">
        <ele>115.80000305176</ele>
        <time>2020-08-04T14:25:17.000Z</time>
      </trkpt>
      <trkpt lat="48.44497" lon="2.05826">
        <ele>116.19999694824</ele>
        <time>2020-08-04T14:25:19.000Z</time>
      </trkpt>
      <trkpt lat="48.44504" lon="2.05815">
        <ele>116</ele>
        <time>2020-08-04T14:25:21.000Z</time>
      </trkpt>
      <trkpt lat="48.4451" lon="2.05802">
        <ele>116.19999694824</ele>
        <time>2020-08-04T14:25:23.000Z</time>
      </trkpt>
      <trkpt lat="48.44517" lon="2.0579">
        <ele>116.40000152588</ele>
        <time>2020-08-04T14:25:25.000Z</time>
      </trkpt>
      <trkpt lat="48.44529" lon="2.05772">
        <ele>116.19999694824</ele>
        <time>2020-08-04T14:25:28.000Z</time>
      </trkpt>
      <trkpt lat="48.44533" lon="2.05765">
        <ele>116.19999694824</ele>
        <time>2020-08-04T14:25:29.000Z</time>
      </trkpt>
      <trkpt lat="48.44548" lon="2.05741">
        <ele>114.80000305176</ele>
        <time>2020-08-04T14:25:33.000Z</time>
      </trkpt>
      <trkpt lat="48.44553" lon="2.05728">
        <ele>114.19999694824</ele>
        <time>2020-08-04T14:25:35.000Z</time>
      </trkpt>
      <trkpt lat="48.44559" lon="2.05716">
        <ele>113.59999847412</ele>
        <time>2020-08-04T14:25:37.000Z</time>
      </trkpt>
      <trkpt lat="48.44563" lon="2.05709">
        <ele>113.19999694824</ele>
        <time>2020-08-04T14:25:38.000Z</time>
      </trkpt>
      <trkpt lat="48.44578" lon="2.05682">
        <ele>112.19999694824</ele>
        <time>2020-08-04T14:25:43.000Z</time>
      </trkpt>
      <trkpt lat="48.44581" lon="2.05677">
        <ele>112</ele>
        <time>2020-08-04T14:25:44.000Z</time>
      </trkpt>
      <trkpt lat="48.44589" lon="2.05659">
        <ele>111.59999847412</ele>
        <time>2020-08-04T14:25:47.000Z</time>
      </trkpt>
      <trkpt lat="48.44594" lon="2.05653">
        <ele>111.19999694824</ele>
        <time>2020-08-04T14:25:48.000Z</time>
      </trkpt>
      <trkpt lat="48.44599" lon="2.05647">
        <ele>111</ele>
        <time>2020-08-04T14:25:49.000Z</time>
      </trkpt>
      <trkpt lat="48.44608" lon="2.05627">
        <ele>112</ele>
        <time>2020-08-04T14:25:52.000Z</time>
      </trkpt>
      <trkpt lat="48.44633" lon="2.05579">
        <ele>112.59999847412</ele>
        <time>2020-08-04T14:25:59.000Z</time>
      </trkpt>
      <trkpt lat="48.44652" lon="2.05546">
        <ele>111.40000152588</ele>
        <time>2020-08-04T14:26:04.000Z</time>
      </trkpt>
      <trkpt lat="48.44665" lon="2.0552">
        <ele>109</ele>
        <time>2020-08-04T14:26:08.000Z</time>
      </trkpt>
      <trkpt lat="48.44667" lon="2.05514">
        <ele>108.59999847412</ele>
        <time>2020-08-04T14:26:09.000Z</time>
      </trkpt>
      <trkpt lat="48.44678" lon="2.05492">
        <ele>106.59999847412</ele>
        <time>2020-08-04T14:26:13.000Z</time>
      </trkpt>
      <trkpt lat="48.44687" lon="2.05474">
        <ele>106.40000152588</ele>
        <time>2020-08-04T14:26:16.000Z</time>
      </trkpt>
      <trkpt lat="48.44694" lon="2.05461">
        <ele>107</ele>
        <time>2020-08-04T14:26:18.000Z</time>
      </trkpt>
      <trkpt lat="48.44703" lon="2.05444">
        <ele>108</ele>
        <time>2020-08-04T14:26:21.000Z</time>
      </trkpt>
      <trkpt lat="48.4471" lon="2.05432">
        <ele>108.40000152588</ele>
        <time>2020-08-04T14:26:23.000Z</time>
      </trkpt>
      <trkpt lat="48.44718" lon="2.0542">
        <ele>108.19999694824</ele>
        <time>2020-08-04T14:26:25.000Z</time>
      </trkpt>
      <trkpt lat="48.44732" lon="2.05394">
        <ele>108.80000305176</ele>
        <time>2020-08-04T14:26:29.000Z</time>
      </trkpt>
      <trkpt lat="48.44745" lon="2.05361">
        <ele>107.80000305176</ele>
        <time>2020-08-04T14:26:34.000Z</time>
      </trkpt>
      <trkpt lat="48.4475" lon="2.05349">
        <ele>107</ele>
        <time>2020-08-04T14:26:36.000Z</time>
      </trkpt>
      <trkpt lat="48.44753" lon="2.05342">
        <ele>106.40000152588</ele>
        <time>2020-08-04T14:26:37.000Z</time>
      </trkpt>
      <trkpt lat="48.44759" lon="2.05321">
        <ele>105.59999847412</ele>
        <time>2020-08-04T14:26:40.000Z</time>
      </trkpt>
      <trkpt lat="48.44764" lon="2.05301">
        <ele>104.19999694824</ele>
        <time>2020-08-04T14:26:43.000Z</time>
      </trkpt>
      <trkpt lat="48.4477" lon="2.0528">
        <ele>104.40000152588</ele>
        <time>2020-08-04T14:26:46.000Z</time>
      </trkpt>
      <trkpt lat="48.44774" lon="2.05266">
        <ele>104.59999847412</ele>
        <time>2020-08-04T14:26:48.000Z</time>
      </trkpt>
      <trkpt lat="48.44776" lon="2.05258">
        <ele>104.80000305176</ele>
        <time>2020-08-04T14:26:49.000Z</time>
      </trkpt>
      <trkpt lat="48.44781" lon="2.05235">
        <ele>105</ele>
        <time>2020-08-04T14:26:52.000Z</time>
      </trkpt>
      <trkpt lat="48.44787" lon="2.05205">
        <ele>106.19999694824</ele>
        <time>2020-08-04T14:26:56.000Z</time>
      </trkpt>
      <trkpt lat="48.4479" lon="2.0519">
        <ele>106.59999847412</ele>
        <time>2020-08-04T14:26:58.000Z</time>
      </trkpt>
      <trkpt lat="48.44795" lon="2.05153">
        <ele>105.19999694824</ele>
        <time>2020-08-04T14:27:03.000Z</time>
      </trkpt>
      <trkpt lat="48.44796" lon="2.05125">
        <ele>107.80000305176</ele>
        <time>2020-08-04T14:27:08.000Z</time>
      </trkpt>
      <trkpt lat="48.44797" lon="2.05101">
        <ele>109</ele>
        <time>2020-08-04T14:27:15.000Z</time>
      </trkpt>
      <trkpt lat="48.44797" lon="2.0508">
        <ele>108</ele>
        <time>2020-08-04T14:27:20.000Z</time>
      </trkpt>
      <trkpt lat="48.44799" lon="2.05055">
        <ele>109.80000305176</ele>
        <time>2020-08-04T14:27:25.000Z</time>
      </trkpt>
      <trkpt lat="48.44798" lon="2.05042">
        <ele>111.19999694824</ele>
        <time>2020-08-04T14:27:27.000Z</time>
      </trkpt>
      <trkpt lat="48.44796" lon="2.05019">
        <ele>113.19999694824</ele>
        <time>2020-08-04T14:27:30.000Z</time>
      </trkpt>
      <trkpt lat="48.44796" lon="2.05004">
        <ele>113.80000305176</ele>
        <time>2020-08-04T14:27:32.000Z</time>
      </trkpt>
      <trkpt lat="48.44794" lon="2.0498">
        <ele>114.59999847412</ele>
        <time>2020-08-04T14:27:35.000Z</time>
      </trkpt>
      <trkpt lat="48.4479" lon="2.04926">
        <ele>116.40000152588</ele>
        <time>2020-08-04T14:27:42.000Z</time>
      </trkpt>
      <trkpt lat="48.44785" lon="2.04894">
        <ele>117</ele>
        <time>2020-08-04T14:27:46.000Z</time>
      </trkpt>
      <trkpt lat="48.44783" lon="2.04878">
        <ele>117</ele>
        <time>2020-08-04T14:27:48.000Z</time>
      </trkpt>
      <trkpt lat="48.44771" lon="2.04815">
        <ele>117.40000152588</ele>
        <time>2020-08-04T14:27:56.000Z</time>
      </trkpt>
      <trkpt lat="48.4477" lon="2.04808">
        <ele>117.40000152588</ele>
        <time>2020-08-04T14:27:57.000Z</time>
      </trkpt>
      <trkpt lat="48.44765" lon="2.04777">
        <ele>117.59999847412</ele>
        <time>2020-08-04T14:28:01.000Z</time>
      </trkpt>
      <trkpt lat="48.44757" lon="2.04717">
        <ele>118.80000305176</ele>
        <time>2020-08-04T14:28:09.000Z</time>
      </trkpt>
      <trkpt lat="48.44753" lon="2.04687">
        <ele>119.59999847412</ele>
        <time>2020-08-04T14:28:13.000Z</time>
      </trkpt>
      <trkpt lat="48.44748" lon="2.04656">
        <ele>120.59999847412</ele>
        <time>2020-08-04T14:28:17.000Z</time>
      </trkpt>
      <trkpt lat="48.44746" lon="2.04649">
        <ele>120.80000305176</ele>
        <time>2020-08-04T14:28:18.000Z</time>
      </trkpt>
      <trkpt lat="48.44737" lon="2.04589">
        <ele>122.59999847412</ele>
        <time>2020-08-04T14:28:26.000Z</time>
      </trkpt>
      <trkpt lat="48.4473" lon="2.04543">
        <ele>123.19999694824</ele>
        <time>2020-08-04T14:28:32.000Z</time>
      </trkpt>
      <trkpt lat="48.44722" lon="2.04497">
        <ele>124.80000305176</ele>
        <time>2020-08-04T14:28:38.000Z</time>
      </trkpt>
      <trkpt lat="48.44715" lon="2.04436">
        <ele>125.19999694824</ele>
        <time>2020-08-04T14:28:46.000Z</time>
      </trkpt>
      <trkpt lat="48.44705" lon="2.04375">
        <ele>126</ele>
        <time>2020-08-04T14:28:54.000Z</time>
      </trkpt>
      <trkpt lat="48.44703" lon="2.04361">
        <ele>125.80000305176</ele>
        <time>2020-08-04T14:28:56.000Z</time>
      </trkpt>
      <trkpt lat="48.447" lon="2.04338">
        <ele>126</ele>
        <time>2020-08-04T14:28:59.000Z</time>
      </trkpt>
      <trkpt lat="48.44691" lon="2.04293">
        <ele>126.19999694824</ele>
        <time>2020-08-04T14:29:05.000Z</time>
      </trkpt>
      <trkpt lat="48.44681" lon="2.04242">
        <ele>126.19999694824</ele>
        <time>2020-08-04T14:29:12.000Z</time>
      </trkpt>
      <trkpt lat="48.44669" lon="2.04199">
        <ele>126.40000152588</ele>
        <time>2020-08-04T14:29:18.000Z</time>
      </trkpt>
      <trkpt lat="48.44657" lon="2.04163">
        <ele>126.80000305176</ele>
        <time>2020-08-04T14:29:23.000Z</time>
      </trkpt>
      <trkpt lat="48.44655" lon="2.04156">
        <ele>126.59999847412</ele>
        <time>2020-08-04T14:29:24.000Z</time>
      </trkpt>
      <trkpt lat="48.44639" lon="2.04115">
        <ele>125</ele>
        <time>2020-08-04T14:29:30.000Z</time>
      </trkpt>
      <trkpt lat="48.44624" lon="2.04074">
        <ele>125.40000152588</ele>
        <time>2020-08-04T14:29:36.000Z</time>
      </trkpt>
      <trkpt lat="48.44607" lon="2.04036">
        <ele>124.19999694824</ele>
        <time>2020-08-04T14:29:42.000Z</time>
      </trkpt>
      <trkpt lat="48.44592" lon="2.04005">
        <ele>123.80000305176</ele>
        <time>2020-08-04T14:29:47.000Z</time>
      </trkpt>
      <trkpt lat="48.44571" lon="2.03962">
        <ele>124.59999847412</ele>
        <time>2020-08-04T14:29:54.000Z</time>
      </trkpt>
      <trkpt lat="48.44563" lon="2.03943">
        <ele>125.59999847412</ele>
        <time>2020-08-04T14:29:57.000Z</time>
      </trkpt>
      <trkpt lat="48.44553" lon="2.03925">
        <ele>126.59999847412</ele>
        <time>2020-08-04T14:30:00.000Z</time>
      </trkpt>
      <trkpt lat="48.44539" lon="2.03894">
        <ele>127.19999694824</ele>
        <time>2020-08-04T14:30:05.000Z</time>
      </trkpt>
      <trkpt lat="48.44521" lon="2.03848">
        <ele>126</ele>
        <time>2020-08-04T14:30:12.000Z</time>
      </trkpt>
      <trkpt lat="48.44498" lon="2.03792">
        <ele>126</ele>
        <time>2020-08-04T14:30:20.000Z</time>
      </trkpt>
      <trkpt lat="48.44486" lon="2.03746">
        <ele>125.40000152588</ele>
        <time>2020-08-04T14:30:26.000Z</time>
      </trkpt>
      <trkpt lat="48.44478" lon="2.03708">
        <ele>127.19999694824</ele>
        <time>2020-08-04T14:30:31.000Z</time>
      </trkpt>
      <trkpt lat="48.44477" lon="2.037">
        <ele>127.40000152588</ele>
        <time>2020-08-04T14:30:32.000Z</time>
      </trkpt>
      <trkpt lat="48.44473" lon="2.03683">
        <ele>128</ele>
        <time>2020-08-04T14:30:34.000Z</time>
      </trkpt>
      <trkpt lat="48.44471" lon="2.03668">
        <ele>128.19999694824</ele>
        <time>2020-08-04T14:30:36.000Z</time>
      </trkpt>
      <trkpt lat="48.44469" lon="2.0366">
        <ele>128.39999389648</ele>
        <time>2020-08-04T14:30:37.000Z</time>
      </trkpt>
      <trkpt lat="48.44463" lon="2.03629">
        <ele>128.39999389648</ele>
        <time>2020-08-04T14:30:41.000Z</time>
      </trkpt>
      <trkpt lat="48.44459" lon="2.03607">
        <ele>128.39999389648</ele>
        <time>2020-08-04T14:30:44.000Z</time>
      </trkpt>
      <trkpt lat="48.44457" lon="2.03593">
        <ele>128.39999389648</ele>
        <time>2020-08-04T14:30:46.000Z</time>
      </trkpt>
      <trkpt lat="48.44453" lon="2.03572">
        <ele>128.39999389648</ele>
        <time>2020-08-04T14:30:49.000Z</time>
      </trkpt>
      <trkpt lat="48.44451" lon="2.03564">
        <ele>128.39999389648</ele>
        <time>2020-08-04T14:30:50.000Z</time>
      </trkpt>
      <trkpt lat="48.44442" lon="2.03516">
        <ele>127.59999847412</ele>
        <time>2020-08-04T14:30:56.000Z</time>
      </trkpt>
      <trkpt lat="48.44438" lon="2.03494">
        <ele>127.40000152588</ele>
        <time>2020-08-04T14:30:59.000Z</time>
      </trkpt>
      <trkpt lat="48.44434" lon="2.0348">
        <ele>127.19999694824</ele>
        <time>2020-08-04T14:31:01.000Z</time>
      </trkpt>
      <trkpt lat="48.44432" lon="2.03472">
        <ele>127</ele>
        <time>2020-08-04T14:31:02.000Z</time>
      </trkpt>
      <trkpt lat="48.44423" lon="2.03443">
        <ele>126.80000305176</ele>
        <time>2020-08-04T14:31:06.000Z</time>
      </trkpt>
      <trkpt lat="48.44408" lon="2.034">
        <ele>126.59999847412</ele>
        <time>2020-08-04T14:31:12.000Z</time>
      </trkpt>
      <trkpt lat="48.44396" lon="2.03361">
        <ele>125.80000305176</ele>
        <time>2020-08-04T14:31:18.000Z</time>
      </trkpt>
      <trkpt lat="48.44391" lon="2.03349">
        <ele>126</ele>
        <time>2020-08-04T14:31:20.000Z</time>
      </trkpt>
      <trkpt lat="48.44388" lon="2.03344">
        <ele>126</ele>
        <time>2020-08-04T14:31:21.000Z</time>
      </trkpt>
      <trkpt lat="48.44377" lon="2.03315">
        <ele>125.80000305176</ele>
        <time>2020-08-04T14:31:25.000Z</time>
      </trkpt>
      <trkpt lat="48.44374" lon="2.03307">
        <ele>125.59999847412</ele>
        <time>2020-08-04T14:31:26.000Z</time>
      </trkpt>
      <trkpt lat="48.44362" lon="2.03273">
        <ele>124.59999847412</ele>
        <time>2020-08-04T14:31:31.000Z</time>
      </trkpt>
      <trkpt lat="48.44344" lon="2.03232">
        <ele>124.19999694824</ele>
        <time>2020-08-04T14:31:37.000Z</time>
      </trkpt>
      <trkpt lat="48.44331" lon="2.03198">
        <ele>124.80000305176</ele>
        <time>2020-08-04T14:31:42.000Z</time>
      </trkpt>
      <trkpt lat="48.44324" lon="2.03178">
        <ele>125</ele>
        <time>2020-08-04T14:31:45.000Z</time>
      </trkpt>
      <trkpt lat="48.44318" lon="2.03165">
        <ele>125.19999694824</ele>
        <time>2020-08-04T14:31:47.000Z</time>
      </trkpt>
      <trkpt lat="48.44302" lon="2.03125">
        <ele>126.40000152588</ele>
        <time>2020-08-04T14:31:53.000Z</time>
      </trkpt>
      <trkpt lat="48.4429" lon="2.03099">
        <ele>127.40000152588</ele>
        <time>2020-08-04T14:31:57.000Z</time>
      </trkpt>
      <trkpt lat="48.44277" lon="2.03065">
        <ele>127.80000305176</ele>
        <time>2020-08-04T14:32:02.000Z</time>
      </trkpt>
      <trkpt lat="48.4426" lon="2.03025">
        <ele>127.19999694824</ele>
        <time>2020-08-04T14:32:08.000Z</time>
      </trkpt>
      <trkpt lat="48.44254" lon="2.03011">
        <ele>127</ele>
        <time>2020-08-04T14:32:10.000Z</time>
      </trkpt>
      <trkpt lat="48.44243" lon="2.02984">
        <ele>127</ele>
        <time>2020-08-04T14:32:14.000Z</time>
      </trkpt>
      <trkpt lat="48.44227" lon="2.02944">
        <ele>128</ele>
        <time>2020-08-04T14:32:20.000Z</time>
      </trkpt>
      <trkpt lat="48.44223" lon="2.0293">
        <ele>128.39999389648</ele>
        <time>2020-08-04T14:32:22.000Z</time>
      </trkpt>
      <trkpt lat="48.44219" lon="2.02916">
        <ele>128.60000610352</ele>
        <time>2020-08-04T14:32:24.000Z</time>
      </trkpt>
      <trkpt lat="48.44203" lon="2.02866">
        <ele>129</ele>
        <time>2020-08-04T14:32:31.000Z</time>
      </trkpt>
      <trkpt lat="48.44193" lon="2.02829">
        <ele>129.19999694824</ele>
        <time>2020-08-04T14:32:36.000Z</time>
      </trkpt>
      <trkpt lat="48.44187" lon="2.02806">
        <ele>128.60000610352</ele>
        <time>2020-08-04T14:32:39.000Z</time>
      </trkpt>
      <trkpt lat="48.44182" lon="2.02783">
        <ele>127.59999847412</ele>
        <time>2020-08-04T14:32:42.000Z</time>
      </trkpt>
      <trkpt lat="48.44171" lon="2.02737">
        <ele>126.59999847412</ele>
        <time>2020-08-04T14:32:48.000Z</time>
      </trkpt>
      <trkpt lat="48.44161" lon="2.0269">
        <ele>127.40000152588</ele>
        <time>2020-08-04T14:32:54.000Z</time>
      </trkpt>
      <trkpt lat="48.44152" lon="2.02642">
        <ele>128.19999694824</ele>
        <time>2020-08-04T14:33:00.000Z</time>
      </trkpt>
      <trkpt lat="48.44144" lon="2.02582">
        <ele>128.60000610352</ele>
        <time>2020-08-04T14:33:08.000Z</time>
      </trkpt>
      <trkpt lat="48.44139" lon="2.02552">
        <ele>128.80000305176</ele>
        <time>2020-08-04T14:33:12.000Z</time>
      </trkpt>
      <trkpt lat="48.44136" lon="2.02538">
        <ele>128.80000305176</ele>
        <time>2020-08-04T14:33:14.000Z</time>
      </trkpt>
      <trkpt lat="48.44134" lon="2.0253">
        <ele>128.80000305176</ele>
        <time>2020-08-04T14:33:15.000Z</time>
      </trkpt>
      <trkpt lat="48.4413" lon="2.02506">
        <ele>130</ele>
        <time>2020-08-04T14:33:19.000Z</time>
      </trkpt>
      <trkpt lat="48.44124" lon="2.02476">
        <ele>131</ele>
        <time>2020-08-04T14:33:24.000Z</time>
      </trkpt>
      <trkpt lat="48.4412" lon="2.02454">
        <ele>131.80000305176</ele>
        <time>2020-08-04T14:33:27.000Z</time>
      </trkpt>
      <trkpt lat="48.44117" lon="2.02439">
        <ele>132.19999694824</ele>
        <time>2020-08-04T14:33:29.000Z</time>
      </trkpt>
      <trkpt lat="48.44116" lon="2.02432">
        <ele>132.19999694824</ele>
        <time>2020-08-04T14:33:30.000Z</time>
      </trkpt>
      <trkpt lat="48.44112" lon="2.0241">
        <ele>133.19999694824</ele>
        <time>2020-08-04T14:33:33.000Z</time>
      </trkpt>
      <trkpt lat="48.44109" lon="2.02395">
        <ele>133</ele>
        <time>2020-08-04T14:33:35.000Z</time>
      </trkpt>
      <trkpt lat="48.44104" lon="2.02374">
        <ele>132.80000305176</ele>
        <time>2020-08-04T14:33:38.000Z</time>
      </trkpt>
      <trkpt lat="48.44103" lon="2.02367">
        <ele>132.80000305176</ele>
        <time>2020-08-04T14:33:39.000Z</time>
      </trkpt>
      <trkpt lat="48.441" lon="2.02345">
        <ele>132.39999389648</ele>
        <time>2020-08-04T14:33:42.000Z</time>
      </trkpt>
      <trkpt lat="48.44098" lon="2.02338">
        <ele>132.39999389648</ele>
        <time>2020-08-04T14:33:43.000Z</time>
      </trkpt>
      <trkpt lat="48.4409" lon="2.02303">
        <ele>131.19999694824</ele>
        <time>2020-08-04T14:33:48.000Z</time>
      </trkpt>
      <trkpt lat="48.44088" lon="2.02289">
        <ele>130.60000610352</ele>
        <time>2020-08-04T14:33:50.000Z</time>
      </trkpt>
      <trkpt lat="48.44078" lon="2.02246">
        <ele>128.80000305176</ele>
        <time>2020-08-04T14:33:56.000Z</time>
      </trkpt>
      <trkpt lat="48.4407" lon="2.02205">
        <ele>127.40000152588</ele>
        <time>2020-08-04T14:34:02.000Z</time>
      </trkpt>
      <trkpt lat="48.44068" lon="2.02198">
        <ele>127.19999694824</ele>
        <time>2020-08-04T14:34:03.000Z</time>
      </trkpt>
      <trkpt lat="48.44057" lon="2.02155">
        <ele>126.59999847412</ele>
        <time>2020-08-04T14:34:09.000Z</time>
      </trkpt>
      <trkpt lat="48.44056" lon="2.02148">
        <ele>126.80000305176</ele>
        <time>2020-08-04T14:34:10.000Z</time>
      </trkpt>
      <trkpt lat="48.44047" lon="2.02112">
        <ele>127.59999847412</ele>
        <time>2020-08-04T14:34:15.000Z</time>
      </trkpt>
      <trkpt lat="48.44039" lon="2.02084">
        <ele>128.80000305176</ele>
        <time>2020-08-04T14:34:19.000Z</time>
      </trkpt>
      <trkpt lat="48.4403" lon="2.02049">
        <ele>129.80000305176</ele>
        <time>2020-08-04T14:34:24.000Z</time>
      </trkpt>
      <trkpt lat="48.4402" lon="2.02006">
        <ele>130.60000610352</ele>
        <time>2020-08-04T14:34:30.000Z</time>
      </trkpt>
      <trkpt lat="48.44008" lon="2.01963">
        <ele>131.19999694824</ele>
        <time>2020-08-04T14:34:36.000Z</time>
      </trkpt>
      <trkpt lat="48.43999" lon="2.01926">
        <ele>131.19999694824</ele>
        <time>2020-08-04T14:34:41.000Z</time>
      </trkpt>
      <trkpt lat="48.43987" lon="2.01883">
        <ele>130.80000305176</ele>
        <time>2020-08-04T14:34:47.000Z</time>
      </trkpt>
      <trkpt lat="48.43975" lon="2.0184">
        <ele>131.39999389648</ele>
        <time>2020-08-04T14:34:53.000Z</time>
      </trkpt>
      <trkpt lat="48.43963" lon="2.0179">
        <ele>131.60000610352</ele>
        <time>2020-08-04T14:35:00.000Z</time>
      </trkpt>
      <trkpt lat="48.43954" lon="2.01754">
        <ele>132.19999694824</ele>
        <time>2020-08-04T14:35:05.000Z</time>
      </trkpt>
      <trkpt lat="48.43945" lon="2.01719">
        <ele>132.39999389648</ele>
        <time>2020-08-04T14:35:10.000Z</time>
      </trkpt>
      <trkpt lat="48.43943" lon="2.01712">
        <ele>132.39999389648</ele>
        <time>2020-08-04T14:35:11.000Z</time>
      </trkpt>
      <trkpt lat="48.43937" lon="2.01691">
        <ele>132.19999694824</ele>
        <time>2020-08-04T14:35:14.000Z</time>
      </trkpt>
      <trkpt lat="48.43936" lon="2.01685">
        <ele>132.19999694824</ele>
        <time>2020-08-04T14:35:15.000Z</time>
      </trkpt>
      <trkpt lat="48.4393" lon="2.01663">
        <ele>132</ele>
        <time>2020-08-04T14:35:18.000Z</time>
      </trkpt>
      <trkpt lat="48.43925" lon="2.01642">
        <ele>131.80000305176</ele>
        <time>2020-08-04T14:35:21.000Z</time>
      </trkpt>
      <trkpt lat="48.43924" lon="2.01635">
        <ele>131.80000305176</ele>
        <time>2020-08-04T14:35:22.000Z</time>
      </trkpt>
      <trkpt lat="48.43912" lon="2.01591">
        <ele>131.39999389648</ele>
        <time>2020-08-04T14:35:28.000Z</time>
      </trkpt>
      <trkpt lat="48.43907" lon="2.01569">
        <ele>131</ele>
        <time>2020-08-04T14:35:31.000Z</time>
      </trkpt>
      <trkpt lat="48.43903" lon="2.01554">
        <ele>130</ele>
        <time>2020-08-04T14:35:33.000Z</time>
      </trkpt>
      <trkpt lat="48.43892" lon="2.0151">
        <ele>129.39999389648</ele>
        <time>2020-08-04T14:35:39.000Z</time>
      </trkpt>
      <trkpt lat="48.43885" lon="2.01479">
        <ele>129.19999694824</ele>
        <time>2020-08-04T14:35:44.000Z</time>
      </trkpt>
      <trkpt lat="48.43875" lon="2.01439">
        <ele>128.60000610352</ele>
        <time>2020-08-04T14:35:50.000Z</time>
      </trkpt>
      <trkpt lat="48.43866" lon="2.0141">
        <ele>128.60000610352</ele>
        <time>2020-08-04T14:35:55.000Z</time>
      </trkpt>
      <trkpt lat="48.43855" lon="2.01379">
        <ele>128.60000610352</ele>
        <time>2020-08-04T14:36:01.000Z</time>
      </trkpt>
      <trkpt lat="48.43859" lon="2.01362">
        <ele>129.60000610352</ele>
        <time>2020-08-04T14:36:05.000Z</time>
      </trkpt>
      <trkpt lat="48.43862" lon="2.01337">
        <ele>131</ele>
        <time>2020-08-04T14:36:10.000Z</time>
      </trkpt>
      <trkpt lat="48.43863" lon="2.01292">
        <ele>131.80000305176</ele>
        <time>2020-08-04T14:36:18.000Z</time>
      </trkpt>
      <trkpt lat="48.43866" lon="2.01257">
        <ele>132.39999389648</ele>
        <time>2020-08-04T14:36:26.000Z</time>
      </trkpt>
      <trkpt lat="48.43868" lon="2.01231">
        <ele>133.19999694824</ele>
        <time>2020-08-04T14:36:32.000Z</time>
      </trkpt>
      <trkpt lat="48.43871" lon="2.01201">
        <ele>134.39999389648</ele>
        <time>2020-08-04T14:36:39.000Z</time>
      </trkpt>
      <trkpt lat="48.43878" lon="2.01169">
        <ele>135.19999694824</ele>
        <time>2020-08-04T14:36:46.000Z</time>
      </trkpt>
      <trkpt lat="48.43886" lon="2.01134">
        <ele>135.80000305176</ele>
        <time>2020-08-04T14:36:54.000Z</time>
      </trkpt>
      <trkpt lat="48.43897" lon="2.01097">
        <ele>136.60000610352</ele>
        <time>2020-08-04T14:37:03.000Z</time>
      </trkpt>
      <trkpt lat="48.43905" lon="2.01068">
        <ele>137.19999694824</ele>
        <time>2020-08-04T14:37:10.000Z</time>
      </trkpt>
      <trkpt lat="48.43914" lon="2.01038">
        <ele>138</ele>
        <time>2020-08-04T14:37:17.000Z</time>
      </trkpt>
      <trkpt lat="48.43921" lon="2.01019">
        <ele>138.39999389648</ele>
        <time>2020-08-04T14:37:22.000Z</time>
      </trkpt>
      <trkpt lat="48.4393" lon="2.00998">
        <ele>138.80000305176</ele>
        <time>2020-08-04T14:37:27.000Z</time>
      </trkpt>
      <trkpt lat="48.43946" lon="2.00964">
        <ele>139.39999389648</ele>
        <time>2020-08-04T14:37:36.000Z</time>
      </trkpt>
      <trkpt lat="48.43961" lon="2.00933">
        <ele>139.60000610352</ele>
        <time>2020-08-04T14:37:43.000Z</time>
      </trkpt>
      <trkpt lat="48.43986" lon="2.00881">
        <ele>140.60000610352</ele>
        <time>2020-08-04T14:37:53.000Z</time>
      </trkpt>
      <trkpt lat="48.43995" lon="2.00865">
        <ele>141</ele>
        <time>2020-08-04T14:37:56.000Z</time>
      </trkpt>
      <trkpt lat="48.44002" lon="2.00857">
        <ele>141.19999694824</ele>
        <time>2020-08-04T14:37:58.000Z</time>
      </trkpt>
      <trkpt lat="48.44006" lon="2.00853">
        <ele>141.39999389648</ele>
        <time>2020-08-04T14:37:59.000Z</time>
      </trkpt>
      <trkpt lat="48.4401" lon="2.00851">
        <ele>141.60000610352</ele>
        <time>2020-08-04T14:38:00.000Z</time>
      </trkpt>
      <trkpt lat="48.44028" lon="2.00845">
        <ele>142</ele>
        <time>2020-08-04T14:38:04.000Z</time>
      </trkpt>
      <trkpt lat="48.4407" lon="2.00827">
        <ele>142</ele>
        <time>2020-08-04T14:38:14.000Z</time>
      </trkpt>
      <trkpt lat="48.44112" lon="2.00809">
        <ele>142.39999389648</ele>
        <time>2020-08-04T14:38:24.000Z</time>
      </trkpt>
      <trkpt lat="48.44151" lon="2.00795">
        <ele>143</ele>
        <time>2020-08-04T14:38:33.000Z</time>
      </trkpt>
      <trkpt lat="48.44175" lon="2.00785">
        <ele>143.39999389648</ele>
        <time>2020-08-04T14:38:40.000Z</time>
      </trkpt>
      <trkpt lat="48.44205" lon="2.00773">
        <ele>144</ele>
        <time>2020-08-04T14:38:47.000Z</time>
      </trkpt>
      <trkpt lat="48.44227" lon="2.00762">
        <ele>144</ele>
        <time>2020-08-04T14:38:53.000Z</time>
      </trkpt>
      <trkpt lat="48.4425" lon="2.00755">
        <ele>144</ele>
        <time>2020-08-04T14:39:00.000Z</time>
      </trkpt>
      <trkpt lat="48.44257" lon="2.00752">
        <ele>144</ele>
        <time>2020-08-04T14:39:04.000Z</time>
      </trkpt>
      <trkpt lat="48.44258" lon="2.00751">
        <ele>144</ele>
        <time>2020-08-04T14:39:05.000Z</time>
      </trkpt>
      <trkpt lat="48.44259" lon="2.00749">
        <ele>144</ele>
        <time>2020-08-04T14:39:06.000Z</time>
      </trkpt>
      <trkpt lat="48.44256" lon="2.00744">
        <ele>144</ele>
        <time>2020-08-04T14:39:09.000Z</time>
      </trkpt>
      <trkpt lat="48.44254" lon="2.00747">
        <ele>144</ele>
        <time>2020-08-04T14:39:11.000Z</time>
      </trkpt>
      <trkpt lat="48.44253" lon="2.0075">
        <ele>144</ele>
        <time>2020-08-04T14:39:12.000Z</time>
      </trkpt>
      <trkpt lat="48.44253" lon="2.00753">
        <ele>144</ele>
        <time>2020-08-04T14:39:13.000Z</time>
      </trkpt>
      <trkpt lat="48.44253" lon="2.00765">
        <ele>144</ele>
        <time>2020-08-04T14:39:19.000Z</time>
      </trkpt>
      <trkpt lat="48.44248" lon="2.00779">
        <ele>144</ele>
        <time>2020-08-04T14:39:24.000Z</time>
      </trkpt>
      <trkpt lat="48.44242" lon="2.00788">
        <ele>144</ele>
        <time>2020-08-04T14:39:29.000Z</time>
      </trkpt>
      <trkpt lat="48.44242" lon="2.0079">
        <ele>144</ele>
        <time>2020-08-04T14:39:30.000Z</time>
      </trkpt>
      <trkpt lat="48.44245" lon="2.00785">
        <ele>144</ele>
        <time>2020-08-04T14:39:36.000Z</time>
      </trkpt>
      <trkpt lat="48.44246" lon="2.00782">
        <ele>144</ele>
        <time>2020-08-04T14:39:37.000Z</time>
      </trkpt>
      <trkpt lat="48.44256" lon="2.00755">
        <ele>144</ele>
        <time>2020-08-04T14:39:44.000Z</time>
      </trkpt>
      <trkpt lat="48.44263" lon="2.00746">
        <ele>144</ele>
        <time>2020-08-04T14:39:46.000Z</time>
      </trkpt>
      <trkpt lat="48.44275" lon="2.00736">
        <ele>144</ele>
        <time>2020-08-04T14:39:49.000Z</time>
      </trkpt>
      <trkpt lat="48.44292" lon="2.00726">
        <ele>144.19999694824</ele>
        <time>2020-08-04T14:39:53.000Z</time>
      </trkpt>
      <trkpt lat="48.44301" lon="2.00722">
        <ele>144.19999694824</ele>
        <time>2020-08-04T14:39:55.000Z</time>
      </trkpt>
      <trkpt lat="48.44305" lon="2.0072">
        <ele>144.19999694824</ele>
        <time>2020-08-04T14:39:56.000Z</time>
      </trkpt>
      <trkpt lat="48.44328" lon="2.00708">
        <ele>144</ele>
        <time>2020-08-04T14:40:01.000Z</time>
      </trkpt>
      <trkpt lat="48.44337" lon="2.00699">
        <ele>143.80000305176</ele>
        <time>2020-08-04T14:40:03.000Z</time>
      </trkpt>
      <trkpt lat="48.44343" lon="2.00687">
        <ele>143.39999389648</ele>
        <time>2020-08-04T14:40:05.000Z</time>
      </trkpt>
      <trkpt lat="48.44366" lon="2.00638">
        <ele>142.60000610352</ele>
        <time>2020-08-04T14:40:12.000Z</time>
      </trkpt>
      <trkpt lat="48.4437" lon="2.00632">
        <ele>142.39999389648</ele>
        <time>2020-08-04T14:40:13.000Z</time>
      </trkpt>
      <trkpt lat="48.4439" lon="2.0061">
        <ele>142</ele>
        <time>2020-08-04T14:40:17.000Z</time>
      </trkpt>
      <trkpt lat="48.44406" lon="2.00599">
        <ele>141.60000610352</ele>
        <time>2020-08-04T14:40:20.000Z</time>
      </trkpt>
      <trkpt lat="48.44411" lon="2.00599">
        <ele>141.60000610352</ele>
        <time>2020-08-04T14:40:21.000Z</time>
      </trkpt>
      <trkpt lat="48.44436" lon="2.00606">
        <ele>141</ele>
        <time>2020-08-04T14:40:26.000Z</time>
      </trkpt>
      <trkpt lat="48.44456" lon="2.00611">
        <ele>141.60000610352</ele>
        <time>2020-08-04T14:40:31.000Z</time>
      </trkpt>
      <trkpt lat="48.44458" lon="2.00614">
        <ele>141.60000610352</ele>
        <time>2020-08-04T14:40:32.000Z</time>
      </trkpt>
      <trkpt lat="48.4446" lon="2.00622">
        <ele>141.60000610352</ele>
        <time>2020-08-04T14:40:34.000Z</time>
      </trkpt>
      <trkpt lat="48.4446" lon="2.00625">
        <ele>141.60000610352</ele>
        <time>2020-08-04T14:40:35.000Z</time>
      </trkpt>
      <trkpt lat="48.44462" lon="2.00626">
        <ele>141.80000305176</ele>
        <time>2020-08-04T14:40:37.000Z</time>
      </trkpt>
      <trkpt lat="48.44462" lon="2.00621">
        <ele>141.80000305176</ele>
        <time>2020-08-04T14:40:41.000Z</time>
      </trkpt>
      <trkpt lat="48.44458" lon="2.0061">
        <ele>141.60000610352</ele>
        <time>2020-08-04T14:40:52.000Z</time>
      </trkpt>
      <trkpt lat="48.44458" lon="2.00605">
        <ele>141.60000610352</ele>
        <time>2020-08-04T14:40:53.000Z</time>
      </trkpt>
      <trkpt lat="48.44457" lon="2.00593">
        <ele>141.39999389648</ele>
        <time>2020-08-04T14:40:55.000Z</time>
      </trkpt>
      <trkpt lat="48.44454" lon="2.00572">
        <ele>141</ele>
        <time>2020-08-04T14:40:58.000Z</time>
      </trkpt>
      <trkpt lat="48.44452" lon="2.00549">
        <ele>141.39999389648</ele>
        <time>2020-08-04T14:41:01.000Z</time>
      </trkpt>
      <trkpt lat="48.44453" lon="2.00525">
        <ele>141.60000610352</ele>
        <time>2020-08-04T14:41:04.000Z</time>
      </trkpt>
      <trkpt lat="48.44464" lon="2.00481">
        <ele>141.80000305176</ele>
        <time>2020-08-04T14:41:10.000Z</time>
      </trkpt>
      <trkpt lat="48.44483" lon="2.00437">
        <ele>142</ele>
        <time>2020-08-04T14:41:17.000Z</time>
      </trkpt>
      <trkpt lat="48.44503" lon="2.00405">
        <ele>142.19999694824</ele>
        <time>2020-08-04T14:41:23.000Z</time>
      </trkpt>
      <trkpt lat="48.44539" lon="2.00369">
        <ele>142.19999694824</ele>
        <time>2020-08-04T14:41:32.000Z</time>
      </trkpt>
      <trkpt lat="48.44557" lon="2.00355">
        <ele>142.39999389648</ele>
        <time>2020-08-04T14:41:37.000Z</time>
      </trkpt>
      <trkpt lat="48.44572" lon="2.00352">
        <ele>142.39999389648</ele>
        <time>2020-08-04T14:41:41.000Z</time>
      </trkpt>
      <trkpt lat="48.44576" lon="2.00352">
        <ele>142.39999389648</ele>
        <time>2020-08-04T14:41:42.000Z</time>
      </trkpt>
      <trkpt lat="48.44593" lon="2.00356">
        <ele>142.39999389648</ele>
        <time>2020-08-04T14:41:46.000Z</time>
      </trkpt>
      <trkpt lat="48.44629" lon="2.00364">
        <ele>142.19999694824</ele>
        <time>2020-08-04T14:41:54.000Z</time>
      </trkpt>
      <trkpt lat="48.44634" lon="2.00365">
        <ele>142</ele>
        <time>2020-08-04T14:41:55.000Z</time>
      </trkpt>
      <trkpt lat="48.44672" lon="2.00378">
        <ele>142</ele>
        <time>2020-08-04T14:42:03.000Z</time>
      </trkpt>
      <trkpt lat="48.4469" lon="2.00386">
        <ele>142</ele>
        <time>2020-08-04T14:42:07.000Z</time>
      </trkpt>
      <trkpt lat="48.447" lon="2.00386">
        <ele>141.80000305176</ele>
        <time>2020-08-04T14:42:09.000Z</time>
      </trkpt>
      <trkpt lat="48.44704" lon="2.00384">
        <ele>141.80000305176</ele>
        <time>2020-08-04T14:42:10.000Z</time>
      </trkpt>
      <trkpt lat="48.44709" lon="2.00382">
        <ele>141.60000610352</ele>
        <time>2020-08-04T14:42:11.000Z</time>
      </trkpt>
      <trkpt lat="48.44717" lon="2.00374">
        <ele>141.60000610352</ele>
        <time>2020-08-04T14:42:13.000Z</time>
      </trkpt>
      <trkpt lat="48.44721" lon="2.0037">
        <ele>141.60000610352</ele>
        <time>2020-08-04T14:42:14.000Z</time>
      </trkpt>
      <trkpt lat="48.44757" lon="2.00331">
        <ele>142</ele>
        <time>2020-08-04T14:42:23.000Z</time>
      </trkpt>
      <trkpt lat="48.4478" lon="2.00315">
        <ele>142.39999389648</ele>
        <time>2020-08-04T14:42:28.000Z</time>
      </trkpt>
      <trkpt lat="48.44789" lon="2.00312">
        <ele>142.60000610352</ele>
        <time>2020-08-04T14:42:30.000Z</time>
      </trkpt>
      <trkpt lat="48.4483" lon="2.00297">
        <ele>143.39999389648</ele>
        <time>2020-08-04T14:42:38.000Z</time>
      </trkpt>
      <trkpt lat="48.4486" lon="2.00285">
        <ele>143.39999389648</ele>
        <time>2020-08-04T14:42:44.000Z</time>
      </trkpt>
      <trkpt lat="48.44866" lon="2.00284">
        <ele>143.19999694824</ele>
        <time>2020-08-04T14:42:45.000Z</time>
      </trkpt>
      <trkpt lat="48.44906" lon="2.00269">
        <ele>143</ele>
        <time>2020-08-04T14:42:53.000Z</time>
      </trkpt>
      <trkpt lat="48.44911" lon="2.00267">
        <ele>143</ele>
        <time>2020-08-04T14:42:54.000Z</time>
      </trkpt>
      <trkpt lat="48.44924" lon="2.00266">
        <ele>142.80000305176</ele>
        <time>2020-08-04T14:42:57.000Z</time>
      </trkpt>
      <trkpt lat="48.44947" lon="2.00263">
        <ele>143.19999694824</ele>
        <time>2020-08-04T14:43:03.000Z</time>
      </trkpt>
      <trkpt lat="48.4498" lon="2.00263">
        <ele>143.60000610352</ele>
        <time>2020-08-04T14:43:10.000Z</time>
      </trkpt>
      <trkpt lat="48.45015" lon="2.0027">
        <ele>144</ele>
        <time>2020-08-04T14:43:17.000Z</time>
      </trkpt>
      <trkpt lat="48.4502" lon="2.00271">
        <ele>144</ele>
        <time>2020-08-04T14:43:18.000Z</time>
      </trkpt>
      <trkpt lat="48.4505" lon="2.0028">
        <ele>144</ele>
        <time>2020-08-04T14:43:24.000Z</time>
      </trkpt>
      <trkpt lat="48.45087" lon="2.00286">
        <ele>144</ele>
        <time>2020-08-04T14:43:31.000Z</time>
      </trkpt>
      <trkpt lat="48.45103" lon="2.00288">
        <ele>144</ele>
        <time>2020-08-04T14:43:34.000Z</time>
      </trkpt>
      <trkpt lat="48.45113" lon="2.00295">
        <ele>144</ele>
        <time>2020-08-04T14:43:36.000Z</time>
      </trkpt>
      <trkpt lat="48.45122" lon="2.00305">
        <ele>144</ele>
        <time>2020-08-04T14:43:38.000Z</time>
      </trkpt>
      <trkpt lat="48.45133" lon="2.00312">
        <ele>144</ele>
        <time>2020-08-04T14:43:40.000Z</time>
      </trkpt>
      <trkpt lat="48.45138" lon="2.00313">
        <ele>144</ele>
        <time>2020-08-04T14:43:41.000Z</time>
      </trkpt>
      <trkpt lat="48.45143" lon="2.00312">
        <ele>144</ele>
        <time>2020-08-04T14:43:42.000Z</time>
      </trkpt>
      <trkpt lat="48.45153" lon="2.00307">
        <ele>144</ele>
        <time>2020-08-04T14:43:44.000Z</time>
      </trkpt>
      <trkpt lat="48.45158" lon="2.00304">
        <ele>144</ele>
        <time>2020-08-04T14:43:45.000Z</time>
      </trkpt>
      <trkpt lat="48.45178" lon="2.00286">
        <ele>144</ele>
        <time>2020-08-04T14:43:49.000Z</time>
      </trkpt>
      <trkpt lat="48.45183" lon="2.00283">
        <ele>144</ele>
        <time>2020-08-04T14:43:50.000Z</time>
      </trkpt>
      <trkpt lat="48.45216" lon="2.00274">
        <ele>144.80000305176</ele>
        <time>2020-08-04T14:43:56.000Z</time>
      </trkpt>
      <trkpt lat="48.4526" lon="2.00277">
        <ele>145.80000305176</ele>
        <time>2020-08-04T14:44:04.000Z</time>
      </trkpt>
      <trkpt lat="48.45298" lon="2.00277">
        <ele>146.39999389648</ele>
        <time>2020-08-04T14:44:11.000Z</time>
      </trkpt>
      <trkpt lat="48.45342" lon="2.00277">
        <ele>146</ele>
        <time>2020-08-04T14:44:19.000Z</time>
      </trkpt>
      <trkpt lat="48.45387" lon="2.00277">
        <ele>145.39999389648</ele>
        <time>2020-08-04T14:44:27.000Z</time>
      </trkpt>
      <trkpt lat="48.45441" lon="2.00276">
        <ele>146.19999694824</ele>
        <time>2020-08-04T14:44:37.000Z</time>
      </trkpt>
      <trkpt lat="48.45446" lon="2.00276">
        <ele>146.39999389648</ele>
        <time>2020-08-04T14:44:38.000Z</time>
      </trkpt>
      <trkpt lat="48.45488" lon="2.00274">
        <ele>147.39999389648</ele>
        <time>2020-08-04T14:44:46.000Z</time>
      </trkpt>
      <trkpt lat="48.45542" lon="2.00268">
        <ele>148</ele>
        <time>2020-08-04T14:44:56.000Z</time>
      </trkpt>
      <trkpt lat="48.45572" lon="2.00266">
        <ele>147.60000610352</ele>
        <time>2020-08-04T14:45:02.000Z</time>
      </trkpt>
      <trkpt lat="48.45576" lon="2.0027">
        <ele>147.60000610352</ele>
        <time>2020-08-04T14:45:03.000Z</time>
      </trkpt>
      <trkpt lat="48.4558" lon="2.00275">
        <ele>147.60000610352</ele>
        <time>2020-08-04T14:45:04.000Z</time>
      </trkpt>
      <trkpt lat="48.45587" lon="2.00295">
        <ele>147.80000305176</ele>
        <time>2020-08-04T14:45:07.000Z</time>
      </trkpt>
      <trkpt lat="48.45606" lon="2.00351">
        <ele>147.60000610352</ele>
        <time>2020-08-04T14:45:15.000Z</time>
      </trkpt>
      <trkpt lat="48.45626" lon="2.00407">
        <ele>147</ele>
        <time>2020-08-04T14:45:23.000Z</time>
      </trkpt>
      <trkpt lat="48.45651" lon="2.00476">
        <ele>146</ele>
        <time>2020-08-04T14:45:33.000Z</time>
      </trkpt>
      <trkpt lat="48.45679" lon="2.00554">
        <ele>145.19999694824</ele>
        <time>2020-08-04T14:45:44.000Z</time>
      </trkpt>
      <trkpt lat="48.45699" lon="2.0061">
        <ele>145.60000610352</ele>
        <time>2020-08-04T14:45:52.000Z</time>
      </trkpt>
      <trkpt lat="48.45721" lon="2.00671">
        <ele>146.39999389648</ele>
        <time>2020-08-04T14:46:01.000Z</time>
      </trkpt>
      <trkpt lat="48.45745" lon="2.00738">
        <ele>146.80000305176</ele>
        <time>2020-08-04T14:46:11.000Z</time>
      </trkpt>
      <trkpt lat="48.45765" lon="2.00792">
        <ele>145.80000305176</ele>
        <time>2020-08-04T14:46:19.000Z</time>
      </trkpt>
      <trkpt lat="48.45783" lon="2.00844">
        <ele>145</ele>
        <time>2020-08-04T14:46:27.000Z</time>
      </trkpt>
      <trkpt lat="48.45805" lon="2.00902">
        <ele>145</ele>
        <time>2020-08-04T14:46:36.000Z</time>
      </trkpt>
      <trkpt lat="48.45821" lon="2.00947">
        <ele>145</ele>
        <time>2020-08-04T14:46:43.000Z</time>
      </trkpt>
      <trkpt lat="48.45829" lon="2.00974">
        <ele>145</ele>
        <time>2020-08-04T14:46:48.000Z</time>
      </trkpt>
      <trkpt lat="48.45824" lon="2.00982">
        <ele>145</ele>
        <time>2020-08-04T14:46:51.000Z</time>
      </trkpt>
      <trkpt lat="48.4581" lon="2.00994">
        <ele>145</ele>
        <time>2020-08-04T14:46:56.000Z</time>
      </trkpt>
      <trkpt lat="48.45781" lon="2.01015">
        <ele>145</ele>
        <time>2020-08-04T14:47:03.000Z</time>
      </trkpt>
      <trkpt lat="48.45738" lon="2.01049">
        <ele>145</ele>
        <time>2020-08-04T14:47:13.000Z</time>
      </trkpt>
      <trkpt lat="48.45692" lon="2.01084">
        <ele>144.19999694824</ele>
        <time>2020-08-04T14:47:23.000Z</time>
      </trkpt>
      <trkpt lat="48.4567" lon="2.01101">
        <ele>144</ele>
        <time>2020-08-04T14:47:28.000Z</time>
      </trkpt>
      <trkpt lat="48.45643" lon="2.0112">
        <ele>144</ele>
        <time>2020-08-04T14:47:34.000Z</time>
      </trkpt>
      <trkpt lat="48.45594" lon="2.01158">
        <ele>144</ele>
        <time>2020-08-04T14:47:45.000Z</time>
      </trkpt>
      <trkpt lat="48.4559" lon="2.01161">
        <ele>144</ele>
        <time>2020-08-04T14:47:46.000Z</time>
      </trkpt>
      <trkpt lat="48.45556" lon="2.01187">
        <ele>144.39999389648</ele>
        <time>2020-08-04T14:47:54.000Z</time>
      </trkpt>
      <trkpt lat="48.4552" lon="2.01214">
        <ele>144.60000610352</ele>
        <time>2020-08-04T14:48:02.000Z</time>
      </trkpt>
      <trkpt lat="48.45511" lon="2.01223">
        <ele>144.80000305176</ele>
        <time>2020-08-04T14:48:05.000Z</time>
      </trkpt>
      <trkpt lat="48.45511" lon="2.01227">
        <ele>144.80000305176</ele>
        <time>2020-08-04T14:48:06.000Z</time>
      </trkpt>
      <trkpt lat="48.45512" lon="2.01231">
        <ele>144.80000305176</ele>
        <time>2020-08-04T14:48:07.000Z</time>
      </trkpt>
      <trkpt lat="48.45519" lon="2.01247">
        <ele>145</ele>
        <time>2020-08-04T14:48:10.000Z</time>
      </trkpt>
      <trkpt lat="48.45545" lon="2.01311">
        <ele>144.60000610352</ele>
        <time>2020-08-04T14:48:20.000Z</time>
      </trkpt>
      <trkpt lat="48.45571" lon="2.01374">
        <ele>145.19999694824</ele>
        <time>2020-08-04T14:48:30.000Z</time>
      </trkpt>
      <trkpt lat="48.45595" lon="2.01436">
        <ele>146</ele>
        <time>2020-08-04T14:48:40.000Z</time>
      </trkpt>
      <trkpt lat="48.45604" lon="2.01456">
        <ele>146</ele>
        <time>2020-08-04T14:48:45.000Z</time>
      </trkpt>
      <trkpt lat="48.45603" lon="2.0147">
        <ele>146</ele>
        <time>2020-08-04T14:48:49.000Z</time>
      </trkpt>
      <trkpt lat="48.4559" lon="2.01475">
        <ele>145.80000305176</ele>
        <time>2020-08-04T14:48:53.000Z</time>
      </trkpt>
      <trkpt lat="48.45578" lon="2.01477">
        <ele>145.80000305176</ele>
        <time>2020-08-04T14:48:56.000Z</time>
      </trkpt>
      <trkpt lat="48.45569" lon="2.0148">
        <ele>145.60000610352</ele>
        <time>2020-08-04T14:48:58.000Z</time>
      </trkpt>
      <trkpt lat="48.45521" lon="2.01496">
        <ele>145.19999694824</ele>
        <time>2020-08-04T14:49:09.000Z</time>
      </trkpt>
      <trkpt lat="48.45476" lon="2.01512">
        <ele>145.19999694824</ele>
        <time>2020-08-04T14:49:19.000Z</time>
      </trkpt>
      <trkpt lat="48.45453" lon="2.01522">
        <ele>145.19999694824</ele>
        <time>2020-08-04T14:49:25.000Z</time>
      </trkpt>
      <trkpt lat="48.45402" lon="2.01542">
        <ele>145</ele>
        <time>2020-08-04T14:49:36.000Z</time>
      </trkpt>
      <trkpt lat="48.45371" lon="2.01554">
        <ele>144</ele>
        <time>2020-08-04T14:49:43.000Z</time>
      </trkpt>
      <trkpt lat="48.45356" lon="2.01561">
        <ele>143.39999389648</ele>
        <time>2020-08-04T14:49:47.000Z</time>
      </trkpt>
      <trkpt lat="48.45354" lon="2.01565">
        <ele>143.39999389648</ele>
        <time>2020-08-04T14:49:48.000Z</time>
      </trkpt>
      <trkpt lat="48.45353" lon="2.0157">
        <ele>143.19999694824</ele>
        <time>2020-08-04T14:49:49.000Z</time>
      </trkpt>
      <trkpt lat="48.45355" lon="2.01583">
        <ele>143.19999694824</ele>
        <time>2020-08-04T14:49:51.000Z</time>
      </trkpt>
      <trkpt lat="48.45363" lon="2.01631">
        <ele>143.80000305176</ele>
        <time>2020-08-04T14:49:58.000Z</time>
      </trkpt>
      <trkpt lat="48.45374" lon="2.01697">
        <ele>144</ele>
        <time>2020-08-04T14:50:07.000Z</time>
      </trkpt>
      <trkpt lat="48.45387" lon="2.01778">
        <ele>144</ele>
        <time>2020-08-04T14:50:18.000Z</time>
      </trkpt>
      <trkpt lat="48.45397" lon="2.01843">
        <ele>144</ele>
        <time>2020-08-04T14:50:27.000Z</time>
      </trkpt>
      <trkpt lat="48.4541" lon="2.0192">
        <ele>145.39999389648</ele>
        <time>2020-08-04T14:50:38.000Z</time>
      </trkpt>
      <trkpt lat="48.4542" lon="2.01988">
        <ele>145.80000305176</ele>
        <time>2020-08-04T14:50:48.000Z</time>
      </trkpt>
      <trkpt lat="48.45433" lon="2.02061">
        <ele>146</ele>
        <time>2020-08-04T14:50:58.000Z</time>
      </trkpt>
      <trkpt lat="48.45446" lon="2.02142">
        <ele>145.19999694824</ele>
        <time>2020-08-04T14:51:09.000Z</time>
      </trkpt>
      <trkpt lat="48.45448" lon="2.02157">
        <ele>145</ele>
        <time>2020-08-04T14:51:11.000Z</time>
      </trkpt>
      <trkpt lat="48.45461" lon="2.02239">
        <ele>145.39999389648</ele>
        <time>2020-08-04T14:51:22.000Z</time>
      </trkpt>
      <trkpt lat="48.45474" lon="2.02323">
        <ele>144.39999389648</ele>
        <time>2020-08-04T14:51:33.000Z</time>
      </trkpt>
      <trkpt lat="48.45482" lon="2.02369">
        <ele>145</ele>
        <time>2020-08-04T14:51:40.000Z</time>
      </trkpt>
      <trkpt lat="48.4549" lon="2.02413">
        <ele>144.60000610352</ele>
        <time>2020-08-04T14:51:46.000Z</time>
      </trkpt>
      <trkpt lat="48.45498" lon="2.02467">
        <ele>144.80000305176</ele>
        <time>2020-08-04T14:51:53.000Z</time>
      </trkpt>
      <trkpt lat="48.45505" lon="2.02517">
        <ele>144.80000305176</ele>
        <time>2020-08-04T14:52:00.000Z</time>
      </trkpt>
      <trkpt lat="48.45507" lon="2.02544">
        <ele>144.39999389648</ele>
        <time>2020-08-04T14:52:06.000Z</time>
      </trkpt>
      <trkpt lat="48.45504" lon="2.0256">
        <ele>144.19999694824</ele>
        <time>2020-08-04T14:52:12.000Z</time>
      </trkpt>
      <trkpt lat="48.45492" lon="2.02582">
        <ele>144.39999389648</ele>
        <time>2020-08-04T14:52:17.000Z</time>
      </trkpt>
      <trkpt lat="48.45468" lon="2.02626">
        <ele>145</ele>
        <time>2020-08-04T14:52:25.000Z</time>
      </trkpt>
      <trkpt lat="48.45435" lon="2.02683">
        <ele>145</ele>
        <time>2020-08-04T14:52:34.000Z</time>
      </trkpt>
      <trkpt lat="48.45404" lon="2.02746">
        <ele>145.39999389648</ele>
        <time>2020-08-04T14:52:44.000Z</time>
      </trkpt>
      <trkpt lat="48.45386" lon="2.02781">
        <ele>146</ele>
        <time>2020-08-04T14:52:50.000Z</time>
      </trkpt>
      <trkpt lat="48.4535" lon="2.02849">
        <ele>147</ele>
        <time>2020-08-04T14:53:01.000Z</time>
      </trkpt>
      <trkpt lat="48.45341" lon="2.02869">
        <ele>146.80000305176</ele>
        <time>2020-08-04T14:53:04.000Z</time>
      </trkpt>
      <trkpt lat="48.45332" lon="2.02889">
        <ele>146.60000610352</ele>
        <time>2020-08-04T14:53:07.000Z</time>
      </trkpt>
      <trkpt lat="48.45301" lon="2.02945">
        <ele>145.39999389648</ele>
        <time>2020-08-04T14:53:16.000Z</time>
      </trkpt>
      <trkpt lat="48.45269" lon="2.02996">
        <ele>146</ele>
        <time>2020-08-04T14:53:25.000Z</time>
      </trkpt>
      <trkpt lat="48.45245" lon="2.03035">
        <ele>146.60000610352</ele>
        <time>2020-08-04T14:53:32.000Z</time>
      </trkpt>
      <trkpt lat="48.4523" lon="2.03058">
        <ele>146.60000610352</ele>
        <time>2020-08-04T14:53:38.000Z</time>
      </trkpt>
      <trkpt lat="48.45212" lon="2.03088">
        <ele>146.39999389648</ele>
        <time>2020-08-04T14:53:44.000Z</time>
      </trkpt>
      <trkpt lat="48.4518" lon="2.03145">
        <ele>146</ele>
        <time>2020-08-04T14:53:53.000Z</time>
      </trkpt>
      <trkpt lat="48.45144" lon="2.03209">
        <ele>145.60000610352</ele>
        <time>2020-08-04T14:54:03.000Z</time>
      </trkpt>
      <trkpt lat="48.45108" lon="2.03272">
        <ele>144.80000305176</ele>
        <time>2020-08-04T14:54:13.000Z</time>
      </trkpt>
      <trkpt lat="48.45105" lon="2.03278">
        <ele>144.60000610352</ele>
        <time>2020-08-04T14:54:14.000Z</time>
      </trkpt>
      <trkpt lat="48.45077" lon="2.03324">
        <ele>143.80000305176</ele>
        <time>2020-08-04T14:54:22.000Z</time>
      </trkpt>
      <trkpt lat="48.4504" lon="2.03383">
        <ele>143.60000610352</ele>
        <time>2020-08-04T14:54:32.000Z</time>
      </trkpt>
      <trkpt lat="48.45036" lon="2.03389">
        <ele>143.80000305176</ele>
        <time>2020-08-04T14:54:33.000Z</time>
      </trkpt>
      <trkpt lat="48.44997" lon="2.03452">
        <ele>143</ele>
        <time>2020-08-04T14:54:43.000Z</time>
      </trkpt>
      <trkpt lat="48.44966" lon="2.03502">
        <ele>142.19999694824</ele>
        <time>2020-08-04T14:54:51.000Z</time>
      </trkpt>
      <trkpt lat="48.44937" lon="2.03551">
        <ele>142</ele>
        <time>2020-08-04T14:54:59.000Z</time>
      </trkpt>
      <trkpt lat="48.44899" lon="2.03615">
        <ele>140.19999694824</ele>
        <time>2020-08-04T14:55:09.000Z</time>
      </trkpt>
      <trkpt lat="48.44876" lon="2.03654">
        <ele>139.39999389648</ele>
        <time>2020-08-04T14:55:15.000Z</time>
      </trkpt>
      <trkpt lat="48.44841" lon="2.03713">
        <ele>138.80000305176</ele>
        <time>2020-08-04T14:55:24.000Z</time>
      </trkpt>
      <trkpt lat="48.44813" lon="2.03758">
        <ele>138.19999694824</ele>
        <time>2020-08-04T14:55:31.000Z</time>
      </trkpt>
      <trkpt lat="48.44783" lon="2.03807">
        <ele>137.80000305176</ele>
        <time>2020-08-04T14:55:39.000Z</time>
      </trkpt>
      <trkpt lat="48.44756" lon="2.03851">
        <ele>137.60000610352</ele>
        <time>2020-08-04T14:55:47.000Z</time>
      </trkpt>
      <trkpt lat="48.4474" lon="2.03878">
        <ele>137</ele>
        <time>2020-08-04T14:55:52.000Z</time>
      </trkpt>
      <trkpt lat="48.44732" lon="2.03888">
        <ele>136.39999389648</ele>
        <time>2020-08-04T14:55:54.000Z</time>
      </trkpt>
      <trkpt lat="48.44725" lon="2.03899">
        <ele>135.80000305176</ele>
        <time>2020-08-04T14:55:56.000Z</time>
      </trkpt>
      <trkpt lat="48.44717" lon="2.03921">
        <ele>134.80000305176</ele>
        <time>2020-08-04T14:55:59.000Z</time>
      </trkpt>
      <trkpt lat="48.4471" lon="2.03945">
        <ele>133.60000610352</ele>
        <time>2020-08-04T14:56:03.000Z</time>
      </trkpt>
      <trkpt lat="48.44711" lon="2.03955">
        <ele>133</ele>
        <time>2020-08-04T14:56:05.000Z</time>
      </trkpt>
      <trkpt lat="48.44716" lon="2.03964">
        <ele>132.80000305176</ele>
        <time>2020-08-04T14:56:07.000Z</time>
      </trkpt>
      <trkpt lat="48.44728" lon="2.03972">
        <ele>133.60000610352</ele>
        <time>2020-08-04T14:56:11.000Z</time>
      </trkpt>
      <trkpt lat="48.44741" lon="2.03977">
        <ele>134.60000610352</ele>
        <time>2020-08-04T14:56:15.000Z</time>
      </trkpt>
      <trkpt lat="48.44756" lon="2.03981">
        <ele>135.60000610352</ele>
        <time>2020-08-04T14:56:19.000Z</time>
      </trkpt>
      <trkpt lat="48.4476" lon="2.03981">
        <ele>136</ele>
        <time>2020-08-04T14:56:20.000Z</time>
      </trkpt>
      <trkpt lat="48.44779" lon="2.0398">
        <ele>136.19999694824</ele>
        <time>2020-08-04T14:56:25.000Z</time>
      </trkpt>
      <trkpt lat="48.4479" lon="2.03976">
        <ele>136.39999389648</ele>
        <time>2020-08-04T14:56:28.000Z</time>
      </trkpt>
      <trkpt lat="48.448" lon="2.03973">
        <ele>136.39999389648</ele>
        <time>2020-08-04T14:56:30.000Z</time>
      </trkpt>
      <trkpt lat="48.44821" lon="2.03974">
        <ele>136.39999389648</ele>
        <time>2020-08-04T14:56:34.000Z</time>
      </trkpt>
      <trkpt lat="48.44825" lon="2.03981">
        <ele>136.19999694824</ele>
        <time>2020-08-04T14:56:36.000Z</time>
      </trkpt>
      <trkpt lat="48.44825" lon="2.03983">
        <ele>136.19999694824</ele>
        <time>2020-08-04T14:56:37.000Z</time>
      </trkpt>
      <trkpt lat="48.44826" lon="2.03985">
        <ele>136.19999694824</ele>
        <time>2020-08-04T14:56:39.000Z</time>
      </trkpt>
      <trkpt lat="48.44827" lon="2.0399">
        <ele>136</ele>
        <time>2020-08-04T14:56:48.000Z</time>
      </trkpt>
      <trkpt lat="48.44827" lon="2.03994">
        <ele>136</ele>
        <time>2020-08-04T14:56:49.000Z</time>
      </trkpt>
      <trkpt lat="48.44829" lon="2.04011">
        <ele>136.19999694824</ele>
        <time>2020-08-04T14:56:52.000Z</time>
      </trkpt>
      <trkpt lat="48.44831" lon="2.04017">
        <ele>136.19999694824</ele>
        <time>2020-08-04T14:56:53.000Z</time>
      </trkpt>
      <trkpt lat="48.44837" lon="2.04042">
        <ele>136.60000610352</ele>
        <time>2020-08-04T14:56:58.000Z</time>
      </trkpt>
      <trkpt lat="48.44844" lon="2.04067">
        <ele>136.80000305176</ele>
        <time>2020-08-04T14:57:04.000Z</time>
      </trkpt>
      <trkpt lat="48.44849" lon="2.04082">
        <ele>137</ele>
        <time>2020-08-04T14:57:09.000Z</time>
      </trkpt>
      <trkpt lat="48.44858" lon="2.04101">
        <ele>137.39999389648</ele>
        <time>2020-08-04T14:57:15.000Z</time>
      </trkpt>
      <trkpt lat="48.44866" lon="2.04113">
        <ele>137.60000610352</ele>
        <time>2020-08-04T14:57:20.000Z</time>
      </trkpt>
      <trkpt lat="48.44878" lon="2.04137">
        <ele>138</ele>
        <time>2020-08-04T14:57:26.000Z</time>
      </trkpt>
      <trkpt lat="48.44896" lon="2.0417">
        <ele>138.60000610352</ele>
        <time>2020-08-04T14:57:34.000Z</time>
      </trkpt>
      <trkpt lat="48.44909" lon="2.04192">
        <ele>139.19999694824</ele>
        <time>2020-08-04T14:57:40.000Z</time>
      </trkpt>
      <trkpt lat="48.44922" lon="2.04216">
        <ele>139.60000610352</ele>
        <time>2020-08-04T14:57:46.000Z</time>
      </trkpt>
      <trkpt lat="48.44939" lon="2.04258">
        <ele>140</ele>
        <time>2020-08-04T14:57:55.000Z</time>
      </trkpt>
      <trkpt lat="48.44954" lon="2.04296">
        <ele>140.19999694824</ele>
        <time>2020-08-04T14:58:02.000Z</time>
      </trkpt>
      <trkpt lat="48.44977" lon="2.04356">
        <ele>140.19999694824</ele>
        <time>2020-08-04T14:58:12.000Z</time>
      </trkpt>
      <trkpt lat="48.44994" lon="2.04399">
        <ele>140.39999389648</ele>
        <time>2020-08-04T14:58:19.000Z</time>
      </trkpt>
      <trkpt lat="48.45013" lon="2.04452">
        <ele>140.80000305176</ele>
        <time>2020-08-04T14:58:27.000Z</time>
      </trkpt>
      <trkpt lat="48.45034" lon="2.04497">
        <ele>141.19999694824</ele>
        <time>2020-08-04T14:58:34.000Z</time>
      </trkpt>
      <trkpt lat="48.45065" lon="2.04534">
        <ele>140.60000610352</ele>
        <time>2020-08-04T14:58:42.000Z</time>
      </trkpt>
      <trkpt lat="48.45098" lon="2.04572">
        <ele>140</ele>
        <time>2020-08-04T14:58:50.000Z</time>
      </trkpt>
      <trkpt lat="48.4513" lon="2.04608">
        <ele>140</ele>
        <time>2020-08-04T14:58:58.000Z</time>
      </trkpt>
      <trkpt lat="48.45161" lon="2.04633">
        <ele>140</ele>
        <time>2020-08-04T14:59:05.000Z</time>
      </trkpt>
      <trkpt lat="48.45196" lon="2.04648">
        <ele>140.19999694824</ele>
        <time>2020-08-04T14:59:12.000Z</time>
      </trkpt>
      <trkpt lat="48.45234" lon="2.04666">
        <ele>140.60000610352</ele>
        <time>2020-08-04T14:59:20.000Z</time>
      </trkpt>
      <trkpt lat="48.45265" lon="2.04694">
        <ele>141</ele>
        <time>2020-08-04T14:59:27.000Z</time>
      </trkpt>
      <trkpt lat="48.45295" lon="2.04726">
        <ele>140.60000610352</ele>
        <time>2020-08-04T14:59:34.000Z</time>
      </trkpt>
      <trkpt lat="48.45325" lon="2.04753">
        <ele>139.80000305176</ele>
        <time>2020-08-04T14:59:41.000Z</time>
      </trkpt>
      <trkpt lat="48.45356" lon="2.04778">
        <ele>139</ele>
        <time>2020-08-04T14:59:48.000Z</time>
      </trkpt>
      <trkpt lat="48.4536" lon="2.04782">
        <ele>139</ele>
        <time>2020-08-04T14:59:49.000Z</time>
      </trkpt>
      <trkpt lat="48.45363" lon="2.04787">
        <ele>138.80000305176</ele>
        <time>2020-08-04T14:59:50.000Z</time>
      </trkpt>
      <trkpt lat="48.4537" lon="2.04803">
        <ele>138.60000610352</ele>
        <time>2020-08-04T14:59:53.000Z</time>
      </trkpt>
      <trkpt lat="48.45387" lon="2.04827">
        <ele>138.39999389648</ele>
        <time>2020-08-04T14:59:58.000Z</time>
      </trkpt>
      <trkpt lat="48.45408" lon="2.04854">
        <ele>139.19999694824</ele>
        <time>2020-08-04T15:00:04.000Z</time>
      </trkpt>
      <trkpt lat="48.45412" lon="2.04865">
        <ele>139.19999694824</ele>
        <time>2020-08-04T15:00:06.000Z</time>
      </trkpt>
      <trkpt lat="48.45412" lon="2.04872">
        <ele>139.19999694824</ele>
        <time>2020-08-04T15:00:07.000Z</time>
      </trkpt>
      <trkpt lat="48.45411" lon="2.04878">
        <ele>139.19999694824</ele>
        <time>2020-08-04T15:00:08.000Z</time>
      </trkpt>
      <trkpt lat="48.45405" lon="2.04905">
        <ele>139.19999694824</ele>
        <time>2020-08-04T15:00:12.000Z</time>
      </trkpt>
      <trkpt lat="48.45389" lon="2.04965">
        <ele>139.39999389648</ele>
        <time>2020-08-04T15:00:21.000Z</time>
      </trkpt>
      <trkpt lat="48.45384" lon="2.04984">
        <ele>139.19999694824</ele>
        <time>2020-08-04T15:00:24.000Z</time>
      </trkpt>
      <trkpt lat="48.45381" lon="2.04996">
        <ele>139</ele>
        <time>2020-08-04T15:00:26.000Z</time>
      </trkpt>
      <trkpt lat="48.45379" lon="2.05003">
        <ele>139</ele>
        <time>2020-08-04T15:00:27.000Z</time>
      </trkpt>
      <trkpt lat="48.45365" lon="2.05053">
        <ele>137.80000305176</ele>
        <time>2020-08-04T15:00:34.000Z</time>
      </trkpt>
      <trkpt lat="48.45349" lon="2.05112">
        <ele>138.80000305176</ele>
        <time>2020-08-04T15:00:42.000Z</time>
      </trkpt>
      <trkpt lat="48.45343" lon="2.05147">
        <ele>140.39999389648</ele>
        <time>2020-08-04T15:00:47.000Z</time>
      </trkpt>
      <trkpt lat="48.4534" lon="2.0518">
        <ele>142.39999389648</ele>
        <time>2020-08-04T15:00:53.000Z</time>
      </trkpt>
      <trkpt lat="48.45335" lon="2.05212">
        <ele>144.39999389648</ele>
        <time>2020-08-04T15:00:59.000Z</time>
      </trkpt>
      <trkpt lat="48.45333" lon="2.0525">
        <ele>146</ele>
        <time>2020-08-04T15:01:06.000Z</time>
      </trkpt>
      <trkpt lat="48.45342" lon="2.05294">
        <ele>146.60000610352</ele>
        <time>2020-08-04T15:01:14.000Z</time>
      </trkpt>
      <trkpt lat="48.45354" lon="2.0531">
        <ele>146.80000305176</ele>
        <time>2020-08-04T15:01:18.000Z</time>
      </trkpt>
      <trkpt lat="48.45373" lon="2.05327">
        <ele>147</ele>
        <time>2020-08-04T15:01:24.000Z</time>
      </trkpt>
      <trkpt lat="48.45373" lon="2.05346">
        <ele>147</ele>
        <time>2020-08-04T15:01:28.000Z</time>
      </trkpt>
      <trkpt lat="48.4536" lon="2.0537">
        <ele>147</ele>
        <time>2020-08-04T15:01:33.000Z</time>
      </trkpt>
      <trkpt lat="48.45338" lon="2.05411">
        <ele>146.80000305176</ele>
        <time>2020-08-04T15:01:41.000Z</time>
      </trkpt>
      <trkpt lat="48.45311" lon="2.05461">
        <ele>146</ele>
        <time>2020-08-04T15:01:50.000Z</time>
      </trkpt>
      <trkpt lat="48.45298" lon="2.05495">
        <ele>146</ele>
        <time>2020-08-04T15:01:55.000Z</time>
      </trkpt>
      <trkpt lat="48.45284" lon="2.05533">
        <ele>146.19999694824</ele>
        <time>2020-08-04T15:02:01.000Z</time>
      </trkpt>
      <trkpt lat="48.45278" lon="2.05573">
        <ele>146.19999694824</ele>
        <time>2020-08-04T15:02:06.000Z</time>
      </trkpt>
      <trkpt lat="48.45277" lon="2.05589">
        <ele>146.19999694824</ele>
        <time>2020-08-04T15:02:08.000Z</time>
      </trkpt>
      <trkpt lat="48.45276" lon="2.05613">
        <ele>146.19999694824</ele>
        <time>2020-08-04T15:02:11.000Z</time>
      </trkpt>
      <trkpt lat="48.45276" lon="2.05627">
        <ele>146.19999694824</ele>
        <time>2020-08-04T15:02:13.000Z</time>
      </trkpt>
      <trkpt lat="48.45277" lon="2.05648">
        <ele>146.19999694824</ele>
        <time>2020-08-04T15:02:16.000Z</time>
      </trkpt>
      <trkpt lat="48.45277" lon="2.05655">
        <ele>146.19999694824</ele>
        <time>2020-08-04T15:02:17.000Z</time>
      </trkpt>
      <trkpt lat="48.45276" lon="2.05662">
        <ele>146.19999694824</ele>
        <time>2020-08-04T15:02:18.000Z</time>
      </trkpt>
      <trkpt lat="48.45274" lon="2.0568">
        <ele>146</ele>
        <time>2020-08-04T15:02:21.000Z</time>
      </trkpt>
      <trkpt lat="48.45274" lon="2.05686">
        <ele>145.80000305176</ele>
        <time>2020-08-04T15:02:22.000Z</time>
      </trkpt>
      <trkpt lat="48.45276" lon="2.05692">
        <ele>145.80000305176</ele>
        <time>2020-08-04T15:02:23.000Z</time>
      </trkpt>
      <trkpt lat="48.45283" lon="2.057">
        <ele>146</ele>
        <time>2020-08-04T15:02:25.000Z</time>
      </trkpt>
      <trkpt lat="48.45305" lon="2.05707">
        <ele>146.39999389648</ele>
        <time>2020-08-04T15:02:30.000Z</time>
      </trkpt>
      <trkpt lat="48.45324" lon="2.05726">
        <ele>146.60000610352</ele>
        <time>2020-08-04T15:02:35.000Z</time>
      </trkpt>
      <trkpt lat="48.45338" lon="2.05745">
        <ele>146.80000305176</ele>
        <time>2020-08-04T15:02:39.000Z</time>
      </trkpt>
      <trkpt lat="48.45346" lon="2.05753">
        <ele>147</ele>
        <time>2020-08-04T15:02:41.000Z</time>
      </trkpt>
      <trkpt lat="48.45351" lon="2.05756">
        <ele>147</ele>
        <time>2020-08-04T15:02:42.000Z</time>
      </trkpt>
      <trkpt lat="48.45379" lon="2.05769">
        <ele>147.60000610352</ele>
        <time>2020-08-04T15:02:48.000Z</time>
      </trkpt>
      <trkpt lat="48.45413" lon="2.05782">
        <ele>148.19999694824</ele>
        <time>2020-08-04T15:02:55.000Z</time>
      </trkpt>
      <trkpt lat="48.45447" lon="2.05797">
        <ele>148.60000610352</ele>
        <time>2020-08-04T15:03:02.000Z</time>
      </trkpt>
      <trkpt lat="48.45482" lon="2.05811">
        <ele>148.80000305176</ele>
        <time>2020-08-04T15:03:09.000Z</time>
      </trkpt>
      <trkpt lat="48.45523" lon="2.05827">
        <ele>149</ele>
        <time>2020-08-04T15:03:17.000Z</time>
      </trkpt>
      <trkpt lat="48.45561" lon="2.05842">
        <ele>148.60000610352</ele>
        <time>2020-08-04T15:03:24.000Z</time>
      </trkpt>
      <trkpt lat="48.45594" lon="2.05857">
        <ele>148.39999389648</ele>
        <time>2020-08-04T15:03:31.000Z</time>
      </trkpt>
      <trkpt lat="48.45617" lon="2.05873">
        <ele>148.80000305176</ele>
        <time>2020-08-04T15:03:36.000Z</time>
      </trkpt>
      <trkpt lat="48.4562" lon="2.05879">
        <ele>148.80000305176</ele>
        <time>2020-08-04T15:03:37.000Z</time>
      </trkpt>
      <trkpt lat="48.45622" lon="2.05885">
        <ele>149</ele>
        <time>2020-08-04T15:03:38.000Z</time>
      </trkpt>
      <trkpt lat="48.45628" lon="2.05898">
        <ele>149.19999694824</ele>
        <time>2020-08-04T15:03:40.000Z</time>
      </trkpt>
      <trkpt lat="48.45635" lon="2.05909">
        <ele>149.39999389648</ele>
        <time>2020-08-04T15:03:42.000Z</time>
      </trkpt>
      <trkpt lat="48.45644" lon="2.05914">
        <ele>149.60000610352</ele>
        <time>2020-08-04T15:03:44.000Z</time>
      </trkpt>
      <trkpt lat="48.45655" lon="2.05915">
        <ele>149.60000610352</ele>
        <time>2020-08-04T15:03:46.000Z</time>
      </trkpt>
      <trkpt lat="48.45665" lon="2.05911">
        <ele>149.80000305176</ele>
        <time>2020-08-04T15:03:48.000Z</time>
      </trkpt>
      <trkpt lat="48.45674" lon="2.05906">
        <ele>149.80000305176</ele>
        <time>2020-08-04T15:03:50.000Z</time>
      </trkpt>
      <trkpt lat="48.45684" lon="2.05905">
        <ele>150</ele>
        <time>2020-08-04T15:03:52.000Z</time>
      </trkpt>
      <trkpt lat="48.45694" lon="2.05909">
        <ele>150</ele>
        <time>2020-08-04T15:03:54.000Z</time>
      </trkpt>
      <trkpt lat="48.45726" lon="2.05928">
        <ele>150</ele>
        <time>2020-08-04T15:04:01.000Z</time>
      </trkpt>
      <trkpt lat="48.45762" lon="2.05951">
        <ele>150</ele>
        <time>2020-08-04T15:04:08.000Z</time>
      </trkpt>
      <trkpt lat="48.45798" lon="2.05977">
        <ele>150</ele>
        <time>2020-08-04T15:04:15.000Z</time>
      </trkpt>
      <trkpt lat="48.45846" lon="2.06008">
        <ele>150.19999694824</ele>
        <time>2020-08-04T15:04:24.000Z</time>
      </trkpt>
      <trkpt lat="48.4589" lon="2.06035">
        <ele>150</ele>
        <time>2020-08-04T15:04:32.000Z</time>
      </trkpt>
      <trkpt lat="48.45943" lon="2.06068">
        <ele>150.19999694824</ele>
        <time>2020-08-04T15:04:42.000Z</time>
      </trkpt>
      <trkpt lat="48.45985" lon="2.06094">
        <ele>150.60000610352</ele>
        <time>2020-08-04T15:04:50.000Z</time>
      </trkpt>
      <trkpt lat="48.46034" lon="2.06124">
        <ele>150.80000305176</ele>
        <time>2020-08-04T15:04:59.000Z</time>
      </trkpt>
      <trkpt lat="48.46072" lon="2.06148">
        <ele>150.39999389648</ele>
        <time>2020-08-04T15:05:06.000Z</time>
      </trkpt>
      <trkpt lat="48.46111" lon="2.06171">
        <ele>150.19999694824</ele>
        <time>2020-08-04T15:05:13.000Z</time>
      </trkpt>
      <trkpt lat="48.46148" lon="2.06198">
        <ele>150.39999389648</ele>
        <time>2020-08-04T15:05:20.000Z</time>
      </trkpt>
      <trkpt lat="48.46186" lon="2.06238">
        <ele>151</ele>
        <time>2020-08-04T15:05:28.000Z</time>
      </trkpt>
      <trkpt lat="48.4622" lon="2.06283">
        <ele>151.39999389648</ele>
        <time>2020-08-04T15:05:36.000Z</time>
      </trkpt>
      <trkpt lat="48.46231" lon="2.06296">
        <ele>151.60000610352</ele>
        <time>2020-08-04T15:05:39.000Z</time>
      </trkpt>
      <trkpt lat="48.46238" lon="2.06304">
        <ele>151.60000610352</ele>
        <time>2020-08-04T15:05:41.000Z</time>
      </trkpt>
      <trkpt lat="48.46242" lon="2.06309">
        <ele>151.80000305176</ele>
        <time>2020-08-04T15:05:42.000Z</time>
      </trkpt>
      <trkpt lat="48.46253" lon="2.06325">
        <ele>151.80000305176</ele>
        <time>2020-08-04T15:05:45.000Z</time>
      </trkpt>
      <trkpt lat="48.46286" lon="2.06369">
        <ele>152.60000610352</ele>
        <time>2020-08-04T15:05:53.000Z</time>
      </trkpt>
      <trkpt lat="48.46321" lon="2.06419">
        <ele>152.80000305176</ele>
        <time>2020-08-04T15:06:01.000Z</time>
      </trkpt>
      <trkpt lat="48.46358" lon="2.06481">
        <ele>152.19999694824</ele>
        <time>2020-08-04T15:06:10.000Z</time>
      </trkpt>
      <trkpt lat="48.46393" lon="2.06543">
        <ele>152.60000610352</ele>
        <time>2020-08-04T15:06:19.000Z</time>
      </trkpt>
      <trkpt lat="48.46397" lon="2.06549">
        <ele>152.60000610352</ele>
        <time>2020-08-04T15:06:20.000Z</time>
      </trkpt>
      <trkpt lat="48.46432" lon="2.06614">
        <ele>153</ele>
        <time>2020-08-04T15:06:29.000Z</time>
      </trkpt>
      <trkpt lat="48.46436" lon="2.06621">
        <ele>153</ele>
        <time>2020-08-04T15:06:30.000Z</time>
      </trkpt>
      <trkpt lat="48.46458" lon="2.0667">
        <ele>153</ele>
        <time>2020-08-04T15:06:36.000Z</time>
      </trkpt>
      <trkpt lat="48.46486" lon="2.06746">
        <ele>153</ele>
        <time>2020-08-04T15:06:45.000Z</time>
      </trkpt>
      <trkpt lat="48.46488" lon="2.06755">
        <ele>153.19999694824</ele>
        <time>2020-08-04T15:06:46.000Z</time>
      </trkpt>
      <trkpt lat="48.46505" lon="2.06828">
        <ele>153.60000610352</ele>
        <time>2020-08-04T15:06:54.000Z</time>
      </trkpt>
      <trkpt lat="48.46522" lon="2.06914">
        <ele>152</ele>
        <time>2020-08-04T15:07:03.000Z</time>
      </trkpt>
      <trkpt lat="48.46523" lon="2.06923">
        <ele>151.80000305176</ele>
        <time>2020-08-04T15:07:04.000Z</time>
      </trkpt>
      <trkpt lat="48.46537" lon="2.06995">
        <ele>151</ele>
        <time>2020-08-04T15:07:12.000Z</time>
      </trkpt>
      <trkpt lat="48.46549" lon="2.07052">
        <ele>149.80000305176</ele>
        <time>2020-08-04T15:07:19.000Z</time>
      </trkpt>
      <trkpt lat="48.46561" lon="2.07116">
        <ele>149</ele>
        <time>2020-08-04T15:07:26.000Z</time>
      </trkpt>
      <trkpt lat="48.46577" lon="2.07197">
        <ele>148.19999694824</ele>
        <time>2020-08-04T15:07:35.000Z</time>
      </trkpt>
      <trkpt lat="48.46591" lon="2.07267">
        <ele>148.60000610352</ele>
        <time>2020-08-04T15:07:43.000Z</time>
      </trkpt>
      <trkpt lat="48.46594" lon="2.07312">
        <ele>149.80000305176</ele>
        <time>2020-08-04T15:07:48.000Z</time>
      </trkpt>
      <trkpt lat="48.46597" lon="2.07345">
        <ele>149.80000305176</ele>
        <time>2020-08-04T15:07:52.000Z</time>
      </trkpt>
      <trkpt lat="48.46599" lon="2.07352">
        <ele>149.60000610352</ele>
        <time>2020-08-04T15:07:53.000Z</time>
      </trkpt>
      <trkpt lat="48.46603" lon="2.07367">
        <ele>149.60000610352</ele>
        <time>2020-08-04T15:07:55.000Z</time>
      </trkpt>
      <trkpt lat="48.46613" lon="2.0739">
        <ele>149.19999694824</ele>
        <time>2020-08-04T15:07:58.000Z</time>
      </trkpt>
      <trkpt lat="48.46625" lon="2.07413">
        <ele>149</ele>
        <time>2020-08-04T15:08:01.000Z</time>
      </trkpt>
      <trkpt lat="48.46629" lon="2.07431">
        <ele>148.80000305176</ele>
        <time>2020-08-04T15:08:03.000Z</time>
      </trkpt>
      <trkpt lat="48.46641" lon="2.07485">
        <ele>148.60000610352</ele>
        <time>2020-08-04T15:08:09.000Z</time>
      </trkpt>
      <trkpt lat="48.46668" lon="2.07551">
        <ele>147.39999389648</ele>
        <time>2020-08-04T15:08:17.000Z</time>
      </trkpt>
      <trkpt lat="48.46698" lon="2.0762">
        <ele>147</ele>
        <time>2020-08-04T15:08:26.000Z</time>
      </trkpt>
      <trkpt lat="48.46702" lon="2.07628">
        <ele>147</ele>
        <time>2020-08-04T15:08:27.000Z</time>
      </trkpt>
      <trkpt lat="48.46729" lon="2.0769">
        <ele>147</ele>
        <time>2020-08-04T15:08:35.000Z</time>
      </trkpt>
      <trkpt lat="48.46761" lon="2.07762">
        <ele>147</ele>
        <time>2020-08-04T15:08:44.000Z</time>
      </trkpt>
      <trkpt lat="48.46768" lon="2.07777">
        <ele>147</ele>
        <time>2020-08-04T15:08:46.000Z</time>
      </trkpt>
      <trkpt lat="48.46804" lon="2.07843">
        <ele>147.39999389648</ele>
        <time>2020-08-04T15:08:55.000Z</time>
      </trkpt>
      <trkpt lat="48.46812" lon="2.07858">
        <ele>147.60000610352</ele>
        <time>2020-08-04T15:08:57.000Z</time>
      </trkpt>
      <trkpt lat="48.46846" lon="2.07911">
        <ele>148</ele>
        <time>2020-08-04T15:09:05.000Z</time>
      </trkpt>
      <trkpt lat="48.4689" lon="2.07961">
        <ele>148.39999389648</ele>
        <time>2020-08-04T15:09:14.000Z</time>
      </trkpt>
      <trkpt lat="48.46936" lon="2.08006">
        <ele>149</ele>
        <time>2020-08-04T15:09:23.000Z</time>
      </trkpt>
      <trkpt lat="48.46975" lon="2.08043">
        <ele>149.60000610352</ele>
        <time>2020-08-04T15:09:31.000Z</time>
      </trkpt>
      <trkpt lat="48.47023" lon="2.08093">
        <ele>150</ele>
        <time>2020-08-04T15:09:41.000Z</time>
      </trkpt>
      <trkpt lat="48.47057" lon="2.08141">
        <ele>150</ele>
        <time>2020-08-04T15:09:49.000Z</time>
      </trkpt>
      <trkpt lat="48.47082" lon="2.08191">
        <ele>150.39999389648</ele>
        <time>2020-08-04T15:09:56.000Z</time>
      </trkpt>
      <trkpt lat="48.47098" lon="2.08237">
        <ele>151</ele>
        <time>2020-08-04T15:10:02.000Z</time>
      </trkpt>
      <trkpt lat="48.47112" lon="2.08283">
        <ele>151</ele>
        <time>2020-08-04T15:10:08.000Z</time>
      </trkpt>
      <trkpt lat="48.47131" lon="2.0836">
        <ele>150.60000610352</ele>
        <time>2020-08-04T15:10:17.000Z</time>
      </trkpt>
      <trkpt lat="48.4715" lon="2.08427">
        <ele>150</ele>
        <time>2020-08-04T15:10:25.000Z</time>
      </trkpt>
      <trkpt lat="48.4717" lon="2.08495">
        <ele>150</ele>
        <time>2020-08-04T15:10:33.000Z</time>
      </trkpt>
      <trkpt lat="48.47192" lon="2.08561">
        <ele>150.19999694824</ele>
        <time>2020-08-04T15:10:41.000Z</time>
      </trkpt>
      <trkpt lat="48.47213" lon="2.086">
        <ele>150.39999389648</ele>
        <time>2020-08-04T15:10:47.000Z</time>
      </trkpt>
      <trkpt lat="48.47237" lon="2.08625">
        <ele>150.80000305176</ele>
        <time>2020-08-04T15:10:52.000Z</time>
      </trkpt>
      <trkpt lat="48.47289" lon="2.08668">
        <ele>151</ele>
        <time>2020-08-04T15:11:02.000Z</time>
      </trkpt>
      <trkpt lat="48.47336" lon="2.0871">
        <ele>151</ele>
        <time>2020-08-04T15:11:11.000Z</time>
      </trkpt>
      <trkpt lat="48.47341" lon="2.08715">
        <ele>151</ele>
        <time>2020-08-04T15:11:12.000Z</time>
      </trkpt>
      <trkpt lat="48.47382" lon="2.08766">
        <ele>151.60000610352</ele>
        <time>2020-08-04T15:11:21.000Z</time>
      </trkpt>
      <trkpt lat="48.4741" lon="2.08803">
        <ele>152.39999389648</ele>
        <time>2020-08-04T15:11:28.000Z</time>
      </trkpt>
      <trkpt lat="48.47436" lon="2.08841">
        <ele>153</ele>
        <time>2020-08-04T15:11:35.000Z</time>
      </trkpt>
      <trkpt lat="48.47446" lon="2.08851">
        <ele>153.19999694824</ele>
        <time>2020-08-04T15:11:37.000Z</time>
      </trkpt>
      <trkpt lat="48.47457" lon="2.08857">
        <ele>153.19999694824</ele>
        <time>2020-08-04T15:11:39.000Z</time>
      </trkpt>
      <trkpt lat="48.4748" lon="2.08861">
        <ele>153.19999694824</ele>
        <time>2020-08-04T15:11:43.000Z</time>
      </trkpt>
      <trkpt lat="48.47529" lon="2.08868">
        <ele>152.80000305176</ele>
        <time>2020-08-04T15:11:51.000Z</time>
      </trkpt>
      <trkpt lat="48.47581" lon="2.08875">
        <ele>153.80000305176</ele>
        <time>2020-08-04T15:11:59.000Z</time>
      </trkpt>
      <trkpt lat="48.47634" lon="2.08883">
        <ele>153.19999694824</ele>
        <time>2020-08-04T15:12:07.000Z</time>
      </trkpt>
      <trkpt lat="48.47661" lon="2.08888">
        <ele>153</ele>
        <time>2020-08-04T15:12:12.000Z</time>
      </trkpt>
      <trkpt lat="48.47684" lon="2.08892">
        <ele>153</ele>
        <time>2020-08-04T15:12:17.000Z</time>
      </trkpt>
      <trkpt lat="48.47703" lon="2.08895">
        <ele>151.80000305176</ele>
        <time>2020-08-04T15:12:20.000Z</time>
      </trkpt>
      <trkpt lat="48.47709" lon="2.08895">
        <ele>151.39999389648</ele>
        <time>2020-08-04T15:12:21.000Z</time>
      </trkpt>
      <trkpt lat="48.47723" lon="2.08895">
        <ele>150.39999389648</ele>
        <time>2020-08-04T15:12:23.000Z</time>
      </trkpt>
      <trkpt lat="48.47738" lon="2.08893">
        <ele>149.19999694824</ele>
        <time>2020-08-04T15:12:25.000Z</time>
      </trkpt>
      <trkpt lat="48.47771" lon="2.08887">
        <ele>147.60000610352</ele>
        <time>2020-08-04T15:12:31.000Z</time>
      </trkpt>
      <trkpt lat="48.47786" lon="2.08885">
        <ele>147</ele>
        <time>2020-08-04T15:12:35.000Z</time>
      </trkpt>
      <trkpt lat="48.47791" lon="2.08883">
        <ele>146.80000305176</ele>
        <time>2020-08-04T15:12:36.000Z</time>
      </trkpt>
      <trkpt lat="48.47805" lon="2.08877">
        <ele>146.19999694824</ele>
        <time>2020-08-04T15:12:39.000Z</time>
      </trkpt>
      <trkpt lat="48.4782" lon="2.08866">
        <ele>145.80000305176</ele>
        <time>2020-08-04T15:12:42.000Z</time>
      </trkpt>
      <trkpt lat="48.47834" lon="2.08858">
        <ele>145.39999389648</ele>
        <time>2020-08-04T15:12:45.000Z</time>
      </trkpt>
      <trkpt lat="48.47844" lon="2.08859">
        <ele>145.19999694824</ele>
        <time>2020-08-04T15:12:47.000Z</time>
      </trkpt>
      <trkpt lat="48.4786" lon="2.08878">
        <ele>145.19999694824</ele>
        <time>2020-08-04T15:12:51.000Z</time>
      </trkpt>
      <trkpt lat="48.47872" lon="2.08893">
        <ele>145.19999694824</ele>
        <time>2020-08-04T15:12:54.000Z</time>
      </trkpt>
      <trkpt lat="48.47876" lon="2.08898">
        <ele>145.39999389648</ele>
        <time>2020-08-04T15:12:55.000Z</time>
      </trkpt>
      <trkpt lat="48.47897" lon="2.08923">
        <ele>145.60000610352</ele>
        <time>2020-08-04T15:13:00.000Z</time>
      </trkpt>
      <trkpt lat="48.47901" lon="2.08926">
        <ele>145.60000610352</ele>
        <time>2020-08-04T15:13:01.000Z</time>
      </trkpt>
      <trkpt lat="48.47907" lon="2.08927">
        <ele>145.60000610352</ele>
        <time>2020-08-04T15:13:02.000Z</time>
      </trkpt>
      <trkpt lat="48.47923" lon="2.08924">
        <ele>145.80000305176</ele>
        <time>2020-08-04T15:13:05.000Z</time>
      </trkpt>
      <trkpt lat="48.47939" lon="2.08919">
        <ele>146</ele>
        <time>2020-08-04T15:13:08.000Z</time>
      </trkpt>
      <trkpt lat="48.47954" lon="2.08915">
        <ele>146.39999389648</ele>
        <time>2020-08-04T15:13:11.000Z</time>
      </trkpt>
      <trkpt lat="48.4798" lon="2.08908">
        <ele>147.19999694824</ele>
        <time>2020-08-04T15:13:16.000Z</time>
      </trkpt>
      <trkpt lat="48.48021" lon="2.08899">
        <ele>148</ele>
        <time>2020-08-04T15:13:24.000Z</time>
      </trkpt>
      <trkpt lat="48.48048" lon="2.08897">
        <ele>147.80000305176</ele>
        <time>2020-08-04T15:13:29.000Z</time>
      </trkpt>
      <trkpt lat="48.48082" lon="2.08892">
        <ele>147.39999389648</ele>
        <time>2020-08-04T15:13:35.000Z</time>
      </trkpt>
      <trkpt lat="48.48109" lon="2.08887">
        <ele>146.80000305176</ele>
        <time>2020-08-04T15:13:40.000Z</time>
      </trkpt>
      <trkpt lat="48.48134" lon="2.08885">
        <ele>146.60000610352</ele>
        <time>2020-08-04T15:13:44.000Z</time>
      </trkpt>
      <trkpt lat="48.48148" lon="2.08886">
        <ele>146.39999389648</ele>
        <time>2020-08-04T15:13:46.000Z</time>
      </trkpt>
      <trkpt lat="48.48192" lon="2.08894">
        <ele>146</ele>
        <time>2020-08-04T15:13:53.000Z</time>
      </trkpt>
      <trkpt lat="48.4825" lon="2.08904">
        <ele>146</ele>
        <time>2020-08-04T15:14:02.000Z</time>
      </trkpt>
      <trkpt lat="48.48305" lon="2.08918">
        <ele>146</ele>
        <time>2020-08-04T15:14:11.000Z</time>
      </trkpt>
      <trkpt lat="48.48312" lon="2.08919">
        <ele>145.80000305176</ele>
        <time>2020-08-04T15:14:12.000Z</time>
      </trkpt>
      <trkpt lat="48.4836" lon="2.08932">
        <ele>146</ele>
        <time>2020-08-04T15:14:20.000Z</time>
      </trkpt>
      <trkpt lat="48.48388" lon="2.08939">
        <ele>146.60000610352</ele>
        <time>2020-08-04T15:14:25.000Z</time>
      </trkpt>
      <trkpt lat="48.48399" lon="2.08945">
        <ele>146.80000305176</ele>
        <time>2020-08-04T15:14:27.000Z</time>
      </trkpt>
      <trkpt lat="48.48422" lon="2.0897">
        <ele>147</ele>
        <time>2020-08-04T15:14:32.000Z</time>
      </trkpt>
      <trkpt lat="48.48454" lon="2.08989">
        <ele>147.19999694824</ele>
        <time>2020-08-04T15:14:38.000Z</time>
      </trkpt>
      <trkpt lat="48.48496" lon="2.09012">
        <ele>147.39999389648</ele>
        <time>2020-08-04T15:14:46.000Z</time>
      </trkpt>
      <trkpt lat="48.48543" lon="2.09043">
        <ele>147.39999389648</ele>
        <time>2020-08-04T15:14:55.000Z</time>
      </trkpt>
      <trkpt lat="48.48582" lon="2.09076">
        <ele>147.60000610352</ele>
        <time>2020-08-04T15:15:03.000Z</time>
      </trkpt>
      <trkpt lat="48.48592" lon="2.09086">
        <ele>147.80000305176</ele>
        <time>2020-08-04T15:15:05.000Z</time>
      </trkpt>
      <trkpt lat="48.48611" lon="2.09107">
        <ele>147.80000305176</ele>
        <time>2020-08-04T15:15:09.000Z</time>
      </trkpt>
      <trkpt lat="48.48619" lon="2.09119">
        <ele>147.80000305176</ele>
        <time>2020-08-04T15:15:11.000Z</time>
      </trkpt>
      <trkpt lat="48.48632" lon="2.09134">
        <ele>147.80000305176</ele>
        <time>2020-08-04T15:15:14.000Z</time>
      </trkpt>
      <trkpt lat="48.48664" lon="2.09171">
        <ele>147.80000305176</ele>
        <time>2020-08-04T15:15:21.000Z</time>
      </trkpt>
      <trkpt lat="48.48689" lon="2.09203">
        <ele>148</ele>
        <time>2020-08-04T15:15:27.000Z</time>
      </trkpt>
      <trkpt lat="48.48709" lon="2.09235">
        <ele>148</ele>
        <time>2020-08-04T15:15:32.000Z</time>
      </trkpt>
      <trkpt lat="48.48716" lon="2.09249">
        <ele>148</ele>
        <time>2020-08-04T15:15:34.000Z</time>
      </trkpt>
      <trkpt lat="48.4874" lon="2.09293">
        <ele>147.39999389648</ele>
        <time>2020-08-04T15:15:41.000Z</time>
      </trkpt>
      <trkpt lat="48.48751" lon="2.09314">
        <ele>147.19999694824</ele>
        <time>2020-08-04T15:15:44.000Z</time>
      </trkpt>
      <trkpt lat="48.48759" lon="2.09328">
        <ele>147.19999694824</ele>
        <time>2020-08-04T15:15:46.000Z</time>
      </trkpt>
      <trkpt lat="48.48763" lon="2.09335">
        <ele>147</ele>
        <time>2020-08-04T15:15:47.000Z</time>
      </trkpt>
      <trkpt lat="48.48795" lon="2.09392">
        <ele>146.60000610352</ele>
        <time>2020-08-04T15:15:55.000Z</time>
      </trkpt>
      <trkpt lat="48.48828" lon="2.09432">
        <ele>146</ele>
        <time>2020-08-04T15:16:02.000Z</time>
      </trkpt>
      <trkpt lat="48.48874" lon="2.09479">
        <ele>145.39999389648</ele>
        <time>2020-08-04T15:16:11.000Z</time>
      </trkpt>
      <trkpt lat="48.48879" lon="2.09484">
        <ele>145.39999389648</ele>
        <time>2020-08-04T15:16:12.000Z</time>
      </trkpt>
      <trkpt lat="48.48926" lon="2.09533">
        <ele>145.39999389648</ele>
        <time>2020-08-04T15:16:21.000Z</time>
      </trkpt>
      <trkpt lat="48.48966" lon="2.09575">
        <ele>145.39999389648</ele>
        <time>2020-08-04T15:16:29.000Z</time>
      </trkpt>
      <trkpt lat="48.48998" lon="2.09619">
        <ele>144.80000305176</ele>
        <time>2020-08-04T15:16:36.000Z</time>
      </trkpt>
      <trkpt lat="48.49032" lon="2.09673">
        <ele>144</ele>
        <time>2020-08-04T15:16:44.000Z</time>
      </trkpt>
      <trkpt lat="48.49068" lon="2.09719">
        <ele>144</ele>
        <time>2020-08-04T15:16:52.000Z</time>
      </trkpt>
      <trkpt lat="48.49104" lon="2.09763">
        <ele>143.80000305176</ele>
        <time>2020-08-04T15:17:00.000Z</time>
      </trkpt>
      <trkpt lat="48.4914" lon="2.09805">
        <ele>144</ele>
        <time>2020-08-04T15:17:08.000Z</time>
      </trkpt>
      <trkpt lat="48.49175" lon="2.09847">
        <ele>144.39999389648</ele>
        <time>2020-08-04T15:17:16.000Z</time>
      </trkpt>
      <trkpt lat="48.49215" lon="2.09893">
        <ele>145</ele>
        <time>2020-08-04T15:17:25.000Z</time>
      </trkpt>
      <trkpt lat="48.49254" lon="2.09932">
        <ele>145.60000610352</ele>
        <time>2020-08-04T15:17:34.000Z</time>
      </trkpt>
      <trkpt lat="48.49285" lon="2.09962">
        <ele>146.19999694824</ele>
        <time>2020-08-04T15:17:41.000Z</time>
      </trkpt>
      <trkpt lat="48.49331" lon="2.10007">
        <ele>146.60000610352</ele>
        <time>2020-08-04T15:17:51.000Z</time>
      </trkpt>
      <trkpt lat="48.49373" lon="2.10049">
        <ele>146.39999389648</ele>
        <time>2020-08-04T15:18:00.000Z</time>
      </trkpt>
      <trkpt lat="48.49409" lon="2.10085">
        <ele>145.80000305176</ele>
        <time>2020-08-04T15:18:08.000Z</time>
      </trkpt>
      <trkpt lat="48.49417" lon="2.10093">
        <ele>145.80000305176</ele>
        <time>2020-08-04T15:18:10.000Z</time>
      </trkpt>
      <trkpt lat="48.49423" lon="2.10102">
        <ele>145.60000610352</ele>
        <time>2020-08-04T15:18:12.000Z</time>
      </trkpt>
      <trkpt lat="48.49427" lon="2.10106">
        <ele>145.60000610352</ele>
        <time>2020-08-04T15:18:13.000Z</time>
      </trkpt>
      <trkpt lat="48.4946" lon="2.10138">
        <ele>145.60000610352</ele>
        <time>2020-08-04T15:18:20.000Z</time>
      </trkpt>
      <trkpt lat="48.49492" lon="2.10172">
        <ele>145.60000610352</ele>
        <time>2020-08-04T15:18:27.000Z</time>
      </trkpt>
      <trkpt lat="48.49531" lon="2.10219">
        <ele>146.19999694824</ele>
        <time>2020-08-04T15:18:36.000Z</time>
      </trkpt>
      <trkpt lat="48.49565" lon="2.10264">
        <ele>146.39999389648</ele>
        <time>2020-08-04T15:18:44.000Z</time>
      </trkpt>
      <trkpt lat="48.49588" lon="2.10297">
        <ele>146.19999694824</ele>
        <time>2020-08-04T15:18:50.000Z</time>
      </trkpt>
      <trkpt lat="48.49601" lon="2.10316">
        <ele>146.19999694824</ele>
        <time>2020-08-04T15:18:55.000Z</time>
      </trkpt>
      <trkpt lat="48.49624" lon="2.10353">
        <ele>147</ele>
        <time>2020-08-04T15:19:02.000Z</time>
      </trkpt>
      <trkpt lat="48.49659" lon="2.10411">
        <ele>148.39999389648</ele>
        <time>2020-08-04T15:19:12.000Z</time>
      </trkpt>
      <trkpt lat="48.4969" lon="2.10466">
        <ele>149</ele>
        <time>2020-08-04T15:19:21.000Z</time>
      </trkpt>
      <trkpt lat="48.49721" lon="2.10527">
        <ele>149.39999389648</ele>
        <time>2020-08-04T15:19:30.000Z</time>
      </trkpt>
      <trkpt lat="48.4975" lon="2.10587">
        <ele>149.39999389648</ele>
        <time>2020-08-04T15:19:39.000Z</time>
      </trkpt>
      <trkpt lat="48.49753" lon="2.10593">
        <ele>149.39999389648</ele>
        <time>2020-08-04T15:19:40.000Z</time>
      </trkpt>
      <trkpt lat="48.49776" lon="2.10644">
        <ele>149.39999389648</ele>
        <time>2020-08-04T15:19:47.000Z</time>
      </trkpt>
      <trkpt lat="48.49808" lon="2.10718">
        <ele>149</ele>
        <time>2020-08-04T15:19:57.000Z</time>
      </trkpt>
      <trkpt lat="48.49829" lon="2.10769">
        <ele>149.39999389648</ele>
        <time>2020-08-04T15:20:04.000Z</time>
      </trkpt>
      <trkpt lat="48.49834" lon="2.10784">
        <ele>149.39999389648</ele>
        <time>2020-08-04T15:20:06.000Z</time>
      </trkpt>
      <trkpt lat="48.49847" lon="2.10814">
        <ele>149.80000305176</ele>
        <time>2020-08-04T15:20:10.000Z</time>
      </trkpt>
      <trkpt lat="48.49876" lon="2.10883">
        <ele>149.60000610352</ele>
        <time>2020-08-04T15:20:19.000Z</time>
      </trkpt>
      <trkpt lat="48.49906" lon="2.10955">
        <ele>149.19999694824</ele>
        <time>2020-08-04T15:20:28.000Z</time>
      </trkpt>
      <trkpt lat="48.49912" lon="2.10971">
        <ele>149</ele>
        <time>2020-08-04T15:20:30.000Z</time>
      </trkpt>
      <trkpt lat="48.49938" lon="2.11033">
        <ele>148.60000610352</ele>
        <time>2020-08-04T15:20:38.000Z</time>
      </trkpt>
      <trkpt lat="48.49965" lon="2.11098">
        <ele>148.19999694824</ele>
        <time>2020-08-04T15:20:46.000Z</time>
      </trkpt>
      <trkpt lat="48.49995" lon="2.1117">
        <ele>147.60000610352</ele>
        <time>2020-08-04T15:20:55.000Z</time>
      </trkpt>
      <trkpt lat="48.50018" lon="2.11226">
        <ele>147.19999694824</ele>
        <time>2020-08-04T15:21:02.000Z</time>
      </trkpt>
      <trkpt lat="48.50049" lon="2.113">
        <ele>147.80000305176</ele>
        <time>2020-08-04T15:21:11.000Z</time>
      </trkpt>
      <trkpt lat="48.50062" lon="2.11332">
        <ele>148.39999389648</ele>
        <time>2020-08-04T15:21:15.000Z</time>
      </trkpt>
      <trkpt lat="48.50068" lon="2.11356">
        <ele>148.80000305176</ele>
        <time>2020-08-04T15:21:18.000Z</time>
      </trkpt>
      <trkpt lat="48.50079" lon="2.11394">
        <ele>149.39999389648</ele>
        <time>2020-08-04T15:21:23.000Z</time>
      </trkpt>
      <trkpt lat="48.50096" lon="2.1145">
        <ele>147.19999694824</ele>
        <time>2020-08-04T15:21:30.000Z</time>
      </trkpt>
      <trkpt lat="48.50102" lon="2.11472">
        <ele>146</ele>
        <time>2020-08-04T15:21:34.000Z</time>
      </trkpt>
      <trkpt lat="48.50103" lon="2.11476">
        <ele>145.80000305176</ele>
        <time>2020-08-04T15:21:37.000Z</time>
      </trkpt>
      <trkpt lat="48.50108" lon="2.11496">
        <ele>145</ele>
        <time>2020-08-04T15:26:47.000Z</time>
      </trkpt>
      <trkpt lat="48.5011" lon="2.11499">
        <ele>144.80000305176</ele>
        <time>2020-08-04T15:26:48.000Z</time>
      </trkpt>
      <trkpt lat="48.50112" lon="2.11504">
        <ele>144.80000305176</ele>
        <time>2020-08-04T15:26:51.000Z</time>
      </trkpt>
      <trkpt lat="48.50117" lon="2.11512">
        <ele>144.60000610352</ele>
        <time>2020-08-04T15:27:07.000Z</time>
      </trkpt>
      <trkpt lat="48.50119" lon="2.11518">
        <ele>144.19999694824</ele>
        <time>2020-08-04T15:27:09.000Z</time>
      </trkpt>
      <trkpt lat="48.50132" lon="2.11547">
        <ele>143.19999694824</ele>
        <time>2020-08-04T15:27:17.000Z</time>
      </trkpt>
      <trkpt lat="48.50135" lon="2.11552">
        <ele>143</ele>
        <time>2020-08-04T15:27:18.000Z</time>
      </trkpt>
      <trkpt lat="48.50141" lon="2.11563">
        <ele>142.60000610352</ele>
        <time>2020-08-04T15:27:20.000Z</time>
      </trkpt>
      <trkpt lat="48.5015" lon="2.11572">
        <ele>142.39999389648</ele>
        <time>2020-08-04T15:27:22.000Z</time>
      </trkpt>
      <trkpt lat="48.50193" lon="2.11612">
        <ele>141.60000610352</ele>
        <time>2020-08-04T15:27:31.000Z</time>
      </trkpt>
      <trkpt lat="48.50234" lon="2.11643">
        <ele>140</ele>
        <time>2020-08-04T15:27:39.000Z</time>
      </trkpt>
      <trkpt lat="48.50267" lon="2.11661">
        <ele>139</ele>
        <time>2020-08-04T15:27:45.000Z</time>
      </trkpt>
      <trkpt lat="48.50314" lon="2.11678">
        <ele>139.19999694824</ele>
        <time>2020-08-04T15:27:53.000Z</time>
      </trkpt>
      <trkpt lat="48.5037" lon="2.11691">
        <ele>140.19999694824</ele>
        <time>2020-08-04T15:28:03.000Z</time>
      </trkpt>
      <trkpt lat="48.5042" lon="2.11707">
        <ele>141</ele>
        <time>2020-08-04T15:28:12.000Z</time>
      </trkpt>
      <trkpt lat="48.50425" lon="2.11708">
        <ele>141</ele>
        <time>2020-08-04T15:28:13.000Z</time>
      </trkpt>
      <trkpt lat="48.50437" lon="2.11715">
        <ele>141.39999389648</ele>
        <time>2020-08-04T15:28:16.000Z</time>
      </trkpt>
      <trkpt lat="48.50446" lon="2.11721">
        <ele>141.80000305176</ele>
        <time>2020-08-04T15:28:20.000Z</time>
      </trkpt>
      <trkpt lat="48.50455" lon="2.11728">
        <ele>142.39999389648</ele>
        <time>2020-08-04T15:28:27.000Z</time>
      </trkpt>
      <trkpt lat="48.50463" lon="2.11735">
        <ele>142.80000305176</ele>
        <time>2020-08-04T15:28:33.000Z</time>
      </trkpt>
      <trkpt lat="48.50468" lon="2.1174">
        <ele>143</ele>
        <time>2020-08-04T15:28:39.000Z</time>
      </trkpt>
      <trkpt lat="48.50472" lon="2.11743">
        <ele>143.19999694824</ele>
        <time>2020-08-04T15:29:07.000Z</time>
      </trkpt>
      <trkpt lat="48.50476" lon="2.11747">
        <ele>143.39999389648</ele>
        <time>2020-08-04T15:29:09.000Z</time>
      </trkpt>
      <trkpt lat="48.50487" lon="2.11761">
        <ele>143.80000305176</ele>
        <time>2020-08-04T15:29:13.000Z</time>
      </trkpt>
      <trkpt lat="48.50505" lon="2.11791">
        <ele>144.19999694824</ele>
        <time>2020-08-04T15:29:19.000Z</time>
      </trkpt>
      <trkpt lat="48.50517" lon="2.1181">
        <ele>144.60000610352</ele>
        <time>2020-08-04T15:29:23.000Z</time>
      </trkpt>
      <trkpt lat="48.50528" lon="2.11827">
        <ele>143.80000305176</ele>
        <time>2020-08-04T15:29:27.000Z</time>
      </trkpt>
      <trkpt lat="48.50537" lon="2.11847">
        <ele>143</ele>
        <time>2020-08-04T15:29:32.000Z</time>
      </trkpt>
      <trkpt lat="48.50547" lon="2.11864">
        <ele>141.80000305176</ele>
        <time>2020-08-04T15:29:38.000Z</time>
      </trkpt>
      <trkpt lat="48.50551" lon="2.11864">
        <ele>142</ele>
        <time>2020-08-04T15:29:40.000Z</time>
      </trkpt>
      <trkpt lat="48.50554" lon="2.11863">
        <ele>142.19999694824</ele>
        <time>2020-08-04T15:29:42.000Z</time>
      </trkpt>
      <trkpt lat="48.50559" lon="2.11861">
        <ele>142.19999694824</ele>
        <time>2020-08-04T15:29:44.000Z</time>
      </trkpt>
      <trkpt lat="48.50564" lon="2.1186">
        <ele>142</ele>
        <time>2020-08-04T15:29:47.000Z</time>
      </trkpt>
      <trkpt lat="48.50573" lon="2.11849">
        <ele>142.19999694824</ele>
        <time>2020-08-04T15:29:52.000Z</time>
      </trkpt>
      <trkpt lat="48.50574" lon="2.11846">
        <ele>142.19999694824</ele>
        <time>2020-08-04T15:29:53.000Z</time>
      </trkpt>
      <trkpt lat="48.50575" lon="2.1184">
        <ele>142.19999694824</ele>
        <time>2020-08-04T15:29:55.000Z</time>
      </trkpt>
      <trkpt lat="48.50577" lon="2.11834">
        <ele>142.39999389648</ele>
        <time>2020-08-04T15:29:57.000Z</time>
      </trkpt>
      <trkpt lat="48.50584" lon="2.11816">
        <ele>142.80000305176</ele>
        <time>2020-08-04T15:30:03.000Z</time>
      </trkpt>
      <trkpt lat="48.50585" lon="2.11795">
        <ele>143.60000610352</ele>
        <time>2020-08-04T15:30:09.000Z</time>
      </trkpt>
      <trkpt lat="48.50586" lon="2.11787">
        <ele>143.80000305176</ele>
        <time>2020-08-04T15:30:13.000Z</time>
      </trkpt>
      <trkpt lat="48.50595" lon="2.11797">
        <ele>143.19999694824</ele>
        <time>2020-08-04T15:30:32.000Z</time>
      </trkpt>
      <trkpt lat="48.50594" lon="2.11811">
        <ele>142.80000305176</ele>
        <time>2020-08-04T15:30:38.000Z</time>
      </trkpt>
      <trkpt lat="48.50595" lon="2.11814">
        <ele>142.60000610352</ele>
        <time>2020-08-04T15:30:40.000Z</time>
      </trkpt>
      <trkpt lat="48.50595" lon="2.11825">
        <ele>142.19999694824</ele>
        <time>2020-08-04T15:30:43.000Z</time>
      </trkpt>
      <trkpt lat="48.50596" lon="2.11845">
        <ele>141.60000610352</ele>
        <time>2020-08-04T15:30:49.000Z</time>
      </trkpt>
      <trkpt lat="48.50597" lon="2.11867">
        <ele>141.19999694824</ele>
        <time>2020-08-04T15:30:56.000Z</time>
      </trkpt>
      <trkpt lat="48.50602" lon="2.11884">
        <ele>140.39999389648</ele>
        <time>2020-08-04T15:31:01.000Z</time>
      </trkpt>
      <trkpt lat="48.50605" lon="2.11901">
        <ele>139.39999389648</ele>
        <time>2020-08-04T15:31:05.000Z</time>
      </trkpt>
      <trkpt lat="48.50608" lon="2.11913">
        <ele>139</ele>
        <time>2020-08-04T15:31:10.000Z</time>
      </trkpt>
      <trkpt lat="48.50609" lon="2.11915">
        <ele>139</ele>
        <time>2020-08-04T15:31:12.000Z</time>
      </trkpt>
      <trkpt lat="48.50617" lon="2.11936">
        <ele>138.19999694824</ele>
        <time>2020-08-04T15:31:22.000Z</time>
      </trkpt>
      <trkpt lat="48.50619" lon="2.11939">
        <ele>138</ele>
        <time>2020-08-04T15:31:23.000Z</time>
      </trkpt>
      <trkpt lat="48.50627" lon="2.11954">
        <ele>137.19999694824</ele>
        <time>2020-08-04T15:31:28.000Z</time>
      </trkpt>
      <trkpt lat="48.50636" lon="2.1197">
        <ele>136</ele>
        <time>2020-08-04T15:31:34.000Z</time>
      </trkpt>
      <trkpt lat="48.50647" lon="2.11988">
        <ele>135</ele>
        <time>2020-08-04T15:31:41.000Z</time>
      </trkpt>
      <trkpt lat="48.50648" lon="2.1199">
        <ele>134.80000305176</ele>
        <time>2020-08-04T15:31:42.000Z</time>
      </trkpt>
      <trkpt lat="48.50652" lon="2.11992">
        <ele>134.60000610352</ele>
        <time>2020-08-04T15:31:45.000Z</time>
      </trkpt>
      <trkpt lat="48.50654" lon="2.11991">
        <ele>134.60000610352</ele>
        <time>2020-08-04T15:31:46.000Z</time>
      </trkpt>
      <trkpt lat="48.50665" lon="2.11977">
        <ele>134.39999389648</ele>
        <time>2020-08-04T15:31:54.000Z</time>
      </trkpt>
      <trkpt lat="48.50671" lon="2.11974">
        <ele>133.60000610352</ele>
        <time>2020-08-04T15:31:58.000Z</time>
      </trkpt>
      <trkpt lat="48.50736" lon="2.11906">
        <ele>124.80000305176</ele>
        <time>2020-08-04T15:32:59.000Z</time>
      </trkpt>
      <trkpt lat="48.50739" lon="2.11893">
        <ele>124</ele>
        <time>2020-08-04T15:33:04.000Z</time>
      </trkpt>
      <trkpt lat="48.50736" lon="2.1188">
        <ele>123.80000305176</ele>
        <time>2020-08-04T15:33:09.000Z</time>
      </trkpt>
      <trkpt lat="48.50727" lon="2.11871">
        <ele>124</ele>
        <time>2020-08-04T15:33:13.000Z</time>
      </trkpt>
      <trkpt lat="48.50723" lon="2.11867">
        <ele>124</ele>
        <time>2020-08-04T15:33:17.000Z</time>
      </trkpt>
      <trkpt lat="48.5072" lon="2.11861">
        <ele>124</ele>
        <time>2020-08-04T15:33:25.000Z</time>
      </trkpt>
      <trkpt lat="48.50716" lon="2.11858">
        <ele>124</ele>
        <time>2020-08-04T15:33:27.000Z</time>
      </trkpt>
      <trkpt lat="48.5071" lon="2.11848">
        <ele>124</ele>
        <time>2020-08-04T15:33:31.000Z</time>
      </trkpt>
      <trkpt lat="48.50707" lon="2.11846">
        <ele>124</ele>
        <time>2020-08-04T15:33:32.000Z</time>
      </trkpt>
      <trkpt lat="48.50699" lon="2.11841">
        <ele>124.59999847412</ele>
        <time>2020-08-04T15:33:35.000Z</time>
      </trkpt>
      <trkpt lat="48.50693" lon="2.11838">
        <ele>124.80000305176</ele>
        <time>2020-08-04T15:33:39.000Z</time>
      </trkpt>
      <trkpt lat="48.50705" lon="2.1184">
        <ele>123.80000305176</ele>
        <time>2020-08-04T15:34:04.000Z</time>
      </trkpt>
      <trkpt lat="48.50717" lon="2.11828">
        <ele>121.40000152588</ele>
        <time>2020-08-04T15:34:09.000Z</time>
      </trkpt>
      <trkpt lat="48.50724" lon="2.11819">
        <ele>120.80000305176</ele>
        <time>2020-08-04T15:34:12.000Z</time>
      </trkpt>
      <trkpt lat="48.50729" lon="2.11814">
        <ele>120.19999694824</ele>
        <time>2020-08-04T15:34:14.000Z</time>
      </trkpt>
      <trkpt lat="48.50738" lon="2.11804">
        <ele>119.40000152588</ele>
        <time>2020-08-04T15:34:17.000Z</time>
      </trkpt>
      <trkpt lat="48.50741" lon="2.118">
        <ele>119.19999694824</ele>
        <time>2020-08-04T15:34:18.000Z</time>
      </trkpt>
      <trkpt lat="48.50747" lon="2.11791">
        <ele>118.19999694824</ele>
        <time>2020-08-04T15:34:20.000Z</time>
      </trkpt>
      <trkpt lat="48.5075" lon="2.11787">
        <ele>117.80000305176</ele>
        <time>2020-08-04T15:34:21.000Z</time>
      </trkpt>
      <trkpt lat="48.50753" lon="2.11785">
        <ele>117.40000152588</ele>
        <time>2020-08-04T15:34:22.000Z</time>
      </trkpt>
      <trkpt lat="48.5076" lon="2.11784">
        <ele>116.40000152588</ele>
        <time>2020-08-04T15:34:24.000Z</time>
      </trkpt>
      <trkpt lat="48.50785" lon="2.11786">
        <ele>115.19999694824</ele>
        <time>2020-08-04T15:34:29.000Z</time>
      </trkpt>
      <trkpt lat="48.5079" lon="2.11786">
        <ele>115.19999694824</ele>
        <time>2020-08-04T15:34:30.000Z</time>
      </trkpt>
      <trkpt lat="48.50801" lon="2.11783">
        <ele>115</ele>
        <time>2020-08-04T15:34:32.000Z</time>
      </trkpt>
      <trkpt lat="48.50811" lon="2.11782">
        <ele>114.59999847412</ele>
        <time>2020-08-04T15:34:34.000Z</time>
      </trkpt>
      <trkpt lat="48.50839" lon="2.11778">
        <ele>112.19999694824</ele>
        <time>2020-08-04T15:34:39.000Z</time>
      </trkpt>
      <trkpt lat="48.50857" lon="2.11783">
        <ele>111.19999694824</ele>
        <time>2020-08-04T15:34:43.000Z</time>
      </trkpt>
      <trkpt lat="48.5087" lon="2.11799">
        <ele>111</ele>
        <time>2020-08-04T15:34:48.000Z</time>
      </trkpt>
      <trkpt lat="48.50881" lon="2.11822">
        <ele>111.59999847412</ele>
        <time>2020-08-04T15:34:53.000Z</time>
      </trkpt>
      <trkpt lat="48.50889" lon="2.11839">
        <ele>111.40000152588</ele>
        <time>2020-08-04T15:34:57.000Z</time>
      </trkpt>
      <trkpt lat="48.50894" lon="2.11842">
        <ele>111</ele>
        <time>2020-08-04T15:35:00.000Z</time>
      </trkpt>
      <trkpt lat="48.50897" lon="2.11845">
        <ele>110.80000305176</ele>
        <time>2020-08-04T15:35:01.000Z</time>
      </trkpt>
      <trkpt lat="48.50899" lon="2.11852">
        <ele>110.59999847412</ele>
        <time>2020-08-04T15:35:03.000Z</time>
      </trkpt>
      <trkpt lat="48.50903" lon="2.11859">
        <ele>110.19999694824</ele>
        <time>2020-08-04T15:35:07.000Z</time>
      </trkpt>
      <trkpt lat="48.50906" lon="2.1186">
        <ele>110</ele>
        <time>2020-08-04T15:35:09.000Z</time>
      </trkpt>
      <trkpt lat="48.50915" lon="2.11861">
        <ele>109.19999694824</ele>
        <time>2020-08-04T15:35:13.000Z</time>
      </trkpt>
      <trkpt lat="48.50925" lon="2.11867">
        <ele>108.19999694824</ele>
        <time>2020-08-04T15:35:18.000Z</time>
      </trkpt>
      <trkpt lat="48.50927" lon="2.11868">
        <ele>108.19999694824</ele>
        <time>2020-08-04T15:35:19.000Z</time>
      </trkpt>
      <trkpt lat="48.50932" lon="2.1188">
        <ele>107.80000305176</ele>
        <time>2020-08-04T15:35:25.000Z</time>
      </trkpt>
      <trkpt lat="48.50933" lon="2.11885">
        <ele>107.80000305176</ele>
        <time>2020-08-04T15:35:26.000Z</time>
      </trkpt>
      <trkpt lat="48.50936" lon="2.11893">
        <ele>107.19999694824</ele>
        <time>2020-08-04T15:35:27.000Z</time>
      </trkpt>
      <trkpt lat="48.50944" lon="2.11904">
        <ele>106.19999694824</ele>
        <time>2020-08-04T15:35:29.000Z</time>
      </trkpt>
      <trkpt lat="48.50948" lon="2.11908">
        <ele>105.59999847412</ele>
        <time>2020-08-04T15:35:30.000Z</time>
      </trkpt>
      <trkpt lat="48.50975" lon="2.11934">
        <ele>101.40000152588</ele>
        <time>2020-08-04T15:35:37.000Z</time>
      </trkpt>
      <trkpt lat="48.50993" lon="2.11952">
        <ele>98.599998474121</ele>
        <time>2020-08-04T15:35:43.000Z</time>
      </trkpt>
      <trkpt lat="48.51012" lon="2.11982">
        <ele>95.599998474121</ele>
        <time>2020-08-04T15:35:50.000Z</time>
      </trkpt>
      <trkpt lat="48.51028" lon="2.12005">
        <ele>94.400001525879</ele>
        <time>2020-08-04T15:35:54.000Z</time>
      </trkpt>
      <trkpt lat="48.51032" lon="2.12012">
        <ele>94</ele>
        <time>2020-08-04T15:35:55.000Z</time>
      </trkpt>
      <trkpt lat="48.51042" lon="2.12036">
        <ele>93.800003051758</ele>
        <time>2020-08-04T15:35:58.000Z</time>
      </trkpt>
      <trkpt lat="48.51058" lon="2.12075">
        <ele>93</ele>
        <time>2020-08-04T15:36:04.000Z</time>
      </trkpt>
      <trkpt lat="48.51073" lon="2.12116">
        <ele>92.400001525879</ele>
        <time>2020-08-04T15:36:10.000Z</time>
      </trkpt>
      <trkpt lat="48.51094" lon="2.12168">
        <ele>92</ele>
        <time>2020-08-04T15:36:17.000Z</time>
      </trkpt>
      <trkpt lat="48.51116" lon="2.12222">
        <ele>92.599998474121</ele>
        <time>2020-08-04T15:36:24.000Z</time>
      </trkpt>
      <trkpt lat="48.51133" lon="2.12264">
        <ele>92.400001525879</ele>
        <time>2020-08-04T15:36:30.000Z</time>
      </trkpt>
      <trkpt lat="48.5114" lon="2.12277">
        <ele>92</ele>
        <time>2020-08-04T15:36:32.000Z</time>
      </trkpt>
      <trkpt lat="48.51154" lon="2.12293">
        <ele>91</ele>
        <time>2020-08-04T15:36:35.000Z</time>
      </trkpt>
      <trkpt lat="48.51183" lon="2.12329">
        <ele>89</ele>
        <time>2020-08-04T15:36:41.000Z</time>
      </trkpt>
      <trkpt lat="48.51206" lon="2.12369">
        <ele>90</ele>
        <time>2020-08-04T15:36:47.000Z</time>
      </trkpt>
      <trkpt lat="48.51222" lon="2.12408">
        <ele>91</ele>
        <time>2020-08-04T15:36:52.000Z</time>
      </trkpt>
      <trkpt lat="48.51239" lon="2.12446">
        <ele>91</ele>
        <time>2020-08-04T15:36:57.000Z</time>
      </trkpt>
      <trkpt lat="48.51242" lon="2.12454">
        <ele>91</ele>
        <time>2020-08-04T15:36:58.000Z</time>
      </trkpt>
      <trkpt lat="48.51258" lon="2.1249">
        <ele>91</ele>
        <time>2020-08-04T15:37:03.000Z</time>
      </trkpt>
      <trkpt lat="48.51279" lon="2.12548">
        <ele>91.199996948242</ele>
        <time>2020-08-04T15:37:10.000Z</time>
      </trkpt>
      <trkpt lat="48.51298" lon="2.12596">
        <ele>92</ele>
        <time>2020-08-04T15:37:17.000Z</time>
      </trkpt>
      <trkpt lat="48.51296" lon="2.12607">
        <ele>92.400001525879</ele>
        <time>2020-08-04T15:37:19.000Z</time>
      </trkpt>
      <trkpt lat="48.51281" lon="2.12621">
        <ele>92.400001525879</ele>
        <time>2020-08-04T15:37:23.000Z</time>
      </trkpt>
      <trkpt lat="48.51276" lon="2.12623">
        <ele>92.400001525879</ele>
        <time>2020-08-04T15:37:24.000Z</time>
      </trkpt>
      <trkpt lat="48.51271" lon="2.12625">
        <ele>92.199996948242</ele>
        <time>2020-08-04T15:37:25.000Z</time>
      </trkpt>
      <trkpt lat="48.51253" lon="2.12638">
        <ele>92.199996948242</ele>
        <time>2020-08-04T15:37:29.000Z</time>
      </trkpt>
      <trkpt lat="48.5122" lon="2.12662">
        <ele>90.800003051758</ele>
        <time>2020-08-04T15:37:35.000Z</time>
      </trkpt>
      <trkpt lat="48.5118" lon="2.12688">
        <ele>89.199996948242</ele>
        <time>2020-08-04T15:37:42.000Z</time>
      </trkpt>
      <trkpt lat="48.51149" lon="2.12695">
        <ele>89</ele>
        <time>2020-08-04T15:37:47.000Z</time>
      </trkpt>
      <trkpt lat="48.51096" lon="2.12695">
        <ele>87.800003051758</ele>
        <time>2020-08-04T15:37:56.000Z</time>
      </trkpt>
      <trkpt lat="48.51048" lon="2.12697">
        <ele>89.400001525879</ele>
        <time>2020-08-04T15:38:04.000Z</time>
      </trkpt>
      <trkpt lat="48.51008" lon="2.12708">
        <ele>90.199996948242</ele>
        <time>2020-08-04T15:38:11.000Z</time>
      </trkpt>
      <trkpt lat="48.50963" lon="2.12716">
        <ele>92</ele>
        <time>2020-08-04T15:38:19.000Z</time>
      </trkpt>
      <trkpt lat="48.50943" lon="2.12718">
        <ele>92.599998474121</ele>
        <time>2020-08-04T15:38:23.000Z</time>
      </trkpt>
      <trkpt lat="48.50927" lon="2.12722">
        <ele>92.800003051758</ele>
        <time>2020-08-04T15:38:26.000Z</time>
      </trkpt>
      <trkpt lat="48.50896" lon="2.12727">
        <ele>93</ele>
        <time>2020-08-04T15:38:32.000Z</time>
      </trkpt>
      <trkpt lat="48.50891" lon="2.12729">
        <ele>93</ele>
        <time>2020-08-04T15:38:33.000Z</time>
      </trkpt>
      <trkpt lat="48.50886" lon="2.12733">
        <ele>93</ele>
        <time>2020-08-04T15:38:34.000Z</time>
      </trkpt>
      <trkpt lat="48.50867" lon="2.12749">
        <ele>92.599998474121</ele>
        <time>2020-08-04T15:38:38.000Z</time>
      </trkpt>
      <trkpt lat="48.50828" lon="2.12779">
        <ele>92.400001525879</ele>
        <time>2020-08-04T15:38:46.000Z</time>
      </trkpt>
      <trkpt lat="48.50789" lon="2.12809">
        <ele>92.199996948242</ele>
        <time>2020-08-04T15:38:54.000Z</time>
      </trkpt>
      <trkpt lat="48.50753" lon="2.12838">
        <ele>92</ele>
        <time>2020-08-04T15:39:01.000Z</time>
      </trkpt>
      <trkpt lat="48.50727" lon="2.12861">
        <ele>92</ele>
        <time>2020-08-04T15:39:07.000Z</time>
      </trkpt>
      <trkpt lat="48.50707" lon="2.12878">
        <ele>92.800003051758</ele>
        <time>2020-08-04T15:39:12.000Z</time>
      </trkpt>
      <trkpt lat="48.507" lon="2.12887">
        <ele>93.199996948242</ele>
        <time>2020-08-04T15:39:14.000Z</time>
      </trkpt>
      <trkpt lat="48.50697" lon="2.12892">
        <ele>93.400001525879</ele>
        <time>2020-08-04T15:39:15.000Z</time>
      </trkpt>
      <trkpt lat="48.50685" lon="2.12914">
        <ele>94.199996948242</ele>
        <time>2020-08-04T15:39:19.000Z</time>
      </trkpt>
      <trkpt lat="48.50683" lon="2.12921">
        <ele>94.800003051758</ele>
        <time>2020-08-04T15:39:20.000Z</time>
      </trkpt>
      <trkpt lat="48.50681" lon="2.12927">
        <ele>95.199996948242</ele>
        <time>2020-08-04T15:39:21.000Z</time>
      </trkpt>
      <trkpt lat="48.5067" lon="2.12949">
        <ele>97</ele>
        <time>2020-08-04T15:39:25.000Z</time>
      </trkpt>
      <trkpt lat="48.50656" lon="2.12977">
        <ele>99.400001525879</ele>
        <time>2020-08-04T15:39:31.000Z</time>
      </trkpt>
      <trkpt lat="48.50641" lon="2.13">
        <ele>101</ele>
        <time>2020-08-04T15:39:37.000Z</time>
      </trkpt>
      <trkpt lat="48.50627" lon="2.13032">
        <ele>102.59999847412</ele>
        <time>2020-08-04T15:39:43.000Z</time>
      </trkpt>
      <trkpt lat="48.50615" lon="2.1307">
        <ele>101.80000305176</ele>
        <time>2020-08-04T15:39:49.000Z</time>
      </trkpt>
      <trkpt lat="48.50599" lon="2.13113">
        <ele>102.40000152588</ele>
        <time>2020-08-04T15:39:56.000Z</time>
      </trkpt>
      <trkpt lat="48.50597" lon="2.13119">
        <ele>102.80000305176</ele>
        <time>2020-08-04T15:39:57.000Z</time>
      </trkpt>
      <trkpt lat="48.50578" lon="2.13166">
        <ele>104.80000305176</ele>
        <time>2020-08-04T15:40:05.000Z</time>
      </trkpt>
      <trkpt lat="48.50576" lon="2.13171">
        <ele>105.19999694824</ele>
        <time>2020-08-04T15:40:06.000Z</time>
      </trkpt>
      <trkpt lat="48.50555" lon="2.13203">
        <ele>107.40000152588</ele>
        <time>2020-08-04T15:40:13.000Z</time>
      </trkpt>
      <trkpt lat="48.50535" lon="2.13232">
        <ele>106</ele>
        <time>2020-08-04T15:40:20.000Z</time>
      </trkpt>
      <trkpt lat="48.50522" lon="2.13262">
        <ele>105.80000305176</ele>
        <time>2020-08-04T15:40:26.000Z</time>
      </trkpt>
      <trkpt lat="48.5051" lon="2.13301">
        <ele>106.80000305176</ele>
        <time>2020-08-04T15:40:33.000Z</time>
      </trkpt>
      <trkpt lat="48.50506" lon="2.13324">
        <ele>107.19999694824</ele>
        <time>2020-08-04T15:40:37.000Z</time>
      </trkpt>
      <trkpt lat="48.50503" lon="2.13336">
        <ele>107.59999847412</ele>
        <time>2020-08-04T15:40:39.000Z</time>
      </trkpt>
      <trkpt lat="48.50502" lon="2.13342">
        <ele>108</ele>
        <time>2020-08-04T15:40:40.000Z</time>
      </trkpt>
      <trkpt lat="48.50493" lon="2.13364">
        <ele>110</ele>
        <time>2020-08-04T15:40:44.000Z</time>
      </trkpt>
      <trkpt lat="48.50475" lon="2.13408">
        <ele>110.59999847412</ele>
        <time>2020-08-04T15:40:52.000Z</time>
      </trkpt>
      <trkpt lat="48.5047" lon="2.13423">
        <ele>112.19999694824</ele>
        <time>2020-08-04T15:40:55.000Z</time>
      </trkpt>
      <trkpt lat="48.50464" lon="2.13435">
        <ele>113.80000305176</ele>
        <time>2020-08-04T15:40:58.000Z</time>
      </trkpt>
      <trkpt lat="48.50452" lon="2.13444">
        <ele>114</ele>
        <time>2020-08-04T15:41:02.000Z</time>
      </trkpt>
      <trkpt lat="48.50432" lon="2.13445">
        <ele>112.59999847412</ele>
        <time>2020-08-04T15:41:08.000Z</time>
      </trkpt>
      <trkpt lat="48.50427" lon="2.13447">
        <ele>113.80000305176</ele>
        <time>2020-08-04T15:41:10.000Z</time>
      </trkpt>
      <trkpt lat="48.5042" lon="2.13454">
        <ele>115.40000152588</ele>
        <time>2020-08-04T15:41:13.000Z</time>
      </trkpt>
      <trkpt lat="48.50408" lon="2.13466">
        <ele>118.19999694824</ele>
        <time>2020-08-04T15:41:18.000Z</time>
      </trkpt>
      <trkpt lat="48.504" lon="2.13481">
        <ele>117.80000305176</ele>
        <time>2020-08-04T15:41:22.000Z</time>
      </trkpt>
      <trkpt lat="48.50392" lon="2.135">
        <ele>117.59999847412</ele>
        <time>2020-08-04T15:41:27.000Z</time>
      </trkpt>
      <trkpt lat="48.5038" lon="2.13516">
        <ele>119.40000152588</ele>
        <time>2020-08-04T15:41:32.000Z</time>
      </trkpt>
      <trkpt lat="48.50378" lon="2.13519">
        <ele>119.80000305176</ele>
        <time>2020-08-04T15:41:33.000Z</time>
      </trkpt>
      <trkpt lat="48.50371" lon="2.13531">
        <ele>118.80000305176</ele>
        <time>2020-08-04T15:41:36.000Z</time>
      </trkpt>
      <trkpt lat="48.50361" lon="2.13552">
        <ele>116.59999847412</ele>
        <time>2020-08-04T15:41:40.000Z</time>
      </trkpt>
      <trkpt lat="48.50353" lon="2.13577">
        <ele>114.40000152588</ele>
        <time>2020-08-04T15:41:44.000Z</time>
      </trkpt>
      <trkpt lat="48.50345" lon="2.13604">
        <ele>116</ele>
        <time>2020-08-04T15:41:49.000Z</time>
      </trkpt>
      <trkpt lat="48.50336" lon="2.13642">
        <ele>119.19999694824</ele>
        <time>2020-08-04T15:41:56.000Z</time>
      </trkpt>
      <trkpt lat="48.50326" lon="2.13671">
        <ele>120</ele>
        <time>2020-08-04T15:42:02.000Z</time>
      </trkpt>
      <trkpt lat="48.50318" lon="2.13701">
        <ele>121.80000305176</ele>
        <time>2020-08-04T15:42:09.000Z</time>
      </trkpt>
      <trkpt lat="48.50321" lon="2.13732">
        <ele>123.19999694824</ele>
        <time>2020-08-04T15:42:16.000Z</time>
      </trkpt>
      <trkpt lat="48.50324" lon="2.13762">
        <ele>124.80000305176</ele>
        <time>2020-08-04T15:42:23.000Z</time>
      </trkpt>
      <trkpt lat="48.50325" lon="2.13788">
        <ele>126.59999847412</ele>
        <time>2020-08-04T15:42:29.000Z</time>
      </trkpt>
      <trkpt lat="48.50327" lon="2.13808">
        <ele>128</ele>
        <time>2020-08-04T15:42:34.000Z</time>
      </trkpt>
      <trkpt lat="48.50328" lon="2.13823">
        <ele>129.39999389648</ele>
        <time>2020-08-04T15:42:40.000Z</time>
      </trkpt>
      <trkpt lat="48.50328" lon="2.13828">
        <ele>130</ele>
        <time>2020-08-04T15:42:41.000Z</time>
      </trkpt>
      <trkpt lat="48.50326" lon="2.13846">
        <ele>131.19999694824</ele>
        <time>2020-08-04T15:42:46.000Z</time>
      </trkpt>
      <trkpt lat="48.50325" lon="2.13849">
        <ele>131.39999389648</ele>
        <time>2020-08-04T15:42:47.000Z</time>
      </trkpt>
      <trkpt lat="48.50325" lon="2.13852">
        <ele>131.60000610352</ele>
        <time>2020-08-04T15:42:48.000Z</time>
      </trkpt>
      <trkpt lat="48.50324" lon="2.13863">
        <ele>132.39999389648</ele>
        <time>2020-08-04T15:42:52.000Z</time>
      </trkpt>
      <trkpt lat="48.50324" lon="2.13866">
        <ele>132.39999389648</ele>
        <time>2020-08-04T15:42:53.000Z</time>
      </trkpt>
      <trkpt lat="48.50321" lon="2.13876">
        <ele>133.39999389648</ele>
        <time>2020-08-04T15:42:57.000Z</time>
      </trkpt>
      <trkpt lat="48.50314" lon="2.1389">
        <ele>135</ele>
        <time>2020-08-04T15:43:02.000Z</time>
      </trkpt>
      <trkpt lat="48.50308" lon="2.13904">
        <ele>136.60000610352</ele>
        <time>2020-08-04T15:43:07.000Z</time>
      </trkpt>
      <trkpt lat="48.503" lon="2.13923">
        <ele>137.60000610352</ele>
        <time>2020-08-04T15:43:15.000Z</time>
      </trkpt>
      <trkpt lat="48.50287" lon="2.13945">
        <ele>139</ele>
        <time>2020-08-04T15:43:24.000Z</time>
      </trkpt>
      <trkpt lat="48.50274" lon="2.13968">
        <ele>141.39999389648</ele>
        <time>2020-08-04T15:43:32.000Z</time>
      </trkpt>
      <trkpt lat="48.50262" lon="2.13982">
        <ele>143</ele>
        <time>2020-08-04T15:43:39.000Z</time>
      </trkpt>
      <trkpt lat="48.50252" lon="2.13999">
        <ele>143.80000305176</ele>
        <time>2020-08-04T15:43:46.000Z</time>
      </trkpt>
      <trkpt lat="48.50238" lon="2.14022">
        <ele>144.80000305176</ele>
        <time>2020-08-04T15:43:55.000Z</time>
      </trkpt>
      <trkpt lat="48.50224" lon="2.14043">
        <ele>145.60000610352</ele>
        <time>2020-08-04T15:44:03.000Z</time>
      </trkpt>
      <trkpt lat="48.50213" lon="2.14054">
        <ele>146.19999694824</ele>
        <time>2020-08-04T15:44:09.000Z</time>
      </trkpt>
      <trkpt lat="48.50211" lon="2.14053">
        <ele>146.39999389648</ele>
        <time>2020-08-04T15:44:10.000Z</time>
      </trkpt>
      <trkpt lat="48.50198" lon="2.14038">
        <ele>147.19999694824</ele>
        <time>2020-08-04T15:44:17.000Z</time>
      </trkpt>
      <trkpt lat="48.50194" lon="2.14043">
        <ele>147.39999389648</ele>
        <time>2020-08-04T15:44:20.000Z</time>
      </trkpt>
      <trkpt lat="48.502" lon="2.14064">
        <ele>147</ele>
        <time>2020-08-04T15:44:25.000Z</time>
      </trkpt>
      <trkpt lat="48.50207" lon="2.14093">
        <ele>146.80000305176</ele>
        <time>2020-08-04T15:44:31.000Z</time>
      </trkpt>
      <trkpt lat="48.50216" lon="2.14136">
        <ele>146.80000305176</ele>
        <time>2020-08-04T15:44:38.000Z</time>
      </trkpt>
      <trkpt lat="48.50225" lon="2.14178">
        <ele>147</ele>
        <time>2020-08-04T15:44:45.000Z</time>
      </trkpt>
      <trkpt lat="48.50236" lon="2.14233">
        <ele>147.19999694824</ele>
        <time>2020-08-04T15:44:54.000Z</time>
      </trkpt>
      <trkpt lat="48.50237" lon="2.1424">
        <ele>147</ele>
        <time>2020-08-04T15:44:55.000Z</time>
      </trkpt>
      <trkpt lat="48.50248" lon="2.14283">
        <ele>147.60000610352</ele>
        <time>2020-08-04T15:45:02.000Z</time>
      </trkpt>
      <trkpt lat="48.50266" lon="2.14345">
        <ele>148</ele>
        <time>2020-08-04T15:45:12.000Z</time>
      </trkpt>
      <trkpt lat="48.50286" lon="2.14401">
        <ele>146.80000305176</ele>
        <time>2020-08-04T15:45:21.000Z</time>
      </trkpt>
      <trkpt lat="48.50302" lon="2.14444">
        <ele>146.60000610352</ele>
        <time>2020-08-04T15:45:28.000Z</time>
      </trkpt>
      <trkpt lat="48.50325" lon="2.14508">
        <ele>146.80000305176</ele>
        <time>2020-08-04T15:45:37.000Z</time>
      </trkpt>
      <trkpt lat="48.50335" lon="2.14533">
        <ele>147.19999694824</ele>
        <time>2020-08-04T15:45:41.000Z</time>
      </trkpt>
      <trkpt lat="48.50342" lon="2.14544">
        <ele>147.19999694824</ele>
        <time>2020-08-04T15:45:43.000Z</time>
      </trkpt>
      <trkpt lat="48.50346" lon="2.14548">
        <ele>147.19999694824</ele>
        <time>2020-08-04T15:45:44.000Z</time>
      </trkpt>
      <trkpt lat="48.50355" lon="2.14555">
        <ele>147.19999694824</ele>
        <time>2020-08-04T15:45:46.000Z</time>
      </trkpt>
      <trkpt lat="48.50359" lon="2.14558">
        <ele>147.39999389648</ele>
        <time>2020-08-04T15:45:47.000Z</time>
      </trkpt>
      <trkpt lat="48.50363" lon="2.1456">
        <ele>147.60000610352</ele>
        <time>2020-08-04T15:45:48.000Z</time>
      </trkpt>
      <trkpt lat="48.50384" lon="2.14578">
        <ele>148.39999389648</ele>
        <time>2020-08-04T15:45:53.000Z</time>
      </trkpt>
      <trkpt lat="48.50401" lon="2.14597">
        <ele>148.39999389648</ele>
        <time>2020-08-04T15:45:58.000Z</time>
      </trkpt>
      <trkpt lat="48.50428" lon="2.14633">
        <ele>148.19999694824</ele>
        <time>2020-08-04T15:46:06.000Z</time>
      </trkpt>
      <trkpt lat="48.50435" lon="2.14641">
        <ele>148.19999694824</ele>
        <time>2020-08-04T15:46:08.000Z</time>
      </trkpt>
      <trkpt lat="48.5045" lon="2.14657">
        <ele>147.80000305176</ele>
        <time>2020-08-04T15:46:12.000Z</time>
      </trkpt>
      <trkpt lat="48.50477" lon="2.14689">
        <ele>147.80000305176</ele>
        <time>2020-08-04T15:46:19.000Z</time>
      </trkpt>
      <trkpt lat="48.50507" lon="2.14722">
        <ele>147.80000305176</ele>
        <time>2020-08-04T15:46:27.000Z</time>
      </trkpt>
      <trkpt lat="48.50533" lon="2.14751">
        <ele>148</ele>
        <time>2020-08-04T15:46:34.000Z</time>
      </trkpt>
      <trkpt lat="48.50558" lon="2.14779">
        <ele>148.60000610352</ele>
        <time>2020-08-04T15:46:41.000Z</time>
      </trkpt>
      <trkpt lat="48.5058" lon="2.14804">
        <ele>149.39999389648</ele>
        <time>2020-08-04T15:46:48.000Z</time>
      </trkpt>
      <trkpt lat="48.50602" lon="2.14828">
        <ele>150</ele>
        <time>2020-08-04T15:46:54.000Z</time>
      </trkpt>
      <trkpt lat="48.50618" lon="2.14845">
        <ele>149.39999389648</ele>
        <time>2020-08-04T15:46:58.000Z</time>
      </trkpt>
      <trkpt lat="48.50638" lon="2.14864">
        <ele>148.60000610352</ele>
        <time>2020-08-04T15:47:03.000Z</time>
      </trkpt>
      <trkpt lat="48.50645" lon="2.1487">
        <ele>148.39999389648</ele>
        <time>2020-08-04T15:47:05.000Z</time>
      </trkpt>
      <trkpt lat="48.50666" lon="2.14879">
        <ele>147.39999389648</ele>
        <time>2020-08-04T15:47:10.000Z</time>
      </trkpt>
      <trkpt lat="48.5067" lon="2.14879">
        <ele>147.19999694824</ele>
        <time>2020-08-04T15:47:11.000Z</time>
      </trkpt>
      <trkpt lat="48.50674" lon="2.1488">
        <ele>147</ele>
        <time>2020-08-04T15:47:12.000Z</time>
      </trkpt>
      <trkpt lat="48.50682" lon="2.14885">
        <ele>146.80000305176</ele>
        <time>2020-08-04T15:47:14.000Z</time>
      </trkpt>
      <trkpt lat="48.50684" lon="2.1489">
        <ele>146.80000305176</ele>
        <time>2020-08-04T15:47:15.000Z</time>
      </trkpt>
      <trkpt lat="48.50686" lon="2.14896">
        <ele>146.80000305176</ele>
        <time>2020-08-04T15:47:16.000Z</time>
      </trkpt>
      <trkpt lat="48.50695" lon="2.14927">
        <ele>146.80000305176</ele>
        <time>2020-08-04T15:47:21.000Z</time>
      </trkpt>
      <trkpt lat="48.50706" lon="2.14964">
        <ele>146.80000305176</ele>
        <time>2020-08-04T15:47:27.000Z</time>
      </trkpt>
      <trkpt lat="48.50718" lon="2.15">
        <ele>146.80000305176</ele>
        <time>2020-08-04T15:47:33.000Z</time>
      </trkpt>
      <trkpt lat="48.50732" lon="2.15051">
        <ele>146.39999389648</ele>
        <time>2020-08-04T15:47:41.000Z</time>
      </trkpt>
      <trkpt lat="48.50734" lon="2.15067">
        <ele>146.39999389648</ele>
        <time>2020-08-04T15:47:44.000Z</time>
      </trkpt>
      <trkpt lat="48.50734" lon="2.1507">
        <ele>146.39999389648</ele>
        <time>2020-08-04T15:47:45.000Z</time>
      </trkpt>
      <trkpt lat="48.50723" lon="2.15079">
        <ele>147.19999694824</ele>
        <time>2020-08-04T15:47:49.000Z</time>
      </trkpt>
      <trkpt lat="48.50711" lon="2.15081">
        <ele>147.80000305176</ele>
        <time>2020-08-04T15:47:52.000Z</time>
      </trkpt>
      <trkpt lat="48.50702" lon="2.15083">
        <ele>148.19999694824</ele>
        <time>2020-08-04T15:47:54.000Z</time>
      </trkpt>
      <trkpt lat="48.50672" lon="2.15093">
        <ele>149</ele>
        <time>2020-08-04T15:48:01.000Z</time>
      </trkpt>
      <trkpt lat="48.50634" lon="2.15103">
        <ele>149.60000610352</ele>
        <time>2020-08-04T15:48:10.000Z</time>
      </trkpt>
      <trkpt lat="48.50611" lon="2.15111">
        <ele>150.19999694824</ele>
        <time>2020-08-04T15:48:16.000Z</time>
      </trkpt>
      <trkpt lat="48.50583" lon="2.15122">
        <ele>150.60000610352</ele>
        <time>2020-08-04T15:48:23.000Z</time>
      </trkpt>
      <trkpt lat="48.50555" lon="2.1513">
        <ele>151</ele>
        <time>2020-08-04T15:48:30.000Z</time>
      </trkpt>
      <trkpt lat="48.50527" lon="2.15141">
        <ele>151.80000305176</ele>
        <time>2020-08-04T15:48:37.000Z</time>
      </trkpt>
      <trkpt lat="48.50491" lon="2.15145">
        <ele>152</ele>
        <time>2020-08-04T15:48:45.000Z</time>
      </trkpt>
      <trkpt lat="48.50458" lon="2.15144">
        <ele>152</ele>
        <time>2020-08-04T15:48:52.000Z</time>
      </trkpt>
      <trkpt lat="48.5042" lon="2.15141">
        <ele>152</ele>
        <time>2020-08-04T15:49:00.000Z</time>
      </trkpt>
      <trkpt lat="48.50378" lon="2.15134">
        <ele>152.39999389648</ele>
        <time>2020-08-04T15:49:09.000Z</time>
      </trkpt>
      <trkpt lat="48.5034" lon="2.15129">
        <ele>152.80000305176</ele>
        <time>2020-08-04T15:49:17.000Z</time>
      </trkpt>
      <trkpt lat="48.50297" lon="2.15123">
        <ele>153</ele>
        <time>2020-08-04T15:49:26.000Z</time>
      </trkpt>
      <trkpt lat="48.50253" lon="2.15121">
        <ele>153</ele>
        <time>2020-08-04T15:49:35.000Z</time>
      </trkpt>
      <trkpt lat="48.50216" lon="2.15129">
        <ele>153.39999389648</ele>
        <time>2020-08-04T15:49:43.000Z</time>
      </trkpt>
      <trkpt lat="48.50197" lon="2.15136">
        <ele>154</ele>
        <time>2020-08-04T15:49:47.000Z</time>
      </trkpt>
      <trkpt lat="48.50188" lon="2.15142">
        <ele>154.39999389648</ele>
        <time>2020-08-04T15:49:49.000Z</time>
      </trkpt>
      <trkpt lat="48.5015" lon="2.15161">
        <ele>155.39999389648</ele>
        <time>2020-08-04T15:49:57.000Z</time>
      </trkpt>
      <trkpt lat="48.50099" lon="2.15186">
        <ele>155.60000610352</ele>
        <time>2020-08-04T15:50:07.000Z</time>
      </trkpt>
      <trkpt lat="48.50064" lon="2.15199">
        <ele>155.19999694824</ele>
        <time>2020-08-04T15:50:14.000Z</time>
      </trkpt>
      <trkpt lat="48.50016" lon="2.15211">
        <ele>154.39999389648</ele>
        <time>2020-08-04T15:50:23.000Z</time>
      </trkpt>
      <trkpt lat="48.49968" lon="2.15218">
        <ele>153.80000305176</ele>
        <time>2020-08-04T15:50:32.000Z</time>
      </trkpt>
      <trkpt lat="48.4994" lon="2.15223">
        <ele>153.39999389648</ele>
        <time>2020-08-04T15:50:38.000Z</time>
      </trkpt>
      <trkpt lat="48.49905" lon="2.15227">
        <ele>153.19999694824</ele>
        <time>2020-08-04T15:50:45.000Z</time>
      </trkpt>
      <trkpt lat="48.49895" lon="2.15228">
        <ele>153.19999694824</ele>
        <time>2020-08-04T15:50:47.000Z</time>
      </trkpt>
      <trkpt lat="48.49885" lon="2.15229">
        <ele>153.19999694824</ele>
        <time>2020-08-04T15:50:49.000Z</time>
      </trkpt>
      <trkpt lat="48.49875" lon="2.15231">
        <ele>153.19999694824</ele>
        <time>2020-08-04T15:50:51.000Z</time>
      </trkpt>
      <trkpt lat="48.49828" lon="2.15236">
        <ele>153</ele>
        <time>2020-08-04T15:51:00.000Z</time>
      </trkpt>
      <trkpt lat="48.49794" lon="2.15237">
        <ele>152.39999389648</ele>
        <time>2020-08-04T15:51:07.000Z</time>
      </trkpt>
      <trkpt lat="48.49789" lon="2.15238">
        <ele>152.39999389648</ele>
        <time>2020-08-04T15:51:08.000Z</time>
      </trkpt>
      <trkpt lat="48.49774" lon="2.1524">
        <ele>152.19999694824</ele>
        <time>2020-08-04T15:51:11.000Z</time>
      </trkpt>
      <trkpt lat="48.4977" lon="2.15242">
        <ele>152</ele>
        <time>2020-08-04T15:51:12.000Z</time>
      </trkpt>
      <trkpt lat="48.49747" lon="2.15255">
        <ele>152</ele>
        <time>2020-08-04T15:51:18.000Z</time>
      </trkpt>
      <trkpt lat="48.49745" lon="2.15259">
        <ele>152</ele>
        <time>2020-08-04T15:51:19.000Z</time>
      </trkpt>
      <trkpt lat="48.49743" lon="2.15271">
        <ele>152</ele>
        <time>2020-08-04T15:51:21.000Z</time>
      </trkpt>
      <trkpt lat="48.49739" lon="2.15294">
        <ele>152</ele>
        <time>2020-08-04T15:51:24.000Z</time>
      </trkpt>
      <trkpt lat="48.49733" lon="2.15315">
        <ele>152</ele>
        <time>2020-08-04T15:51:27.000Z</time>
      </trkpt>
      <trkpt lat="48.49729" lon="2.15329">
        <ele>152</ele>
        <time>2020-08-04T15:51:29.000Z</time>
      </trkpt>
      <trkpt lat="48.49719" lon="2.15347">
        <ele>152</ele>
        <time>2020-08-04T15:51:32.000Z</time>
      </trkpt>
      <trkpt lat="48.49715" lon="2.15352">
        <ele>152</ele>
        <time>2020-08-04T15:51:33.000Z</time>
      </trkpt>
      <trkpt lat="48.49675" lon="2.15397">
        <ele>152</ele>
        <time>2020-08-04T15:51:42.000Z</time>
      </trkpt>
      <trkpt lat="48.49646" lon="2.1543">
        <ele>152</ele>
        <time>2020-08-04T15:51:48.000Z</time>
      </trkpt>
      <trkpt lat="48.49612" lon="2.15468">
        <ele>151.39999389648</ele>
        <time>2020-08-04T15:51:55.000Z</time>
      </trkpt>
      <trkpt lat="48.49571" lon="2.15513">
        <ele>150</ele>
        <time>2020-08-04T15:52:03.000Z</time>
      </trkpt>
      <trkpt lat="48.49529" lon="2.15559">
        <ele>149.19999694824</ele>
        <time>2020-08-04T15:52:11.000Z</time>
      </trkpt>
      <trkpt lat="48.49482" lon="2.15611">
        <ele>148.19999694824</ele>
        <time>2020-08-04T15:52:20.000Z</time>
      </trkpt>
      <trkpt lat="48.49478" lon="2.15617">
        <ele>148</ele>
        <time>2020-08-04T15:52:21.000Z</time>
      </trkpt>
      <trkpt lat="48.49447" lon="2.15664">
        <ele>147</ele>
        <time>2020-08-04T15:52:28.000Z</time>
      </trkpt>
      <trkpt lat="48.49424" lon="2.15723">
        <ele>147</ele>
        <time>2020-08-04T15:52:35.000Z</time>
      </trkpt>
      <trkpt lat="48.49394" lon="2.15796">
        <ele>145.80000305176</ele>
        <time>2020-08-04T15:52:44.000Z</time>
      </trkpt>
      <trkpt lat="48.49369" lon="2.15859">
        <ele>145.80000305176</ele>
        <time>2020-08-04T15:52:52.000Z</time>
      </trkpt>
      <trkpt lat="48.49339" lon="2.15932">
        <ele>144.39999389648</ele>
        <time>2020-08-04T15:53:01.000Z</time>
      </trkpt>
      <trkpt lat="48.49336" lon="2.1594">
        <ele>144.19999694824</ele>
        <time>2020-08-04T15:53:02.000Z</time>
      </trkpt>
      <trkpt lat="48.49313" lon="2.15999">
        <ele>143.19999694824</ele>
        <time>2020-08-04T15:53:09.000Z</time>
      </trkpt>
      <trkpt lat="48.49292" lon="2.16052">
        <ele>142.80000305176</ele>
        <time>2020-08-04T15:53:15.000Z</time>
      </trkpt>
      <trkpt lat="48.49264" lon="2.16095">
        <ele>142.80000305176</ele>
        <time>2020-08-04T15:53:20.000Z</time>
      </trkpt>
      <trkpt lat="48.49231" lon="2.1615">
        <ele>143.60000610352</ele>
        <time>2020-08-04T15:53:26.000Z</time>
      </trkpt>
      <trkpt lat="48.49228" lon="2.16159">
        <ele>143.80000305176</ele>
        <time>2020-08-04T15:53:27.000Z</time>
      </trkpt>
      <trkpt lat="48.49225" lon="2.16179">
        <ele>143.60000610352</ele>
        <time>2020-08-04T15:53:29.000Z</time>
      </trkpt>
      <trkpt lat="48.49217" lon="2.16227">
        <ele>143.39999389648</ele>
        <time>2020-08-04T15:53:35.000Z</time>
      </trkpt>
      <trkpt lat="48.49206" lon="2.16285">
        <ele>144</ele>
        <time>2020-08-04T15:53:43.000Z</time>
      </trkpt>
      <trkpt lat="48.49202" lon="2.16299">
        <ele>143.80000305176</ele>
        <time>2020-08-04T15:53:45.000Z</time>
      </trkpt>
      <trkpt lat="48.49194" lon="2.16309">
        <ele>144</ele>
        <time>2020-08-04T15:53:47.000Z</time>
      </trkpt>
      <trkpt lat="48.49169" lon="2.16322">
        <ele>144.39999389648</ele>
        <time>2020-08-04T15:53:52.000Z</time>
      </trkpt>
      <trkpt lat="48.49137" lon="2.16335">
        <ele>144.39999389648</ele>
        <time>2020-08-04T15:53:58.000Z</time>
      </trkpt>
      <trkpt lat="48.49127" lon="2.1634">
        <ele>144.60000610352</ele>
        <time>2020-08-04T15:54:00.000Z</time>
      </trkpt>
      <trkpt lat="48.49092" lon="2.16362">
        <ele>144.60000610352</ele>
        <time>2020-08-04T15:54:07.000Z</time>
      </trkpt>
      <trkpt lat="48.49071" lon="2.16392">
        <ele>144</ele>
        <time>2020-08-04T15:54:12.000Z</time>
      </trkpt>
      <trkpt lat="48.49041" lon="2.16452">
        <ele>142.39999389648</ele>
        <time>2020-08-04T15:54:20.000Z</time>
      </trkpt>
      <trkpt lat="48.49024" lon="2.1648">
        <ele>141.39999389648</ele>
        <time>2020-08-04T15:54:24.000Z</time>
      </trkpt>
      <trkpt lat="48.49014" lon="2.16491">
        <ele>141</ele>
        <time>2020-08-04T15:54:26.000Z</time>
      </trkpt>
      <trkpt lat="48.48985" lon="2.1652">
        <ele>139.60000610352</ele>
        <time>2020-08-04T15:54:32.000Z</time>
      </trkpt>
      <trkpt lat="48.48979" lon="2.1652">
        <ele>139.39999389648</ele>
        <time>2020-08-04T15:54:35.000Z</time>
      </trkpt>
      <trkpt lat="48.48969" lon="2.16508">
        <ele>139.19999694824</ele>
        <time>2020-08-04T15:54:40.000Z</time>
      </trkpt>
      <trkpt lat="48.48954" lon="2.16486">
        <ele>139</ele>
        <time>2020-08-04T15:54:45.000Z</time>
      </trkpt>
      <trkpt lat="48.48925" lon="2.16441">
        <ele>139.60000610352</ele>
        <time>2020-08-04T15:54:53.000Z</time>
      </trkpt>
      <trkpt lat="48.48891" lon="2.16389">
        <ele>139.39999389648</ele>
        <time>2020-08-04T15:55:02.000Z</time>
      </trkpt>
      <trkpt lat="48.48857" lon="2.16339">
        <ele>139</ele>
        <time>2020-08-04T15:55:10.000Z</time>
      </trkpt>
      <trkpt lat="48.48822" lon="2.16281">
        <ele>140.19999694824</ele>
        <time>2020-08-04T15:55:19.000Z</time>
      </trkpt>
      <trkpt lat="48.48799" lon="2.16232">
        <ele>141.39999389648</ele>
        <time>2020-08-04T15:55:27.000Z</time>
      </trkpt>
      <trkpt lat="48.48786" lon="2.16203">
        <ele>141.19999694824</ele>
        <time>2020-08-04T15:55:33.000Z</time>
      </trkpt>
      <trkpt lat="48.48767" lon="2.16159">
        <ele>141</ele>
        <time>2020-08-04T15:55:40.000Z</time>
      </trkpt>
      <trkpt lat="48.48741" lon="2.16112">
        <ele>141.19999694824</ele>
        <time>2020-08-04T15:55:48.000Z</time>
      </trkpt>
      <trkpt lat="48.48725" lon="2.16081">
        <ele>141.39999389648</ele>
        <time>2020-08-04T15:55:54.000Z</time>
      </trkpt>
      <trkpt lat="48.48712" lon="2.16054">
        <ele>141</ele>
        <time>2020-08-04T15:56:00.000Z</time>
      </trkpt>
      <trkpt lat="48.48696" lon="2.16019">
        <ele>140.39999389648</ele>
        <time>2020-08-04T15:56:06.000Z</time>
      </trkpt>
      <trkpt lat="48.48683" lon="2.1598">
        <ele>140.19999694824</ele>
        <time>2020-08-04T15:56:12.000Z</time>
      </trkpt>
      <trkpt lat="48.48674" lon="2.15953">
        <ele>140.19999694824</ele>
        <time>2020-08-04T15:56:16.000Z</time>
      </trkpt>
      <trkpt lat="48.48668" lon="2.15945">
        <ele>140</ele>
        <time>2020-08-04T15:56:18.000Z</time>
      </trkpt>
      <trkpt lat="48.4866" lon="2.15944">
        <ele>139.80000305176</ele>
        <time>2020-08-04T15:56:20.000Z</time>
      </trkpt>
      <trkpt lat="48.48656" lon="2.15946">
        <ele>139.60000610352</ele>
        <time>2020-08-04T15:56:21.000Z</time>
      </trkpt>
      <trkpt lat="48.48621" lon="2.15956">
        <ele>138.19999694824</ele>
        <time>2020-08-04T15:56:28.000Z</time>
      </trkpt>
      <trkpt lat="48.48574" lon="2.15965">
        <ele>136.19999694824</ele>
        <time>2020-08-04T15:56:36.000Z</time>
      </trkpt>
      <trkpt lat="48.48525" lon="2.15969">
        <ele>134.39999389648</ele>
        <time>2020-08-04T15:56:44.000Z</time>
      </trkpt>
      <trkpt lat="48.4848" lon="2.15963">
        <ele>132</ele>
        <time>2020-08-04T15:56:51.000Z</time>
      </trkpt>
      <trkpt lat="48.48446" lon="2.15957">
        <ele>131.39999389648</ele>
        <time>2020-08-04T15:56:57.000Z</time>
      </trkpt>
      <trkpt lat="48.48414" lon="2.1595">
        <ele>129.39999389648</ele>
        <time>2020-08-04T15:57:02.000Z</time>
      </trkpt>
      <trkpt lat="48.48372" lon="2.15954">
        <ele>126.40000152588</ele>
        <time>2020-08-04T15:57:07.000Z</time>
      </trkpt>
      <trkpt lat="48.48344" lon="2.15959">
        <ele>124.80000305176</ele>
        <time>2020-08-04T15:57:11.000Z</time>
      </trkpt>
      <trkpt lat="48.48336" lon="2.15962">
        <ele>125</ele>
        <time>2020-08-04T15:57:13.000Z</time>
      </trkpt>
      <trkpt lat="48.48335" lon="2.15965">
        <ele>125.19999694824</ele>
        <time>2020-08-04T15:57:14.000Z</time>
      </trkpt>
      <trkpt lat="48.48334" lon="2.1597">
        <ele>125.40000152588</ele>
        <time>2020-08-04T15:57:15.000Z</time>
      </trkpt>
      <trkpt lat="48.48335" lon="2.15983">
        <ele>125.59999847412</ele>
        <time>2020-08-04T15:57:17.000Z</time>
      </trkpt>
      <trkpt lat="48.4834" lon="2.16043">
        <ele>127.19999694824</ele>
        <time>2020-08-04T15:57:24.000Z</time>
      </trkpt>
      <trkpt lat="48.48342" lon="2.16076">
        <ele>128.39999389648</ele>
        <time>2020-08-04T15:57:28.000Z</time>
      </trkpt>
      <trkpt lat="48.48343" lon="2.16083">
        <ele>128.39999389648</ele>
        <time>2020-08-04T15:57:29.000Z</time>
      </trkpt>
      <trkpt lat="48.48342" lon="2.1609">
        <ele>128.60000610352</ele>
        <time>2020-08-04T15:57:30.000Z</time>
      </trkpt>
      <trkpt lat="48.48339" lon="2.16095">
        <ele>128.39999389648</ele>
        <time>2020-08-04T15:57:31.000Z</time>
      </trkpt>
      <trkpt lat="48.48334" lon="2.16098">
        <ele>128</ele>
        <time>2020-08-04T15:57:32.000Z</time>
      </trkpt>
      <trkpt lat="48.48318" lon="2.16105">
        <ele>126.59999847412</ele>
        <time>2020-08-04T15:57:35.000Z</time>
      </trkpt>
      <trkpt lat="48.48278" lon="2.16121">
        <ele>124.19999694824</ele>
        <time>2020-08-04T15:57:42.000Z</time>
      </trkpt>
      <trkpt lat="48.48272" lon="2.16129">
        <ele>124.40000152588</ele>
        <time>2020-08-04T15:57:44.000Z</time>
      </trkpt>
      <trkpt lat="48.48272" lon="2.16134">
        <ele>124.80000305176</ele>
        <time>2020-08-04T15:57:45.000Z</time>
      </trkpt>
      <trkpt lat="48.48278" lon="2.16157">
        <ele>126.40000152588</ele>
        <time>2020-08-04T15:57:50.000Z</time>
      </trkpt>
      <trkpt lat="48.48287" lon="2.16197">
        <ele>128.19999694824</ele>
        <time>2020-08-04T15:57:57.000Z</time>
      </trkpt>
      <trkpt lat="48.48292" lon="2.16225">
        <ele>129.60000610352</ele>
        <time>2020-08-04T15:58:02.000Z</time>
      </trkpt>
      <trkpt lat="48.48302" lon="2.16273">
        <ele>130.19999694824</ele>
        <time>2020-08-04T15:58:09.000Z</time>
      </trkpt>
      <trkpt lat="48.48311" lon="2.16307">
        <ele>129.80000305176</ele>
        <time>2020-08-04T15:58:15.000Z</time>
      </trkpt>
      <trkpt lat="48.48323" lon="2.16358">
        <ele>129.39999389648</ele>
        <time>2020-08-04T15:58:23.000Z</time>
      </trkpt>
      <trkpt lat="48.48327" lon="2.16402">
        <ele>129.19999694824</ele>
        <time>2020-08-04T15:58:30.000Z</time>
      </trkpt>
      <trkpt lat="48.48327" lon="2.16416">
        <ele>129.39999389648</ele>
        <time>2020-08-04T15:58:32.000Z</time>
      </trkpt>
      <trkpt lat="48.48328" lon="2.16435">
        <ele>129.60000610352</ele>
        <time>2020-08-04T15:58:35.000Z</time>
      </trkpt>
      <trkpt lat="48.48332" lon="2.16472">
        <ele>130</ele>
        <time>2020-08-04T15:58:40.000Z</time>
      </trkpt>
      <trkpt lat="48.48335" lon="2.16507">
        <ele>131.80000305176</ele>
        <time>2020-08-04T15:58:45.000Z</time>
      </trkpt>
      <trkpt lat="48.48335" lon="2.16532">
        <ele>132.39999389648</ele>
        <time>2020-08-04T15:58:49.000Z</time>
      </trkpt>
      <trkpt lat="48.48335" lon="2.16543">
        <ele>132.60000610352</ele>
        <time>2020-08-04T15:58:52.000Z</time>
      </trkpt>
      <trkpt lat="48.48336" lon="2.16547">
        <ele>132.60000610352</ele>
        <time>2020-08-04T15:58:53.000Z</time>
      </trkpt>
      <trkpt lat="48.48339" lon="2.16556">
        <ele>132.60000610352</ele>
        <time>2020-08-04T15:58:56.000Z</time>
      </trkpt>
      <trkpt lat="48.48341" lon="2.16565">
        <ele>132.60000610352</ele>
        <time>2020-08-04T15:58:59.000Z</time>
      </trkpt>
      <trkpt lat="48.48342" lon="2.16569">
        <ele>132.60000610352</ele>
        <time>2020-08-04T15:59:00.000Z</time>
      </trkpt>
      <trkpt lat="48.48342" lon="2.16584">
        <ele>133</ele>
        <time>2020-08-04T15:59:05.000Z</time>
      </trkpt>
      <trkpt lat="48.48344" lon="2.166">
        <ele>133</ele>
        <time>2020-08-04T15:59:10.000Z</time>
      </trkpt>
      <trkpt lat="48.48345" lon="2.16603">
        <ele>132.80000305176</ele>
        <time>2020-08-04T15:59:11.000Z</time>
      </trkpt>
      <trkpt lat="48.48353" lon="2.16623">
        <ele>132.19999694824</ele>
        <time>2020-08-04T15:59:16.000Z</time>
      </trkpt>
      <trkpt lat="48.4836" lon="2.16645">
        <ele>131.60000610352</ele>
        <time>2020-08-04T15:59:22.000Z</time>
      </trkpt>
      <trkpt lat="48.48368" lon="2.16658">
        <ele>131</ele>
        <time>2020-08-04T15:59:27.000Z</time>
      </trkpt>
      <trkpt lat="48.48374" lon="2.16664">
        <ele>130.39999389648</ele>
        <time>2020-08-04T15:59:30.000Z</time>
      </trkpt>
      <trkpt lat="48.48379" lon="2.16667">
        <ele>130</ele>
        <time>2020-08-04T15:59:32.000Z</time>
      </trkpt>
      <trkpt lat="48.48388" lon="2.16672">
        <ele>129.19999694824</ele>
        <time>2020-08-04T15:59:36.000Z</time>
      </trkpt>
      <trkpt lat="48.48405" lon="2.16683">
        <ele>127.59999847412</ele>
        <time>2020-08-04T15:59:43.000Z</time>
      </trkpt>
      <trkpt lat="48.48408" lon="2.16685">
        <ele>127.40000152588</ele>
        <time>2020-08-04T15:59:44.000Z</time>
      </trkpt>
      <trkpt lat="48.48416" lon="2.16694">
        <ele>126.59999847412</ele>
        <time>2020-08-04T15:59:47.000Z</time>
      </trkpt>
      <trkpt lat="48.48422" lon="2.16706">
        <ele>126.19999694824</ele>
        <time>2020-08-04T15:59:52.000Z</time>
      </trkpt>
      <trkpt lat="48.48429" lon="2.16723">
        <ele>126</ele>
        <time>2020-08-04T15:59:57.000Z</time>
      </trkpt>
      <trkpt lat="48.48433" lon="2.16734">
        <ele>125.80000305176</ele>
        <time>2020-08-04T16:00:00.000Z</time>
      </trkpt>
      <trkpt lat="48.48434" lon="2.16742">
        <ele>125.80000305176</ele>
        <time>2020-08-04T16:00:02.000Z</time>
      </trkpt>
      <trkpt lat="48.48435" lon="2.16751">
        <ele>125.59999847412</ele>
        <time>2020-08-04T16:00:04.000Z</time>
      </trkpt>
      <trkpt lat="48.48435" lon="2.16761">
        <ele>125.80000305176</ele>
        <time>2020-08-04T16:00:06.000Z</time>
      </trkpt>
      <trkpt lat="48.48434" lon="2.16774">
        <ele>126.40000152588</ele>
        <time>2020-08-04T16:00:09.000Z</time>
      </trkpt>
      <trkpt lat="48.48433" lon="2.16784">
        <ele>127</ele>
        <time>2020-08-04T16:00:12.000Z</time>
      </trkpt>
      <trkpt lat="48.48432" lon="2.16793">
        <ele>127.19999694824</ele>
        <time>2020-08-04T16:00:15.000Z</time>
      </trkpt>
      <trkpt lat="48.48432" lon="2.16803">
        <ele>127.59999847412</ele>
        <time>2020-08-04T16:00:18.000Z</time>
      </trkpt>
      <trkpt lat="48.48432" lon="2.16805">
        <ele>127.59999847412</ele>
        <time>2020-08-04T16:00:19.000Z</time>
      </trkpt>
      <trkpt lat="48.48431" lon="2.16808">
        <ele>127.59999847412</ele>
        <time>2020-08-04T16:00:20.000Z</time>
      </trkpt>
      <trkpt lat="48.48425" lon="2.16821">
        <ele>128.60000610352</ele>
        <time>2020-08-04T16:00:23.000Z</time>
      </trkpt>
      <trkpt lat="48.48412" lon="2.16845">
        <ele>129.80000305176</ele>
        <time>2020-08-04T16:00:28.000Z</time>
      </trkpt>
      <trkpt lat="48.48397" lon="2.16871">
        <ele>131</ele>
        <time>2020-08-04T16:00:33.000Z</time>
      </trkpt>
      <trkpt lat="48.48395" lon="2.16876">
        <ele>131.19999694824</ele>
        <time>2020-08-04T16:00:34.000Z</time>
      </trkpt>
      <trkpt lat="48.48394" lon="2.16889">
        <ele>131.39999389648</ele>
        <time>2020-08-04T16:00:36.000Z</time>
      </trkpt>
      <trkpt lat="48.484" lon="2.16907">
        <ele>131</ele>
        <time>2020-08-04T16:00:40.000Z</time>
      </trkpt>
      <trkpt lat="48.48411" lon="2.16921">
        <ele>129.80000305176</ele>
        <time>2020-08-04T16:00:44.000Z</time>
      </trkpt>
      <trkpt lat="48.4842" lon="2.16936">
        <ele>128.80000305176</ele>
        <time>2020-08-04T16:00:48.000Z</time>
      </trkpt>
      <trkpt lat="48.48421" lon="2.16941">
        <ele>128.80000305176</ele>
        <time>2020-08-04T16:00:49.000Z</time>
      </trkpt>
      <trkpt lat="48.4842" lon="2.16957">
        <ele>129.19999694824</ele>
        <time>2020-08-04T16:00:52.000Z</time>
      </trkpt>
      <trkpt lat="48.4842" lon="2.16976">
        <ele>129.39999389648</ele>
        <time>2020-08-04T16:00:56.000Z</time>
      </trkpt>
      <trkpt lat="48.48428" lon="2.16993">
        <ele>128.39999389648</ele>
        <time>2020-08-04T16:01:00.000Z</time>
      </trkpt>
      <trkpt lat="48.48436" lon="2.16998">
        <ele>127.40000152588</ele>
        <time>2020-08-04T16:01:02.000Z</time>
      </trkpt>
      <trkpt lat="48.4844" lon="2.17">
        <ele>126.80000305176</ele>
        <time>2020-08-04T16:01:03.000Z</time>
      </trkpt>
      <trkpt lat="48.48446" lon="2.17011">
        <ele>126</ele>
        <time>2020-08-04T16:01:06.000Z</time>
      </trkpt>
      <trkpt lat="48.48446" lon="2.17014">
        <ele>126</ele>
        <time>2020-08-04T16:01:07.000Z</time>
      </trkpt>
      <trkpt lat="48.48445" lon="2.1703">
        <ele>126.59999847412</ele>
        <time>2020-08-04T16:01:13.000Z</time>
      </trkpt>
      <trkpt lat="48.48445" lon="2.17032">
        <ele>126.59999847412</ele>
        <time>2020-08-04T16:01:14.000Z</time>
      </trkpt>
      <trkpt lat="48.48444" lon="2.1704">
        <ele>127</ele>
        <time>2020-08-04T16:01:28.000Z</time>
      </trkpt>
      <trkpt lat="48.48441" lon="2.17046">
        <ele>127.80000305176</ele>
        <time>2020-08-04T16:01:30.000Z</time>
      </trkpt>
      <trkpt lat="48.48435" lon="2.17059">
        <ele>129.19999694824</ele>
        <time>2020-08-04T16:01:33.000Z</time>
      </trkpt>
      <trkpt lat="48.48434" lon="2.17065">
        <ele>129.39999389648</ele>
        <time>2020-08-04T16:01:34.000Z</time>
      </trkpt>
      <trkpt lat="48.48436" lon="2.17102">
        <ele>129.80000305176</ele>
        <time>2020-08-04T16:01:40.000Z</time>
      </trkpt>
      <trkpt lat="48.48447" lon="2.17111">
        <ele>128.60000610352</ele>
        <time>2020-08-04T16:01:43.000Z</time>
      </trkpt>
      <trkpt lat="48.48452" lon="2.17115">
        <ele>128</ele>
        <time>2020-08-04T16:01:44.000Z</time>
      </trkpt>
      <trkpt lat="48.48462" lon="2.1713">
        <ele>126.80000305176</ele>
        <time>2020-08-04T16:01:47.000Z</time>
      </trkpt>
      <trkpt lat="48.48466" lon="2.1715">
        <ele>126.40000152588</ele>
        <time>2020-08-04T16:01:51.000Z</time>
      </trkpt>
      <trkpt lat="48.48462" lon="2.17173">
        <ele>126.59999847412</ele>
        <time>2020-08-04T16:01:56.000Z</time>
      </trkpt>
      <trkpt lat="48.48456" lon="2.1719">
        <ele>126.80000305176</ele>
        <time>2020-08-04T16:02:00.000Z</time>
      </trkpt>
      <trkpt lat="48.4845" lon="2.17205">
        <ele>127.80000305176</ele>
        <time>2020-08-04T16:02:03.000Z</time>
      </trkpt>
      <trkpt lat="48.48441" lon="2.17222">
        <ele>129</ele>
        <time>2020-08-04T16:02:06.000Z</time>
      </trkpt>
      <trkpt lat="48.4844" lon="2.17234">
        <ele>129</ele>
        <time>2020-08-04T16:02:08.000Z</time>
      </trkpt>
      <trkpt lat="48.48441" lon="2.1724">
        <ele>128.80000305176</ele>
        <time>2020-08-04T16:02:09.000Z</time>
      </trkpt>
      <trkpt lat="48.48451" lon="2.17265">
        <ele>127.19999694824</ele>
        <time>2020-08-04T16:02:14.000Z</time>
      </trkpt>
      <trkpt lat="48.48458" lon="2.17299">
        <ele>126.40000152588</ele>
        <time>2020-08-04T16:02:19.000Z</time>
      </trkpt>
      <trkpt lat="48.4847" lon="2.17336">
        <ele>125.19999694824</ele>
        <time>2020-08-04T16:02:25.000Z</time>
      </trkpt>
      <trkpt lat="48.48468" lon="2.17351">
        <ele>126.40000152588</ele>
        <time>2020-08-04T16:02:28.000Z</time>
      </trkpt>
      <trkpt lat="48.48469" lon="2.17366">
        <ele>127.19999694824</ele>
        <time>2020-08-04T16:02:30.000Z</time>
      </trkpt>
      <trkpt lat="48.4847" lon="2.17372">
        <ele>127</ele>
        <time>2020-08-04T16:02:31.000Z</time>
      </trkpt>
      <trkpt lat="48.4847" lon="2.17383">
        <ele>126.80000305176</ele>
        <time>2020-08-04T16:02:34.000Z</time>
      </trkpt>
      <trkpt lat="48.48477" lon="2.17392">
        <ele>126</ele>
        <time>2020-08-04T16:02:39.000Z</time>
      </trkpt>
      <trkpt lat="48.48485" lon="2.17385">
        <ele>125.40000152588</ele>
        <time>2020-08-04T16:02:43.000Z</time>
      </trkpt>
      <trkpt lat="48.48495" lon="2.17381">
        <ele>123.80000305176</ele>
        <time>2020-08-04T16:02:47.000Z</time>
      </trkpt>
      <trkpt lat="48.48505" lon="2.17379">
        <ele>122</ele>
        <time>2020-08-04T16:02:51.000Z</time>
      </trkpt>
      <trkpt lat="48.48509" lon="2.17381">
        <ele>121.40000152588</ele>
        <time>2020-08-04T16:02:53.000Z</time>
      </trkpt>
      <trkpt lat="48.48512" lon="2.17387">
        <ele>121.40000152588</ele>
        <time>2020-08-04T16:02:55.000Z</time>
      </trkpt>
      <trkpt lat="48.48519" lon="2.17398">
        <ele>120.80000305176</ele>
        <time>2020-08-04T16:02:59.000Z</time>
      </trkpt>
      <trkpt lat="48.48531" lon="2.17414">
        <ele>119</ele>
        <time>2020-08-04T16:03:04.000Z</time>
      </trkpt>
      <trkpt lat="48.48538" lon="2.17438">
        <ele>117.59999847412</ele>
        <time>2020-08-04T16:03:10.000Z</time>
      </trkpt>
      <trkpt lat="48.48536" lon="2.17445">
        <ele>118.19999694824</ele>
        <time>2020-08-04T16:03:12.000Z</time>
      </trkpt>
      <trkpt lat="48.48534" lon="2.17448">
        <ele>118.80000305176</ele>
        <time>2020-08-04T16:03:13.000Z</time>
      </trkpt>
      <trkpt lat="48.48532" lon="2.17454">
        <ele>119.59999847412</ele>
        <time>2020-08-04T16:03:14.000Z</time>
      </trkpt>
      <trkpt lat="48.48531" lon="2.17466">
        <ele>120.40000152588</ele>
        <time>2020-08-04T16:03:16.000Z</time>
      </trkpt>
      <trkpt lat="48.48526" lon="2.1748">
        <ele>122</ele>
        <time>2020-08-04T16:03:20.000Z</time>
      </trkpt>
      <trkpt lat="48.48525" lon="2.17499">
        <ele>122.19999694824</ele>
        <time>2020-08-04T16:03:23.000Z</time>
      </trkpt>
      <trkpt lat="48.48527" lon="2.1751">
        <ele>120.80000305176</ele>
        <time>2020-08-04T16:03:25.000Z</time>
      </trkpt>
      <trkpt lat="48.48527" lon="2.17515">
        <ele>120.59999847412</ele>
        <time>2020-08-04T16:03:26.000Z</time>
      </trkpt>
      <trkpt lat="48.48525" lon="2.17525">
        <ele>120.40000152588</ele>
        <time>2020-08-04T16:03:28.000Z</time>
      </trkpt>
      <trkpt lat="48.48521" lon="2.17567">
        <ele>119.19999694824</ele>
        <time>2020-08-04T16:03:33.000Z</time>
      </trkpt>
      <trkpt lat="48.4852" lon="2.1761">
        <ele>117.40000152588</ele>
        <time>2020-08-04T16:03:37.000Z</time>
      </trkpt>
      <trkpt lat="48.48521" lon="2.17638">
        <ele>115.80000305176</ele>
        <time>2020-08-04T16:03:42.000Z</time>
      </trkpt>
      <trkpt lat="48.4852" lon="2.17642">
        <ele>115.59999847412</ele>
        <time>2020-08-04T16:03:43.000Z</time>
      </trkpt>
      <trkpt lat="48.48515" lon="2.17657">
        <ele>116.19999694824</ele>
        <time>2020-08-04T16:03:46.000Z</time>
      </trkpt>
      <trkpt lat="48.48498" lon="2.17682">
        <ele>114.19999694824</ele>
        <time>2020-08-04T16:03:51.000Z</time>
      </trkpt>
      <trkpt lat="48.48483" lon="2.17687">
        <ele>114</ele>
        <time>2020-08-04T16:03:55.000Z</time>
      </trkpt>
      <trkpt lat="48.48465" lon="2.1768">
        <ele>114.80000305176</ele>
        <time>2020-08-04T16:04:00.000Z</time>
      </trkpt>
      <trkpt lat="48.4845" lon="2.17663">
        <ele>116.59999847412</ele>
        <time>2020-08-04T16:04:05.000Z</time>
      </trkpt>
      <trkpt lat="48.48431" lon="2.17644">
        <ele>118.80000305176</ele>
        <time>2020-08-04T16:04:11.000Z</time>
      </trkpt>
      <trkpt lat="48.48414" lon="2.17624">
        <ele>121.40000152588</ele>
        <time>2020-08-04T16:04:16.000Z</time>
      </trkpt>
      <trkpt lat="48.48403" lon="2.17608">
        <ele>123.59999847412</ele>
        <time>2020-08-04T16:04:20.000Z</time>
      </trkpt>
      <trkpt lat="48.48388" lon="2.17603">
        <ele>124.80000305176</ele>
        <time>2020-08-04T16:04:24.000Z</time>
      </trkpt>
      <trkpt lat="48.48371" lon="2.17608">
        <ele>125.59999847412</ele>
        <time>2020-08-04T16:04:28.000Z</time>
      </trkpt>
      <trkpt lat="48.48362" lon="2.17616">
        <ele>126.40000152588</ele>
        <time>2020-08-04T16:04:30.000Z</time>
      </trkpt>
      <trkpt lat="48.48352" lon="2.17625">
        <ele>127</ele>
        <time>2020-08-04T16:04:33.000Z</time>
      </trkpt>
      <trkpt lat="48.48348" lon="2.17637">
        <ele>127</ele>
        <time>2020-08-04T16:04:37.000Z</time>
      </trkpt>
      <trkpt lat="48.48349" lon="2.17653">
        <ele>126.40000152588</ele>
        <time>2020-08-04T16:04:41.000Z</time>
      </trkpt>
      <trkpt lat="48.48349" lon="2.17674">
        <ele>125.59999847412</ele>
        <time>2020-08-04T16:04:45.000Z</time>
      </trkpt>
      <trkpt lat="48.48347" lon="2.17677">
        <ele>125.59999847412</ele>
        <time>2020-08-04T16:04:46.000Z</time>
      </trkpt>
      <trkpt lat="48.48343" lon="2.17684">
        <ele>125.80000305176</ele>
        <time>2020-08-04T16:04:48.000Z</time>
      </trkpt>
      <trkpt lat="48.48341" lon="2.17687">
        <ele>125.80000305176</ele>
        <time>2020-08-04T16:04:49.000Z</time>
      </trkpt>
      <trkpt lat="48.48334" lon="2.17713">
        <ele>125.40000152588</ele>
        <time>2020-08-04T16:04:54.000Z</time>
      </trkpt>
      <trkpt lat="48.48326" lon="2.17739">
        <ele>126.19999694824</ele>
        <time>2020-08-04T16:04:59.000Z</time>
      </trkpt>
      <trkpt lat="48.48323" lon="2.17743">
        <ele>126.59999847412</ele>
        <time>2020-08-04T16:05:00.000Z</time>
      </trkpt>
      <trkpt lat="48.48318" lon="2.17749">
        <ele>127</ele>
        <time>2020-08-04T16:05:02.000Z</time>
      </trkpt>
      <trkpt lat="48.48316" lon="2.1776">
        <ele>127</ele>
        <time>2020-08-04T16:05:04.000Z</time>
      </trkpt>
      <trkpt lat="48.48316" lon="2.17773">
        <ele>126.80000305176</ele>
        <time>2020-08-04T16:05:07.000Z</time>
      </trkpt>
      <trkpt lat="48.48318" lon="2.17779">
        <ele>126.40000152588</ele>
        <time>2020-08-04T16:05:09.000Z</time>
      </trkpt>
      <trkpt lat="48.48322" lon="2.17789">
        <ele>125.59999847412</ele>
        <time>2020-08-04T16:05:14.000Z</time>
      </trkpt>
      <trkpt lat="48.48327" lon="2.17802">
        <ele>124.59999847412</ele>
        <time>2020-08-04T16:06:18.000Z</time>
      </trkpt>
      <trkpt lat="48.48329" lon="2.17808">
        <ele>124.19999694824</ele>
        <time>2020-08-04T16:06:20.000Z</time>
      </trkpt>
      <trkpt lat="48.48331" lon="2.17811">
        <ele>124</ele>
        <time>2020-08-04T16:06:21.000Z</time>
      </trkpt>
      <trkpt lat="48.48332" lon="2.17832">
        <ele>124.19999694824</ele>
        <time>2020-08-04T16:06:27.000Z</time>
      </trkpt>
      <trkpt lat="48.48332" lon="2.1784">
        <ele>123.59999847412</ele>
        <time>2020-08-04T16:06:29.000Z</time>
      </trkpt>
      <trkpt lat="48.4833" lon="2.17846">
        <ele>123.80000305176</ele>
        <time>2020-08-04T16:06:31.000Z</time>
      </trkpt>
      <trkpt lat="48.48322" lon="2.17858">
        <ele>124.59999847412</ele>
        <time>2020-08-04T16:06:36.000Z</time>
      </trkpt>
      <trkpt lat="48.48318" lon="2.17861">
        <ele>125</ele>
        <time>2020-08-04T16:06:39.000Z</time>
      </trkpt>
      <trkpt lat="48.48314" lon="2.17867">
        <ele>125.40000152588</ele>
        <time>2020-08-04T16:06:41.000Z</time>
      </trkpt>
      <trkpt lat="48.48313" lon="2.17873">
        <ele>125.19999694824</ele>
        <time>2020-08-04T16:06:43.000Z</time>
      </trkpt>
      <trkpt lat="48.48303" lon="2.17904">
        <ele>125.80000305176</ele>
        <time>2020-08-04T16:06:49.000Z</time>
      </trkpt>
      <trkpt lat="48.48296" lon="2.1792">
        <ele>126</ele>
        <time>2020-08-04T16:06:54.000Z</time>
      </trkpt>
      <trkpt lat="48.48288" lon="2.17928">
        <ele>126.40000152588</ele>
        <time>2020-08-04T16:06:58.000Z</time>
      </trkpt>
      <trkpt lat="48.48283" lon="2.17933">
        <ele>127.40000152588</ele>
        <time>2020-08-04T16:07:01.000Z</time>
      </trkpt>
      <trkpt lat="48.48281" lon="2.17936">
        <ele>127.59999847412</ele>
        <time>2020-08-04T16:07:02.000Z</time>
      </trkpt>
      <trkpt lat="48.48276" lon="2.1795">
        <ele>128.19999694824</ele>
        <time>2020-08-04T16:07:06.000Z</time>
      </trkpt>
      <trkpt lat="48.48273" lon="2.17963">
        <ele>128</ele>
        <time>2020-08-04T16:07:11.000Z</time>
      </trkpt>
      <trkpt lat="48.48273" lon="2.17967">
        <ele>128</ele>
        <time>2020-08-04T16:07:12.000Z</time>
      </trkpt>
      <trkpt lat="48.4827" lon="2.17985">
        <ele>127.59999847412</ele>
        <time>2020-08-04T16:07:16.000Z</time>
      </trkpt>
      <trkpt lat="48.48267" lon="2.18007">
        <ele>127.59999847412</ele>
        <time>2020-08-04T16:07:21.000Z</time>
      </trkpt>
      <trkpt lat="48.48264" lon="2.18017">
        <ele>127.59999847412</ele>
        <time>2020-08-04T16:07:23.000Z</time>
      </trkpt>
      <trkpt lat="48.48263" lon="2.18027">
        <ele>127.59999847412</ele>
        <time>2020-08-04T16:07:25.000Z</time>
      </trkpt>
      <trkpt lat="48.48263" lon="2.18031">
        <ele>127.40000152588</ele>
        <time>2020-08-04T16:07:26.000Z</time>
      </trkpt>
      <trkpt lat="48.48253" lon="2.18058">
        <ele>127.59999847412</ele>
        <time>2020-08-04T16:07:30.000Z</time>
      </trkpt>
      <trkpt lat="48.48251" lon="2.18064">
        <ele>127.59999847412</ele>
        <time>2020-08-04T16:07:31.000Z</time>
      </trkpt>
      <trkpt lat="48.48248" lon="2.18079">
        <ele>128</ele>
        <time>2020-08-04T16:07:34.000Z</time>
      </trkpt>
      <trkpt lat="48.4825" lon="2.18086">
        <ele>127.59999847412</ele>
        <time>2020-08-04T16:07:36.000Z</time>
      </trkpt>
      <trkpt lat="48.48254" lon="2.18096">
        <ele>127.19999694824</ele>
        <time>2020-08-04T16:07:39.000Z</time>
      </trkpt>
      <trkpt lat="48.48257" lon="2.18102">
        <ele>126.80000305176</ele>
        <time>2020-08-04T16:07:41.000Z</time>
      </trkpt>
      <trkpt lat="48.48261" lon="2.18116">
        <ele>126.19999694824</ele>
        <time>2020-08-04T16:07:46.000Z</time>
      </trkpt>
      <trkpt lat="48.48263" lon="2.18126">
        <ele>125.80000305176</ele>
        <time>2020-08-04T16:07:49.000Z</time>
      </trkpt>
      <trkpt lat="48.48263" lon="2.18131">
        <ele>125.80000305176</ele>
        <time>2020-08-04T16:07:50.000Z</time>
      </trkpt>
      <trkpt lat="48.48262" lon="2.18134">
        <ele>125.80000305176</ele>
        <time>2020-08-04T16:07:51.000Z</time>
      </trkpt>
      <trkpt lat="48.48256" lon="2.18147">
        <ele>126.19999694824</ele>
        <time>2020-08-04T16:07:55.000Z</time>
      </trkpt>
      <trkpt lat="48.48253" lon="2.18162">
        <ele>127</ele>
        <time>2020-08-04T16:08:00.000Z</time>
      </trkpt>
      <trkpt lat="48.48253" lon="2.18168">
        <ele>127.19999694824</ele>
        <time>2020-08-04T16:08:02.000Z</time>
      </trkpt>
      <trkpt lat="48.48252" lon="2.18176">
        <ele>127.40000152588</ele>
        <time>2020-08-04T16:08:05.000Z</time>
      </trkpt>
      <trkpt lat="48.48254" lon="2.18203">
        <ele>127.40000152588</ele>
        <time>2020-08-04T16:08:11.000Z</time>
      </trkpt>
      <trkpt lat="48.48256" lon="2.18219">
        <ele>127.19999694824</ele>
        <time>2020-08-04T16:08:15.000Z</time>
      </trkpt>
      <trkpt lat="48.48257" lon="2.18237">
        <ele>127.19999694824</ele>
        <time>2020-08-04T16:08:20.000Z</time>
      </trkpt>
      <trkpt lat="48.48257" lon="2.18242">
        <ele>127</ele>
        <time>2020-08-04T16:08:23.000Z</time>
      </trkpt>
      <trkpt lat="48.48255" lon="2.18255">
        <ele>127.40000152588</ele>
        <time>2020-08-04T16:08:33.000Z</time>
      </trkpt>
      <trkpt lat="48.48255" lon="2.18274">
        <ele>128.19999694824</ele>
        <time>2020-08-04T16:08:36.000Z</time>
      </trkpt>
      <trkpt lat="48.48257" lon="2.1829">
        <ele>128.60000610352</ele>
        <time>2020-08-04T16:08:39.000Z</time>
      </trkpt>
      <trkpt lat="48.48258" lon="2.18293">
        <ele>128.60000610352</ele>
        <time>2020-08-04T16:08:40.000Z</time>
      </trkpt>
      <trkpt lat="48.48263" lon="2.18304">
        <ele>128.39999389648</ele>
        <time>2020-08-04T16:08:43.000Z</time>
      </trkpt>
      <trkpt lat="48.48266" lon="2.18314">
        <ele>128.60000610352</ele>
        <time>2020-08-04T16:08:45.000Z</time>
      </trkpt>
      <trkpt lat="48.48273" lon="2.18325">
        <ele>127.59999847412</ele>
        <time>2020-08-04T16:08:48.000Z</time>
      </trkpt>
      <trkpt lat="48.48277" lon="2.18328">
        <ele>127</ele>
        <time>2020-08-04T16:08:49.000Z</time>
      </trkpt>
      <trkpt lat="48.48285" lon="2.18335">
        <ele>125.80000305176</ele>
        <time>2020-08-04T16:08:51.000Z</time>
      </trkpt>
      <trkpt lat="48.48287" lon="2.18339">
        <ele>125.40000152588</ele>
        <time>2020-08-04T16:08:52.000Z</time>
      </trkpt>
      <trkpt lat="48.48295" lon="2.18359">
        <ele>124.19999694824</ele>
        <time>2020-08-04T16:08:57.000Z</time>
      </trkpt>
      <trkpt lat="48.48298" lon="2.18368">
        <ele>124</ele>
        <time>2020-08-04T16:08:59.000Z</time>
      </trkpt>
      <trkpt lat="48.483" lon="2.18378">
        <ele>124.19999694824</ele>
        <time>2020-08-04T16:09:01.000Z</time>
      </trkpt>
      <trkpt lat="48.48302" lon="2.18401">
        <ele>124.80000305176</ele>
        <time>2020-08-04T16:09:05.000Z</time>
      </trkpt>
      <trkpt lat="48.48302" lon="2.18427">
        <ele>124.59999847412</ele>
        <time>2020-08-04T16:09:09.000Z</time>
      </trkpt>
      <trkpt lat="48.48294" lon="2.18454">
        <ele>125.19999694824</ele>
        <time>2020-08-04T16:09:14.000Z</time>
      </trkpt>
      <trkpt lat="48.48291" lon="2.18462">
        <ele>125.59999847412</ele>
        <time>2020-08-04T16:09:16.000Z</time>
      </trkpt>
      <trkpt lat="48.48285" lon="2.18475">
        <ele>126.59999847412</ele>
        <time>2020-08-04T16:09:19.000Z</time>
      </trkpt>
      <trkpt lat="48.48277" lon="2.18504">
        <ele>126.59999847412</ele>
        <time>2020-08-04T16:09:24.000Z</time>
      </trkpt>
      <trkpt lat="48.48281" lon="2.18527">
        <ele>123.40000152588</ele>
        <time>2020-08-04T16:09:28.000Z</time>
      </trkpt>
      <trkpt lat="48.48288" lon="2.18548">
        <ele>119.80000305176</ele>
        <time>2020-08-04T16:09:32.000Z</time>
      </trkpt>
      <trkpt lat="48.48287" lon="2.18555">
        <ele>119.19999694824</ele>
        <time>2020-08-04T16:09:34.000Z</time>
      </trkpt>
      <trkpt lat="48.48283" lon="2.18559">
        <ele>119.40000152588</ele>
        <time>2020-08-04T16:09:36.000Z</time>
      </trkpt>
      <trkpt lat="48.48269" lon="2.18561">
        <ele>122.19999694824</ele>
        <time>2020-08-04T16:09:41.000Z</time>
      </trkpt>
      <trkpt lat="48.48264" lon="2.18559">
        <ele>123</ele>
        <time>2020-08-04T16:09:43.000Z</time>
      </trkpt>
      <trkpt lat="48.4826" lon="2.18558">
        <ele>123.19999694824</ele>
        <time>2020-08-04T16:09:45.000Z</time>
      </trkpt>
      <trkpt lat="48.48255" lon="2.1856">
        <ele>123</ele>
        <time>2020-08-04T16:09:48.000Z</time>
      </trkpt>
      <trkpt lat="48.4826" lon="2.18584">
        <ele>120.40000152588</ele>
        <time>2020-08-04T16:09:58.000Z</time>
      </trkpt>
      <trkpt lat="48.48264" lon="2.18595">
        <ele>118.80000305176</ele>
        <time>2020-08-04T16:10:02.000Z</time>
      </trkpt>
      <trkpt lat="48.48263" lon="2.18606">
        <ele>117.40000152588</ele>
        <time>2020-08-04T16:10:06.000Z</time>
      </trkpt>
      <trkpt lat="48.48267" lon="2.18618">
        <ele>115.59999847412</ele>
        <time>2020-08-04T16:10:10.000Z</time>
      </trkpt>
      <trkpt lat="48.48268" lon="2.18619">
        <ele>115.19999694824</ele>
        <time>2020-08-04T16:10:11.000Z</time>
      </trkpt>
      <trkpt lat="48.48274" lon="2.18619">
        <ele>114.19999694824</ele>
        <time>2020-08-04T16:10:13.000Z</time>
      </trkpt>
      <trkpt lat="48.4828" lon="2.18618">
        <ele>113.19999694824</ele>
        <time>2020-08-04T16:10:15.000Z</time>
      </trkpt>
      <trkpt lat="48.48297" lon="2.1862">
        <ele>109.59999847412</ele>
        <time>2020-08-04T16:10:20.000Z</time>
      </trkpt>
      <trkpt lat="48.48312" lon="2.18616">
        <ele>107.19999694824</ele>
        <time>2020-08-04T16:10:24.000Z</time>
      </trkpt>
      <trkpt lat="48.48323" lon="2.18616">
        <ele>104.80000305176</ele>
        <time>2020-08-04T16:10:27.000Z</time>
      </trkpt>
      <trkpt lat="48.48326" lon="2.18618">
        <ele>104</ele>
        <time>2020-08-04T16:10:28.000Z</time>
      </trkpt>
      <trkpt lat="48.48327" lon="2.1862">
        <ele>103.40000152588</ele>
        <time>2020-08-04T16:10:29.000Z</time>
      </trkpt>
      <trkpt lat="48.48334" lon="2.18632">
        <ele>100.59999847412</ele>
        <time>2020-08-04T16:10:33.000Z</time>
      </trkpt>
      <trkpt lat="48.48336" lon="2.18639">
        <ele>99.199996948242</ele>
        <time>2020-08-04T16:10:35.000Z</time>
      </trkpt>
      <trkpt lat="48.48337" lon="2.18646">
        <ele>98.400001525879</ele>
        <time>2020-08-04T16:10:37.000Z</time>
      </trkpt>
      <trkpt lat="48.48336" lon="2.18662">
        <ele>96.599998474121</ele>
        <time>2020-08-04T16:10:42.000Z</time>
      </trkpt>
      <trkpt lat="48.48337" lon="2.18664">
        <ele>96.199996948242</ele>
        <time>2020-08-04T16:10:43.000Z</time>
      </trkpt>
      <trkpt lat="48.4834" lon="2.18672">
        <ele>94.800003051758</ele>
        <time>2020-08-04T16:10:46.000Z</time>
      </trkpt>
      <trkpt lat="48.48352" lon="2.18686">
        <ele>91.599998474121</ele>
        <time>2020-08-04T16:10:50.000Z</time>
      </trkpt>
      <trkpt lat="48.48361" lon="2.18694">
        <ele>90.199996948242</ele>
        <time>2020-08-04T16:10:52.000Z</time>
      </trkpt>
      <trkpt lat="48.48372" lon="2.18701">
        <ele>89</ele>
        <time>2020-08-04T16:10:54.000Z</time>
      </trkpt>
      <trkpt lat="48.48384" lon="2.18709">
        <ele>87.400001525879</ele>
        <time>2020-08-04T16:10:56.000Z</time>
      </trkpt>
      <trkpt lat="48.48398" lon="2.1872">
        <ele>85.400001525879</ele>
        <time>2020-08-04T16:10:58.000Z</time>
      </trkpt>
      <trkpt lat="48.48411" lon="2.18731">
        <ele>83.599998474121</ele>
        <time>2020-08-04T16:11:00.000Z</time>
      </trkpt>
      <trkpt lat="48.48424" lon="2.18741">
        <ele>81.800003051758</ele>
        <time>2020-08-04T16:11:02.000Z</time>
      </trkpt>
      <trkpt lat="48.4848" lon="2.18774">
        <ele>78</ele>
        <time>2020-08-04T16:11:10.000Z</time>
      </trkpt>
      <trkpt lat="48.48527" lon="2.18804">
        <ele>75.599998474121</ele>
        <time>2020-08-04T16:11:17.000Z</time>
      </trkpt>
      <trkpt lat="48.48561" lon="2.18822">
        <ele>75.199996948242</ele>
        <time>2020-08-04T16:11:22.000Z</time>
      </trkpt>
      <trkpt lat="48.48573" lon="2.1883">
        <ele>75</ele>
        <time>2020-08-04T16:11:24.000Z</time>
      </trkpt>
      <trkpt lat="48.48608" lon="2.1885">
        <ele>74.800003051758</ele>
        <time>2020-08-04T16:11:30.000Z</time>
      </trkpt>
      <trkpt lat="48.48644" lon="2.18872">
        <ele>74.400001525879</ele>
        <time>2020-08-04T16:11:37.000Z</time>
      </trkpt>
      <trkpt lat="48.48649" lon="2.18875">
        <ele>74.400001525879</ele>
        <time>2020-08-04T16:11:38.000Z</time>
      </trkpt>
      <trkpt lat="48.48666" lon="2.18884">
        <ele>74.400001525879</ele>
        <time>2020-08-04T16:11:41.000Z</time>
      </trkpt>
      <trkpt lat="48.48675" lon="2.18892">
        <ele>74.199996948242</ele>
        <time>2020-08-04T16:11:43.000Z</time>
      </trkpt>
      <trkpt lat="48.48677" lon="2.18904">
        <ele>74</ele>
        <time>2020-08-04T16:11:45.000Z</time>
      </trkpt>
      <trkpt lat="48.48668" lon="2.18938">
        <ele>73</ele>
        <time>2020-08-04T16:11:49.000Z</time>
      </trkpt>
      <trkpt lat="48.48665" lon="2.18948">
        <ele>72.599998474121</ele>
        <time>2020-08-04T16:11:50.000Z</time>
      </trkpt>
      <trkpt lat="48.48663" lon="2.18978">
        <ele>71.599998474121</ele>
        <time>2020-08-04T16:11:53.000Z</time>
      </trkpt>
      <trkpt lat="48.48663" lon="2.18985">
        <ele>71.400001525879</ele>
        <time>2020-08-04T16:11:54.000Z</time>
      </trkpt>
      <trkpt lat="48.48657" lon="2.18995">
        <ele>71.400001525879</ele>
        <time>2020-08-04T16:11:56.000Z</time>
      </trkpt>
      <trkpt lat="48.48638" lon="2.1901">
        <ele>71.400001525879</ele>
        <time>2020-08-04T16:12:00.000Z</time>
      </trkpt>
      <trkpt lat="48.48623" lon="2.19023">
        <ele>71.400001525879</ele>
        <time>2020-08-04T16:12:03.000Z</time>
      </trkpt>
      <trkpt lat="48.48615" lon="2.19033">
        <ele>71.400001525879</ele>
        <time>2020-08-04T16:12:05.000Z</time>
      </trkpt>
      <trkpt lat="48.48613" lon="2.19036">
        <ele>71.400001525879</ele>
        <time>2020-08-04T16:12:06.000Z</time>
      </trkpt>
      <trkpt lat="48.4861" lon="2.19044">
        <ele>71.199996948242</ele>
        <time>2020-08-04T16:12:08.000Z</time>
      </trkpt>
      <trkpt lat="48.48607" lon="2.19048">
        <ele>71.199996948242</ele>
        <time>2020-08-04T16:12:09.000Z</time>
      </trkpt>
      <trkpt lat="48.48598" lon="2.1906">
        <ele>71.199996948242</ele>
        <time>2020-08-04T16:12:11.000Z</time>
      </trkpt>
      <trkpt lat="48.48567" lon="2.19099">
        <ele>71.599998474121</ele>
        <time>2020-08-04T16:12:17.000Z</time>
      </trkpt>
      <trkpt lat="48.48542" lon="2.19129">
        <ele>71.199996948242</ele>
        <time>2020-08-04T16:12:22.000Z</time>
      </trkpt>
      <trkpt lat="48.48522" lon="2.19151">
        <ele>70.400001525879</ele>
        <time>2020-08-04T16:12:26.000Z</time>
      </trkpt>
      <trkpt lat="48.48511" lon="2.1916">
        <ele>70</ele>
        <time>2020-08-04T16:12:28.000Z</time>
      </trkpt>
      <trkpt lat="48.48505" lon="2.19164">
        <ele>69.800003051758</ele>
        <time>2020-08-04T16:12:29.000Z</time>
      </trkpt>
      <trkpt lat="48.48498" lon="2.19179">
        <ele>69.400001525879</ele>
        <time>2020-08-04T16:12:31.000Z</time>
      </trkpt>
      <trkpt lat="48.48498" lon="2.19198">
        <ele>68.599998474121</ele>
        <time>2020-08-04T16:12:33.000Z</time>
      </trkpt>
      <trkpt lat="48.48501" lon="2.19208">
        <ele>68.400001525879</ele>
        <time>2020-08-04T16:12:34.000Z</time>
      </trkpt>
      <trkpt lat="48.48519" lon="2.19257">
        <ele>67.199996948242</ele>
        <time>2020-08-04T16:12:39.000Z</time>
      </trkpt>
      <trkpt lat="48.48521" lon="2.19269">
        <ele>67.199996948242</ele>
        <time>2020-08-04T16:12:40.000Z</time>
      </trkpt>
      <trkpt lat="48.48521" lon="2.19281">
        <ele>67.400001525879</ele>
        <time>2020-08-04T16:12:41.000Z</time>
      </trkpt>
      <trkpt lat="48.48518" lon="2.19305">
        <ele>67.800003051758</ele>
        <time>2020-08-04T16:12:43.000Z</time>
      </trkpt>
      <trkpt lat="48.48503" lon="2.19386">
        <ele>68</ele>
        <time>2020-08-04T16:12:50.000Z</time>
      </trkpt>
      <trkpt lat="48.48491" lon="2.19453">
        <ele>66</ele>
        <time>2020-08-04T16:12:56.000Z</time>
      </trkpt>
      <trkpt lat="48.4849" lon="2.19462">
        <ele>65.599998474121</ele>
        <time>2020-08-04T16:12:57.000Z</time>
      </trkpt>
      <trkpt lat="48.48482" lon="2.19478">
        <ele>65.199996948242</ele>
        <time>2020-08-04T16:12:59.000Z</time>
      </trkpt>
      <trkpt lat="48.48472" lon="2.19488">
        <ele>65</ele>
        <time>2020-08-04T16:13:01.000Z</time>
      </trkpt>
      <trkpt lat="48.48465" lon="2.19504">
        <ele>64.599998474121</ele>
        <time>2020-08-04T16:13:03.000Z</time>
      </trkpt>
      <trkpt lat="48.48465" lon="2.19523">
        <ele>64</ele>
        <time>2020-08-04T16:13:05.000Z</time>
      </trkpt>
      <trkpt lat="48.48467" lon="2.19532">
        <ele>63.799999237061</ele>
        <time>2020-08-04T16:13:06.000Z</time>
      </trkpt>
      <trkpt lat="48.48473" lon="2.19559">
        <ele>63.200000762939</ele>
        <time>2020-08-04T16:13:09.000Z</time>
      </trkpt>
      <trkpt lat="48.48474" lon="2.19578">
        <ele>63</ele>
        <time>2020-08-04T16:13:11.000Z</time>
      </trkpt>
      <trkpt lat="48.48463" lon="2.19643">
        <ele>62.599998474121</ele>
        <time>2020-08-04T16:13:18.000Z</time>
      </trkpt>
      <trkpt lat="48.48452" lon="2.19721">
        <ele>62.799999237061</ele>
        <time>2020-08-04T16:13:26.000Z</time>
      </trkpt>
      <trkpt lat="48.48453" lon="2.1979">
        <ele>63.400001525879</ele>
        <time>2020-08-04T16:13:33.000Z</time>
      </trkpt>
      <trkpt lat="48.48464" lon="2.19866">
        <ele>65</ele>
        <time>2020-08-04T16:13:41.000Z</time>
      </trkpt>
      <trkpt lat="48.48477" lon="2.19942">
        <ele>65</ele>
        <time>2020-08-04T16:13:49.000Z</time>
      </trkpt>
      <trkpt lat="48.48491" lon="2.20024">
        <ele>65</ele>
        <time>2020-08-04T16:13:58.000Z</time>
      </trkpt>
      <trkpt lat="48.48493" lon="2.20033">
        <ele>65</ele>
        <time>2020-08-04T16:13:59.000Z</time>
      </trkpt>
      <trkpt lat="48.48505" lon="2.20106">
        <ele>65.199996948242</ele>
        <time>2020-08-04T16:14:07.000Z</time>
      </trkpt>
      <trkpt lat="48.48514" lon="2.20179">
        <ele>66.400001525879</ele>
        <time>2020-08-04T16:14:15.000Z</time>
      </trkpt>
      <trkpt lat="48.48512" lon="2.20233">
        <ele>67.599998474121</ele>
        <time>2020-08-04T16:14:21.000Z</time>
      </trkpt>
      <trkpt lat="48.48511" lon="2.20242">
        <ele>67.800003051758</ele>
        <time>2020-08-04T16:14:22.000Z</time>
      </trkpt>
      <trkpt lat="48.48498" lon="2.20292">
        <ele>67.599998474121</ele>
        <time>2020-08-04T16:14:28.000Z</time>
      </trkpt>
      <trkpt lat="48.48475" lon="2.20354">
        <ele>69</ele>
        <time>2020-08-04T16:14:36.000Z</time>
      </trkpt>
      <trkpt lat="48.48461" lon="2.20396">
        <ele>69.800003051758</ele>
        <time>2020-08-04T16:14:42.000Z</time>
      </trkpt>
      <trkpt lat="48.48444" lon="2.20439">
        <ele>70.800003051758</ele>
        <time>2020-08-04T16:14:48.000Z</time>
      </trkpt>
      <trkpt lat="48.48441" lon="2.20446">
        <ele>71</ele>
        <time>2020-08-04T16:14:49.000Z</time>
      </trkpt>
      <trkpt lat="48.48424" lon="2.20494">
        <ele>72.400001525879</ele>
        <time>2020-08-04T16:14:56.000Z</time>
      </trkpt>
      <trkpt lat="48.48414" lon="2.20519">
        <ele>72.599998474121</ele>
        <time>2020-08-04T16:15:00.000Z</time>
      </trkpt>
      <trkpt lat="48.4841" lon="2.20524">
        <ele>72.800003051758</ele>
        <time>2020-08-04T16:15:01.000Z</time>
      </trkpt>
      <trkpt lat="48.48406" lon="2.20527">
        <ele>73</ele>
        <time>2020-08-04T16:15:02.000Z</time>
      </trkpt>
      <trkpt lat="48.48391" lon="2.20528">
        <ele>73.599998474121</ele>
        <time>2020-08-04T16:15:05.000Z</time>
      </trkpt>
      <trkpt lat="48.48375" lon="2.20515">
        <ele>74.199996948242</ele>
        <time>2020-08-04T16:15:08.000Z</time>
      </trkpt>
      <trkpt lat="48.48357" lon="2.20492">
        <ele>74.800003051758</ele>
        <time>2020-08-04T16:15:12.000Z</time>
      </trkpt>
      <trkpt lat="48.48353" lon="2.20485">
        <ele>74.800003051758</ele>
        <time>2020-08-04T16:15:13.000Z</time>
      </trkpt>
      <trkpt lat="48.48345" lon="2.20463">
        <ele>75.400001525879</ele>
        <time>2020-08-04T16:15:16.000Z</time>
      </trkpt>
      <trkpt lat="48.48338" lon="2.2045">
        <ele>75.800003051758</ele>
        <time>2020-08-04T16:15:18.000Z</time>
      </trkpt>
      <trkpt lat="48.48308" lon="2.20404">
        <ele>77.800003051758</ele>
        <time>2020-08-04T16:15:26.000Z</time>
      </trkpt>
      <trkpt lat="48.48275" lon="2.20353">
        <ele>78.199996948242</ele>
        <time>2020-08-04T16:15:35.000Z</time>
      </trkpt>
      <trkpt lat="48.48267" lon="2.20344">
        <ele>78.400001525879</ele>
        <time>2020-08-04T16:15:37.000Z</time>
      </trkpt>
      <trkpt lat="48.48257" lon="2.20337">
        <ele>78.199996948242</ele>
        <time>2020-08-04T16:15:39.000Z</time>
      </trkpt>
      <trkpt lat="48.48246" lon="2.20335">
        <ele>78</ele>
        <time>2020-08-04T16:15:41.000Z</time>
      </trkpt>
      <trkpt lat="48.48235" lon="2.20335">
        <ele>77.800003051758</ele>
        <time>2020-08-04T16:15:43.000Z</time>
      </trkpt>
      <trkpt lat="48.48217" lon="2.20333">
        <ele>77.599998474121</ele>
        <time>2020-08-04T16:15:46.000Z</time>
      </trkpt>
      <trkpt lat="48.48212" lon="2.20336">
        <ele>77.599998474121</ele>
        <time>2020-08-04T16:15:47.000Z</time>
      </trkpt>
      <trkpt lat="48.48208" lon="2.20341">
        <ele>77.800003051758</ele>
        <time>2020-08-04T16:15:48.000Z</time>
      </trkpt>
      <trkpt lat="48.48196" lon="2.20361">
        <ele>79.199996948242</ele>
        <time>2020-08-04T16:15:51.000Z</time>
      </trkpt>
      <trkpt lat="48.48176" lon="2.20397">
        <ele>83.199996948242</ele>
        <time>2020-08-04T16:15:57.000Z</time>
      </trkpt>
      <trkpt lat="48.48155" lon="2.2044">
        <ele>85.400001525879</ele>
        <time>2020-08-04T16:16:04.000Z</time>
      </trkpt>
      <trkpt lat="48.48149" lon="2.20451">
        <ele>86</ele>
        <time>2020-08-04T16:16:06.000Z</time>
      </trkpt>
      <trkpt lat="48.4814" lon="2.20465">
        <ele>86</ele>
        <time>2020-08-04T16:16:09.000Z</time>
      </trkpt>
      <trkpt lat="48.48125" lon="2.20493">
        <ele>85.199996948242</ele>
        <time>2020-08-04T16:16:15.000Z</time>
      </trkpt>
      <trkpt lat="48.48116" lon="2.20518">
        <ele>86.599998474121</ele>
        <time>2020-08-04T16:16:20.000Z</time>
      </trkpt>
      <trkpt lat="48.48103" lon="2.20554">
        <ele>87</ele>
        <time>2020-08-04T16:16:27.000Z</time>
      </trkpt>
      <trkpt lat="48.48094" lon="2.20582">
        <ele>88.199996948242</ele>
        <time>2020-08-04T16:16:32.000Z</time>
      </trkpt>
      <trkpt lat="48.48076" lon="2.20619">
        <ele>91.400001525879</ele>
        <time>2020-08-04T16:16:38.000Z</time>
      </trkpt>
      <trkpt lat="48.48073" lon="2.20625">
        <ele>91.800003051758</ele>
        <time>2020-08-04T16:16:39.000Z</time>
      </trkpt>
      <trkpt lat="48.48048" lon="2.20664">
        <ele>93.199996948242</ele>
        <time>2020-08-04T16:16:47.000Z</time>
      </trkpt>
      <trkpt lat="48.48027" lon="2.20695">
        <ele>94.199996948242</ele>
        <time>2020-08-04T16:16:54.000Z</time>
      </trkpt>
      <trkpt lat="48.48007" lon="2.20722">
        <ele>95.800003051758</ele>
        <time>2020-08-04T16:17:01.000Z</time>
      </trkpt>
      <trkpt lat="48.47996" lon="2.2074">
        <ele>97.400001525879</ele>
        <time>2020-08-04T16:17:06.000Z</time>
      </trkpt>
      <trkpt lat="48.47986" lon="2.20758">
        <ele>99.599998474121</ele>
        <time>2020-08-04T16:17:11.000Z</time>
      </trkpt>
      <trkpt lat="48.4798" lon="2.20767">
        <ele>101.19999694824</ele>
        <time>2020-08-04T16:17:14.000Z</time>
      </trkpt>
      <trkpt lat="48.47973" lon="2.2078">
        <ele>103.19999694824</ele>
        <time>2020-08-04T16:17:18.000Z</time>
      </trkpt>
      <trkpt lat="48.47964" lon="2.20796">
        <ele>103.40000152588</ele>
        <time>2020-08-04T16:17:23.000Z</time>
      </trkpt>
      <trkpt lat="48.47951" lon="2.20808">
        <ele>102.80000305176</ele>
        <time>2020-08-04T16:17:28.000Z</time>
      </trkpt>
      <trkpt lat="48.47944" lon="2.20813">
        <ele>102.59999847412</ele>
        <time>2020-08-04T16:17:31.000Z</time>
      </trkpt>
      <trkpt lat="48.47942" lon="2.20816">
        <ele>102.40000152588</ele>
        <time>2020-08-04T16:17:32.000Z</time>
      </trkpt>
      <trkpt lat="48.47938" lon="2.2083">
        <ele>102.40000152588</ele>
        <time>2020-08-04T16:17:36.000Z</time>
      </trkpt>
      <trkpt lat="48.47937" lon="2.20833">
        <ele>102.80000305176</ele>
        <time>2020-08-04T16:17:37.000Z</time>
      </trkpt>
      <trkpt lat="48.47934" lon="2.20843">
        <ele>103.40000152588</ele>
        <time>2020-08-04T16:17:40.000Z</time>
      </trkpt>
      <trkpt lat="48.47929" lon="2.2086">
        <ele>105.40000152588</ele>
        <time>2020-08-04T16:17:45.000Z</time>
      </trkpt>
      <trkpt lat="48.47925" lon="2.20874">
        <ele>107.40000152588</ele>
        <time>2020-08-04T16:17:49.000Z</time>
      </trkpt>
      <trkpt lat="48.47924" lon="2.20877">
        <ele>108</ele>
        <time>2020-08-04T16:17:50.000Z</time>
      </trkpt>
      <trkpt lat="48.47923" lon="2.20894">
        <ele>109.80000305176</ele>
        <time>2020-08-04T16:17:55.000Z</time>
      </trkpt>
      <trkpt lat="48.47923" lon="2.2091">
        <ele>110.19999694824</ele>
        <time>2020-08-04T16:18:00.000Z</time>
      </trkpt>
      <trkpt lat="48.47919" lon="2.20937">
        <ele>113.59999847412</ele>
        <time>2020-08-04T16:18:08.000Z</time>
      </trkpt>
      <trkpt lat="48.47919" lon="2.2094">
        <ele>114</ele>
        <time>2020-08-04T16:18:09.000Z</time>
      </trkpt>
      <trkpt lat="48.47917" lon="2.20952">
        <ele>115.80000305176</ele>
        <time>2020-08-04T16:18:13.000Z</time>
      </trkpt>
      <trkpt lat="48.47913" lon="2.20964">
        <ele>117.40000152588</ele>
        <time>2020-08-04T16:18:17.000Z</time>
      </trkpt>
      <trkpt lat="48.47909" lon="2.20978">
        <ele>119</ele>
        <time>2020-08-04T16:18:22.000Z</time>
      </trkpt>
      <trkpt lat="48.47901" lon="2.20992">
        <ele>119.59999847412</ele>
        <time>2020-08-04T16:18:27.000Z</time>
      </trkpt>
      <trkpt lat="48.479" lon="2.20995">
        <ele>119.80000305176</ele>
        <time>2020-08-04T16:18:28.000Z</time>
      </trkpt>
      <trkpt lat="48.47895" lon="2.21007">
        <ele>120.80000305176</ele>
        <time>2020-08-04T16:18:32.000Z</time>
      </trkpt>
      <trkpt lat="48.47893" lon="2.21012">
        <ele>121.19999694824</ele>
        <time>2020-08-04T16:18:34.000Z</time>
      </trkpt>
      <trkpt lat="48.47885" lon="2.21042">
        <ele>123.40000152588</ele>
        <time>2020-08-04T16:18:43.000Z</time>
      </trkpt>
      <trkpt lat="48.47884" lon="2.21051">
        <ele>124.19999694824</ele>
        <time>2020-08-04T16:18:46.000Z</time>
      </trkpt>
      <trkpt lat="48.47882" lon="2.2106">
        <ele>124.59999847412</ele>
        <time>2020-08-04T16:18:49.000Z</time>
      </trkpt>
      <trkpt lat="48.47878" lon="2.21069">
        <ele>125</ele>
        <time>2020-08-04T16:18:52.000Z</time>
      </trkpt>
      <trkpt lat="48.47874" lon="2.21083">
        <ele>125.59999847412</ele>
        <time>2020-08-04T16:18:57.000Z</time>
      </trkpt>
      <trkpt lat="48.47869" lon="2.211">
        <ele>125.80000305176</ele>
        <time>2020-08-04T16:19:02.000Z</time>
      </trkpt>
      <trkpt lat="48.47865" lon="2.21122">
        <ele>126.59999847412</ele>
        <time>2020-08-04T16:19:08.000Z</time>
      </trkpt>
      <trkpt lat="48.47858" lon="2.21146">
        <ele>127.59999847412</ele>
        <time>2020-08-04T16:19:15.000Z</time>
      </trkpt>
      <trkpt lat="48.47854" lon="2.21159">
        <ele>128</ele>
        <time>2020-08-04T16:19:19.000Z</time>
      </trkpt>
      <trkpt lat="48.47852" lon="2.21167">
        <ele>128.19999694824</ele>
        <time>2020-08-04T16:19:21.000Z</time>
      </trkpt>
      <trkpt lat="48.47848" lon="2.2118">
        <ele>128.39999389648</ele>
        <time>2020-08-04T16:19:25.000Z</time>
      </trkpt>
      <trkpt lat="48.47845" lon="2.21187">
        <ele>128.80000305176</ele>
        <time>2020-08-04T16:19:27.000Z</time>
      </trkpt>
      <trkpt lat="48.47837" lon="2.2121">
        <ele>129.60000610352</ele>
        <time>2020-08-04T16:19:34.000Z</time>
      </trkpt>
      <trkpt lat="48.47824" lon="2.21235">
        <ele>130.39999389648</ele>
        <time>2020-08-04T16:19:42.000Z</time>
      </trkpt>
      <trkpt lat="48.47808" lon="2.21254">
        <ele>130.39999389648</ele>
        <time>2020-08-04T16:19:49.000Z</time>
      </trkpt>
      <trkpt lat="48.47804" lon="2.21254">
        <ele>130.39999389648</ele>
        <time>2020-08-04T16:19:51.000Z</time>
      </trkpt>
      <trkpt lat="48.47801" lon="2.21251">
        <ele>130.60000610352</ele>
        <time>2020-08-04T16:19:53.000Z</time>
      </trkpt>
      <trkpt lat="48.47792" lon="2.21241">
        <ele>130.60000610352</ele>
        <time>2020-08-04T16:20:00.000Z</time>
      </trkpt>
      <trkpt lat="48.4778" lon="2.21234">
        <ele>130.80000305176</ele>
        <time>2020-08-04T16:20:07.000Z</time>
      </trkpt>
      <trkpt lat="48.47766" lon="2.21233">
        <ele>131</ele>
        <time>2020-08-04T16:20:14.000Z</time>
      </trkpt>
      <trkpt lat="48.47753" lon="2.2124">
        <ele>132</ele>
        <time>2020-08-04T16:20:21.000Z</time>
      </trkpt>
      <trkpt lat="48.47739" lon="2.21249">
        <ele>133.60000610352</ele>
        <time>2020-08-04T16:20:29.000Z</time>
      </trkpt>
      <trkpt lat="48.47726" lon="2.21257">
        <ele>135</ele>
        <time>2020-08-04T16:20:36.000Z</time>
      </trkpt>
      <trkpt lat="48.47712" lon="2.21261">
        <ele>136.39999389648</ele>
        <time>2020-08-04T16:20:43.000Z</time>
      </trkpt>
      <trkpt lat="48.47696" lon="2.21251">
        <ele>137.80000305176</ele>
        <time>2020-08-04T16:20:50.000Z</time>
      </trkpt>
      <trkpt lat="48.47686" lon="2.21245">
        <ele>138.60000610352</ele>
        <time>2020-08-04T16:20:55.000Z</time>
      </trkpt>
      <trkpt lat="48.47683" lon="2.21243">
        <ele>138.80000305176</ele>
        <time>2020-08-04T16:20:57.000Z</time>
      </trkpt>
      <trkpt lat="48.47678" lon="2.21239">
        <ele>139</ele>
        <time>2020-08-04T16:20:59.000Z</time>
      </trkpt>
      <trkpt lat="48.47661" lon="2.21223">
        <ele>139</ele>
        <time>2020-08-04T16:21:05.000Z</time>
      </trkpt>
      <trkpt lat="48.47642" lon="2.21205">
        <ele>139</ele>
        <time>2020-08-04T16:21:12.000Z</time>
      </trkpt>
      <trkpt lat="48.47626" lon="2.2119">
        <ele>139</ele>
        <time>2020-08-04T16:21:18.000Z</time>
      </trkpt>
      <trkpt lat="48.47603" lon="2.21165">
        <ele>139</ele>
        <time>2020-08-04T16:21:27.000Z</time>
      </trkpt>
      <trkpt lat="48.47586" lon="2.21144">
        <ele>139.39999389648</ele>
        <time>2020-08-04T16:21:34.000Z</time>
      </trkpt>
      <trkpt lat="48.47568" lon="2.21123">
        <ele>139.80000305176</ele>
        <time>2020-08-04T16:21:41.000Z</time>
      </trkpt>
      <trkpt lat="48.4755" lon="2.21098">
        <ele>140.19999694824</ele>
        <time>2020-08-04T16:21:49.000Z</time>
      </trkpt>
      <trkpt lat="48.47534" lon="2.21074">
        <ele>140.60000610352</ele>
        <time>2020-08-04T16:21:56.000Z</time>
      </trkpt>
      <trkpt lat="48.47509" lon="2.2104">
        <ele>141.60000610352</ele>
        <time>2020-08-04T16:22:07.000Z</time>
      </trkpt>
      <trkpt lat="48.47488" lon="2.21011">
        <ele>142</ele>
        <time>2020-08-04T16:22:16.000Z</time>
      </trkpt>
      <trkpt lat="48.4747" lon="2.20988">
        <ele>142.60000610352</ele>
        <time>2020-08-04T16:22:23.000Z</time>
      </trkpt>
      <trkpt lat="48.47442" lon="2.2096">
        <ele>144</ele>
        <time>2020-08-04T16:22:31.000Z</time>
      </trkpt>
      <trkpt lat="48.47408" lon="2.20929">
        <ele>145.19999694824</ele>
        <time>2020-08-04T16:22:40.000Z</time>
      </trkpt>
      <trkpt lat="48.47375" lon="2.20901">
        <ele>146</ele>
        <time>2020-08-04T16:22:49.000Z</time>
      </trkpt>
      <trkpt lat="48.47347" lon="2.20878">
        <ele>146.80000305176</ele>
        <time>2020-08-04T16:22:57.000Z</time>
      </trkpt>
      <trkpt lat="48.47323" lon="2.20861">
        <ele>148</ele>
        <time>2020-08-04T16:23:04.000Z</time>
      </trkpt>
      <trkpt lat="48.47307" lon="2.2085">
        <ele>148.80000305176</ele>
        <time>2020-08-04T16:23:10.000Z</time>
      </trkpt>
      <trkpt lat="48.47303" lon="2.20832">
        <ele>148.80000305176</ele>
        <time>2020-08-04T16:23:15.000Z</time>
      </trkpt>
      <trkpt lat="48.47304" lon="2.20829">
        <ele>148.80000305176</ele>
        <time>2020-08-04T16:23:16.000Z</time>
      </trkpt>
      <trkpt lat="48.47312" lon="2.20819">
        <ele>148.19999694824</ele>
        <time>2020-08-04T16:23:20.000Z</time>
      </trkpt>
      <trkpt lat="48.47331" lon="2.2079">
        <ele>147.39999389648</ele>
        <time>2020-08-04T16:23:27.000Z</time>
      </trkpt>
      <trkpt lat="48.47354" lon="2.20751">
        <ele>147.60000610352</ele>
        <time>2020-08-04T16:23:35.000Z</time>
      </trkpt>
      <trkpt lat="48.47382" lon="2.20706">
        <ele>146.60000610352</ele>
        <time>2020-08-04T16:23:43.000Z</time>
      </trkpt>
      <trkpt lat="48.47404" lon="2.20671">
        <ele>146.80000305176</ele>
        <time>2020-08-04T16:23:50.000Z</time>
      </trkpt>
      <trkpt lat="48.47406" lon="2.20667">
        <ele>146.80000305176</ele>
        <time>2020-08-04T16:23:53.000Z</time>
      </trkpt>
      <trkpt lat="48.47413" lon="2.20658">
        <ele>146.80000305176</ele>
        <time>2020-08-04T16:27:25.000Z</time>
      </trkpt>
      <trkpt lat="48.47422" lon="2.20644">
        <ele>146.60000610352</ele>
        <time>2020-08-04T16:27:31.000Z</time>
      </trkpt>
      <trkpt lat="48.47435" lon="2.20625">
        <ele>146.39999389648</ele>
        <time>2020-08-04T16:27:36.000Z</time>
      </trkpt>
      <trkpt lat="48.47451" lon="2.20602">
        <ele>145.19999694824</ele>
        <time>2020-08-04T16:27:41.000Z</time>
      </trkpt>
      <trkpt lat="48.47454" lon="2.20597">
        <ele>145</ele>
        <time>2020-08-04T16:27:42.000Z</time>
      </trkpt>
      <trkpt lat="48.47461" lon="2.20587">
        <ele>145</ele>
        <time>2020-08-04T16:27:44.000Z</time>
      </trkpt>
      <trkpt lat="48.47472" lon="2.20572">
        <ele>144.60000610352</ele>
        <time>2020-08-04T16:27:47.000Z</time>
      </trkpt>
      <trkpt lat="48.47475" lon="2.20566">
        <ele>144.39999389648</ele>
        <time>2020-08-04T16:27:48.000Z</time>
      </trkpt>
      <trkpt lat="48.47478" lon="2.2056">
        <ele>144</ele>
        <time>2020-08-04T16:27:49.000Z</time>
      </trkpt>
      <trkpt lat="48.47489" lon="2.20541">
        <ele>143.39999389648</ele>
        <time>2020-08-04T16:27:53.000Z</time>
      </trkpt>
      <trkpt lat="48.47507" lon="2.20511">
        <ele>143.19999694824</ele>
        <time>2020-08-04T16:27:59.000Z</time>
      </trkpt>
      <trkpt lat="48.47525" lon="2.20481">
        <ele>142.60000610352</ele>
        <time>2020-08-04T16:28:05.000Z</time>
      </trkpt>
      <trkpt lat="48.47544" lon="2.2045">
        <ele>141.60000610352</ele>
        <time>2020-08-04T16:28:11.000Z</time>
      </trkpt>
      <trkpt lat="48.47554" lon="2.20436">
        <ele>141.60000610352</ele>
        <time>2020-08-04T16:28:14.000Z</time>
      </trkpt>
      <trkpt lat="48.47565" lon="2.20423">
        <ele>141.60000610352</ele>
        <time>2020-08-04T16:28:17.000Z</time>
      </trkpt>
      <trkpt lat="48.47578" lon="2.20394">
        <ele>141.80000305176</ele>
        <time>2020-08-04T16:28:22.000Z</time>
      </trkpt>
      <trkpt lat="48.47582" lon="2.20391">
        <ele>141.60000610352</ele>
        <time>2020-08-04T16:28:23.000Z</time>
      </trkpt>
      <trkpt lat="48.47595" lon="2.2038">
        <ele>141.39999389648</ele>
        <time>2020-08-04T16:28:26.000Z</time>
      </trkpt>
      <trkpt lat="48.47598" lon="2.20375">
        <ele>141.39999389648</ele>
        <time>2020-08-04T16:28:27.000Z</time>
      </trkpt>
      <trkpt lat="48.47602" lon="2.20362">
        <ele>141.39999389648</ele>
        <time>2020-08-04T16:28:29.000Z</time>
      </trkpt>
      <trkpt lat="48.47605" lon="2.20356">
        <ele>141.19999694824</ele>
        <time>2020-08-04T16:28:30.000Z</time>
      </trkpt>
      <trkpt lat="48.47608" lon="2.2035">
        <ele>141.19999694824</ele>
        <time>2020-08-04T16:28:31.000Z</time>
      </trkpt>
      <trkpt lat="48.47615" lon="2.2034">
        <ele>140.80000305176</ele>
        <time>2020-08-04T16:28:33.000Z</time>
      </trkpt>
      <trkpt lat="48.47619" lon="2.20336">
        <ele>140.60000610352</ele>
        <time>2020-08-04T16:28:34.000Z</time>
      </trkpt>
      <trkpt lat="48.4762" lon="2.20332">
        <ele>140.39999389648</ele>
        <time>2020-08-04T16:28:35.000Z</time>
      </trkpt>
      <trkpt lat="48.47622" lon="2.20322">
        <ele>140.19999694824</ele>
        <time>2020-08-04T16:28:37.000Z</time>
      </trkpt>
      <trkpt lat="48.47623" lon="2.20319">
        <ele>140</ele>
        <time>2020-08-04T16:28:38.000Z</time>
      </trkpt>
      <trkpt lat="48.47629" lon="2.20312">
        <ele>139.19999694824</ele>
        <time>2020-08-04T16:28:40.000Z</time>
      </trkpt>
      <trkpt lat="48.47637" lon="2.20303">
        <ele>138.39999389648</ele>
        <time>2020-08-04T16:28:42.000Z</time>
      </trkpt>
      <trkpt lat="48.47646" lon="2.20293">
        <ele>137.39999389648</ele>
        <time>2020-08-04T16:28:44.000Z</time>
      </trkpt>
      <trkpt lat="48.47657" lon="2.20285">
        <ele>136.80000305176</ele>
        <time>2020-08-04T16:28:47.000Z</time>
      </trkpt>
      <trkpt lat="48.47663" lon="2.20284">
        <ele>136.39999389648</ele>
        <time>2020-08-04T16:28:48.000Z</time>
      </trkpt>
      <trkpt lat="48.47686" lon="2.20277">
        <ele>135.19999694824</ele>
        <time>2020-08-04T16:28:52.000Z</time>
      </trkpt>
      <trkpt lat="48.47689" lon="2.20273">
        <ele>135</ele>
        <time>2020-08-04T16:28:53.000Z</time>
      </trkpt>
      <trkpt lat="48.477" lon="2.20253">
        <ele>134</ele>
        <time>2020-08-04T16:28:57.000Z</time>
      </trkpt>
      <trkpt lat="48.47705" lon="2.20242">
        <ele>133.39999389648</ele>
        <time>2020-08-04T16:28:59.000Z</time>
      </trkpt>
      <trkpt lat="48.47706" lon="2.20234">
        <ele>133.39999389648</ele>
        <time>2020-08-04T16:29:00.000Z</time>
      </trkpt>
      <trkpt lat="48.47707" lon="2.20228">
        <ele>133.19999694824</ele>
        <time>2020-08-04T16:29:01.000Z</time>
      </trkpt>
      <trkpt lat="48.47707" lon="2.20214">
        <ele>133.39999389648</ele>
        <time>2020-08-04T16:29:03.000Z</time>
      </trkpt>
      <trkpt lat="48.47706" lon="2.20196">
        <ele>133.39999389648</ele>
        <time>2020-08-04T16:29:07.000Z</time>
      </trkpt>
      <trkpt lat="48.47706" lon="2.20195">
        <ele>133.39999389648</ele>
        <time>2020-08-04T16:29:08.000Z</time>
      </trkpt>
      <trkpt lat="48.47703" lon="2.20192">
        <ele>133.60000610352</ele>
        <time>2020-08-04T16:29:10.000Z</time>
      </trkpt>
      <trkpt lat="48.47699" lon="2.2019">
        <ele>133.80000305176</ele>
        <time>2020-08-04T16:29:12.000Z</time>
      </trkpt>
      <trkpt lat="48.47687" lon="2.20185">
        <ele>134.80000305176</ele>
        <time>2020-08-04T16:29:17.000Z</time>
      </trkpt>
      <trkpt lat="48.47679" lon="2.20176">
        <ele>134.80000305176</ele>
        <time>2020-08-04T16:29:21.000Z</time>
      </trkpt>
      <trkpt lat="48.47666" lon="2.20164">
        <ele>134.39999389648</ele>
        <time>2020-08-04T16:29:26.000Z</time>
      </trkpt>
      <trkpt lat="48.47659" lon="2.20148">
        <ele>133.39999389648</ele>
        <time>2020-08-04T16:29:30.000Z</time>
      </trkpt>
      <trkpt lat="48.47654" lon="2.20134">
        <ele>132.60000610352</ele>
        <time>2020-08-04T16:29:34.000Z</time>
      </trkpt>
      <trkpt lat="48.47645" lon="2.20124">
        <ele>131.80000305176</ele>
        <time>2020-08-04T16:29:37.000Z</time>
      </trkpt>
      <trkpt lat="48.47643" lon="2.20119">
        <ele>131.60000610352</ele>
        <time>2020-08-04T16:29:38.000Z</time>
      </trkpt>
      <trkpt lat="48.47641" lon="2.20114">
        <ele>131.39999389648</ele>
        <time>2020-08-04T16:29:39.000Z</time>
      </trkpt>
      <trkpt lat="48.4763" lon="2.201">
        <ele>130.39999389648</ele>
        <time>2020-08-04T16:29:42.000Z</time>
      </trkpt>
      <trkpt lat="48.47607" lon="2.20079">
        <ele>128.39999389648</ele>
        <time>2020-08-04T16:29:48.000Z</time>
      </trkpt>
      <trkpt lat="48.47602" lon="2.20069">
        <ele>127.40000152588</ele>
        <time>2020-08-04T16:29:50.000Z</time>
      </trkpt>
      <trkpt lat="48.47596" lon="2.20061">
        <ele>126.19999694824</ele>
        <time>2020-08-04T16:29:52.000Z</time>
      </trkpt>
      <trkpt lat="48.47581" lon="2.2006">
        <ele>123.80000305176</ele>
        <time>2020-08-04T16:29:56.000Z</time>
      </trkpt>
      <trkpt lat="48.47569" lon="2.20057">
        <ele>122.19999694824</ele>
        <time>2020-08-04T16:29:59.000Z</time>
      </trkpt>
      <trkpt lat="48.47566" lon="2.20054">
        <ele>121.59999847412</ele>
        <time>2020-08-04T16:30:00.000Z</time>
      </trkpt>
      <trkpt lat="48.47565" lon="2.20049">
        <ele>121</ele>
        <time>2020-08-04T16:30:01.000Z</time>
      </trkpt>
      <trkpt lat="48.47564" lon="2.20039">
        <ele>119.59999847412</ele>
        <time>2020-08-04T16:30:03.000Z</time>
      </trkpt>
      <trkpt lat="48.47564" lon="2.20033">
        <ele>119.19999694824</ele>
        <time>2020-08-04T16:30:04.000Z</time>
      </trkpt>
      <trkpt lat="48.47565" lon="2.20019">
        <ele>118.19999694824</ele>
        <time>2020-08-04T16:30:06.000Z</time>
      </trkpt>
      <trkpt lat="48.47566" lon="2.2001">
        <ele>117.80000305176</ele>
        <time>2020-08-04T16:30:07.000Z</time>
      </trkpt>
      <trkpt lat="48.47567" lon="2.19994">
        <ele>117</ele>
        <time>2020-08-04T16:30:09.000Z</time>
      </trkpt>
      <trkpt lat="48.47565" lon="2.1998">
        <ele>115.80000305176</ele>
        <time>2020-08-04T16:30:11.000Z</time>
      </trkpt>
      <trkpt lat="48.47561" lon="2.19967">
        <ele>114.19999694824</ele>
        <time>2020-08-04T16:30:13.000Z</time>
      </trkpt>
      <trkpt lat="48.47553" lon="2.19944">
        <ele>111.59999847412</ele>
        <time>2020-08-04T16:30:16.000Z</time>
      </trkpt>
      <trkpt lat="48.4755" lon="2.19926">
        <ele>110</ele>
        <time>2020-08-04T16:30:18.000Z</time>
      </trkpt>
      <trkpt lat="48.4755" lon="2.19907">
        <ele>108.80000305176</ele>
        <time>2020-08-04T16:30:20.000Z</time>
      </trkpt>
      <trkpt lat="48.4755" lon="2.19898">
        <ele>108.19999694824</ele>
        <time>2020-08-04T16:30:21.000Z</time>
      </trkpt>
      <trkpt lat="48.47552" lon="2.19881">
        <ele>107</ele>
        <time>2020-08-04T16:30:23.000Z</time>
      </trkpt>
      <trkpt lat="48.47555" lon="2.19864">
        <ele>106</ele>
        <time>2020-08-04T16:30:25.000Z</time>
      </trkpt>
      <trkpt lat="48.47556" lon="2.19856">
        <ele>105</ele>
        <time>2020-08-04T16:30:26.000Z</time>
      </trkpt>
      <trkpt lat="48.4756" lon="2.19831">
        <ele>102.19999694824</ele>
        <time>2020-08-04T16:30:29.000Z</time>
      </trkpt>
      <trkpt lat="48.47561" lon="2.19823">
        <ele>101.40000152588</ele>
        <time>2020-08-04T16:30:30.000Z</time>
      </trkpt>
      <trkpt lat="48.47564" lon="2.19805">
        <ele>100.19999694824</ele>
        <time>2020-08-04T16:30:32.000Z</time>
      </trkpt>
      <trkpt lat="48.47569" lon="2.1978">
        <ele>98.199996948242</ele>
        <time>2020-08-04T16:30:35.000Z</time>
      </trkpt>
      <trkpt lat="48.47574" lon="2.19764">
        <ele>97</ele>
        <time>2020-08-04T16:30:37.000Z</time>
      </trkpt>
      <trkpt lat="48.47585" lon="2.19743">
        <ele>95.599998474121</ele>
        <time>2020-08-04T16:30:40.000Z</time>
      </trkpt>
      <trkpt lat="48.47592" lon="2.19731">
        <ele>94.599998474121</ele>
        <time>2020-08-04T16:30:42.000Z</time>
      </trkpt>
      <trkpt lat="48.47598" lon="2.19724">
        <ele>94</ele>
        <time>2020-08-04T16:30:44.000Z</time>
      </trkpt>
      <trkpt lat="48.47614" lon="2.19716">
        <ele>93.800003051758</ele>
        <time>2020-08-04T16:30:48.000Z</time>
      </trkpt>
      <trkpt lat="48.47627" lon="2.19719">
        <ele>94.800003051758</ele>
        <time>2020-08-04T16:30:52.000Z</time>
      </trkpt>
      <trkpt lat="48.47643" lon="2.19722">
        <ele>96</ele>
        <time>2020-08-04T16:30:57.000Z</time>
      </trkpt>
      <trkpt lat="48.47654" lon="2.19723">
        <ele>96.800003051758</ele>
        <time>2020-08-04T16:31:01.000Z</time>
      </trkpt>
      <trkpt lat="48.47666" lon="2.19731">
        <ele>98.199996948242</ele>
        <time>2020-08-04T16:31:06.000Z</time>
      </trkpt>
      <trkpt lat="48.47673" lon="2.19736">
        <ele>99.400001525879</ele>
        <time>2020-08-04T16:31:11.000Z</time>
      </trkpt>
      <trkpt lat="48.47683" lon="2.19743">
        <ele>100.59999847412</ele>
        <time>2020-08-04T16:31:25.000Z</time>
      </trkpt>
      <trkpt lat="48.47687" lon="2.19746">
        <ele>100.80000305176</ele>
        <time>2020-08-04T16:31:27.000Z</time>
      </trkpt>
      <trkpt lat="48.4769" lon="2.19747">
        <ele>100.59999847412</ele>
        <time>2020-08-04T16:31:28.000Z</time>
      </trkpt>
      <trkpt lat="48.47698" lon="2.19748">
        <ele>100</ele>
        <time>2020-08-04T16:31:31.000Z</time>
      </trkpt>
      <trkpt lat="48.47709" lon="2.19758">
        <ele>99.800003051758</ele>
        <time>2020-08-04T16:31:35.000Z</time>
      </trkpt>
      <trkpt lat="48.47715" lon="2.19775">
        <ele>100.59999847412</ele>
        <time>2020-08-04T16:31:39.000Z</time>
      </trkpt>
      <trkpt lat="48.47732" lon="2.19791">
        <ele>100.19999694824</ele>
        <time>2020-08-04T16:31:44.000Z</time>
      </trkpt>
      <trkpt lat="48.47737" lon="2.198">
        <ele>100.40000152588</ele>
        <time>2020-08-04T16:31:46.000Z</time>
      </trkpt>
      <trkpt lat="48.47741" lon="2.19808">
        <ele>100.80000305176</ele>
        <time>2020-08-04T16:31:48.000Z</time>
      </trkpt>
      <trkpt lat="48.47754" lon="2.19808">
        <ele>99.400001525879</ele>
        <time>2020-08-04T16:31:51.000Z</time>
      </trkpt>
      <trkpt lat="48.47768" lon="2.19805">
        <ele>98</ele>
        <time>2020-08-04T16:31:54.000Z</time>
      </trkpt>
      <trkpt lat="48.47779" lon="2.19806">
        <ele>96</ele>
        <time>2020-08-04T16:31:56.000Z</time>
      </trkpt>
      <trkpt lat="48.47796" lon="2.19802">
        <ele>92.800003051758</ele>
        <time>2020-08-04T16:32:00.000Z</time>
      </trkpt>
      <trkpt lat="48.47799" lon="2.19799">
        <ele>92</ele>
        <time>2020-08-04T16:32:01.000Z</time>
      </trkpt>
      <trkpt lat="48.47808" lon="2.19792">
        <ele>89.800003051758</ele>
        <time>2020-08-04T16:32:03.000Z</time>
      </trkpt>
      <trkpt lat="48.47824" lon="2.19779">
        <ele>86.199996948242</ele>
        <time>2020-08-04T16:32:08.000Z</time>
      </trkpt>
      <trkpt lat="48.47829" lon="2.19774">
        <ele>84.800003051758</ele>
        <time>2020-08-04T16:32:11.000Z</time>
      </trkpt>
      <trkpt lat="48.47831" lon="2.19769">
        <ele>84.199996948242</ele>
        <time>2020-08-04T16:32:13.000Z</time>
      </trkpt>
      <trkpt lat="48.47831" lon="2.19765">
        <ele>83.800003051758</ele>
        <time>2020-08-04T16:32:14.000Z</time>
      </trkpt>
      <trkpt lat="48.47836" lon="2.19754">
        <ele>82</ele>
        <time>2020-08-04T16:32:17.000Z</time>
      </trkpt>
      <trkpt lat="48.47844" lon="2.19739">
        <ele>79.400001525879</ele>
        <time>2020-08-04T16:32:20.000Z</time>
      </trkpt>
      <trkpt lat="48.47847" lon="2.19732">
        <ele>79</ele>
        <time>2020-08-04T16:32:21.000Z</time>
      </trkpt>
      <trkpt lat="48.47854" lon="2.19719">
        <ele>78.400001525879</ele>
        <time>2020-08-04T16:32:23.000Z</time>
      </trkpt>
      <trkpt lat="48.47862" lon="2.19705">
        <ele>78</ele>
        <time>2020-08-04T16:32:25.000Z</time>
      </trkpt>
      <trkpt lat="48.47867" lon="2.19691">
        <ele>77.599998474121</ele>
        <time>2020-08-04T16:32:28.000Z</time>
      </trkpt>
      <trkpt lat="48.47861" lon="2.19677">
        <ele>77.599998474121</ele>
        <time>2020-08-04T16:32:32.000Z</time>
      </trkpt>
      <trkpt lat="48.47847" lon="2.19652">
        <ele>78</ele>
        <time>2020-08-04T16:32:37.000Z</time>
      </trkpt>
      <trkpt lat="48.47828" lon="2.19633">
        <ele>77.800003051758</ele>
        <time>2020-08-04T16:32:42.000Z</time>
      </trkpt>
      <trkpt lat="48.478" lon="2.19602">
        <ele>77.599998474121</ele>
        <time>2020-08-04T16:32:49.000Z</time>
      </trkpt>
      <trkpt lat="48.47775" lon="2.19568">
        <ele>77.400001525879</ele>
        <time>2020-08-04T16:32:56.000Z</time>
      </trkpt>
      <trkpt lat="48.47742" lon="2.1954">
        <ele>76.199996948242</ele>
        <time>2020-08-04T16:33:04.000Z</time>
      </trkpt>
      <trkpt lat="48.4772" lon="2.19525">
        <ele>75</ele>
        <time>2020-08-04T16:33:09.000Z</time>
      </trkpt>
      <trkpt lat="48.4771" lon="2.19518">
        <ele>74.400001525879</ele>
        <time>2020-08-04T16:33:11.000Z</time>
      </trkpt>
      <trkpt lat="48.47692" lon="2.1951">
        <ele>73.599998474121</ele>
        <time>2020-08-04T16:33:14.000Z</time>
      </trkpt>
      <trkpt lat="48.47666" lon="2.19495">
        <ele>71.800003051758</ele>
        <time>2020-08-04T16:33:19.000Z</time>
      </trkpt>
      <trkpt lat="48.47643" lon="2.19485">
        <ele>70</ele>
        <time>2020-08-04T16:33:23.000Z</time>
      </trkpt>
      <trkpt lat="48.47632" lon="2.19484">
        <ele>69.199996948242</ele>
        <time>2020-08-04T16:33:25.000Z</time>
      </trkpt>
      <trkpt lat="48.47607" lon="2.19482">
        <ele>67.400001525879</ele>
        <time>2020-08-04T16:33:29.000Z</time>
      </trkpt>
      <trkpt lat="48.476" lon="2.1948">
        <ele>66.800003051758</ele>
        <time>2020-08-04T16:33:30.000Z</time>
      </trkpt>
      <trkpt lat="48.4757" lon="2.19471">
        <ele>65.800003051758</ele>
        <time>2020-08-04T16:33:34.000Z</time>
      </trkpt>
      <trkpt lat="48.47531" lon="2.19461">
        <ele>65</ele>
        <time>2020-08-04T16:33:40.000Z</time>
      </trkpt>
      <trkpt lat="48.47493" lon="2.19462">
        <ele>65</ele>
        <time>2020-08-04T16:33:46.000Z</time>
      </trkpt>
      <trkpt lat="48.4745" lon="2.19465">
        <ele>65.800003051758</ele>
        <time>2020-08-04T16:33:53.000Z</time>
      </trkpt>
      <trkpt lat="48.47414" lon="2.19468">
        <ele>67.199996948242</ele>
        <time>2020-08-04T16:33:59.000Z</time>
      </trkpt>
      <trkpt lat="48.47367" lon="2.19474">
        <ele>69.199996948242</ele>
        <time>2020-08-04T16:34:07.000Z</time>
      </trkpt>
      <trkpt lat="48.47341" lon="2.19474">
        <ele>69.599998474121</ele>
        <time>2020-08-04T16:34:12.000Z</time>
      </trkpt>
      <trkpt lat="48.47305" lon="2.19475">
        <ele>70</ele>
        <time>2020-08-04T16:34:18.000Z</time>
      </trkpt>
      <trkpt lat="48.47251" lon="2.19468">
        <ele>71</ele>
        <time>2020-08-04T16:34:27.000Z</time>
      </trkpt>
      <trkpt lat="48.47197" lon="2.19455">
        <ele>71.400001525879</ele>
        <time>2020-08-04T16:34:36.000Z</time>
      </trkpt>
      <trkpt lat="48.47185" lon="2.19453">
        <ele>71.400001525879</ele>
        <time>2020-08-04T16:34:38.000Z</time>
      </trkpt>
      <trkpt lat="48.47169" lon="2.19448">
        <ele>71.800003051758</ele>
        <time>2020-08-04T16:34:41.000Z</time>
      </trkpt>
      <trkpt lat="48.47124" lon="2.19434">
        <ele>73</ele>
        <time>2020-08-04T16:34:49.000Z</time>
      </trkpt>
      <trkpt lat="48.47082" lon="2.19425">
        <ele>73.599998474121</ele>
        <time>2020-08-04T16:34:56.000Z</time>
      </trkpt>
      <trkpt lat="48.47039" lon="2.19417">
        <ele>73.800003051758</ele>
        <time>2020-08-04T16:35:03.000Z</time>
      </trkpt>
      <trkpt lat="48.46996" lon="2.19406">
        <ele>73.400001525879</ele>
        <time>2020-08-04T16:35:10.000Z</time>
      </trkpt>
      <trkpt lat="48.46963" lon="2.19399">
        <ele>72.400001525879</ele>
        <time>2020-08-04T16:35:16.000Z</time>
      </trkpt>
      <trkpt lat="48.46959" lon="2.19399">
        <ele>72.400001525879</ele>
        <time>2020-08-04T16:35:17.000Z</time>
      </trkpt>
      <trkpt lat="48.46934" lon="2.1939">
        <ele>71.599998474121</ele>
        <time>2020-08-04T16:35:22.000Z</time>
      </trkpt>
      <trkpt lat="48.46899" lon="2.19375">
        <ele>71.199996948242</ele>
        <time>2020-08-04T16:35:28.000Z</time>
      </trkpt>
      <trkpt lat="48.46863" lon="2.19355">
        <ele>70.599998474121</ele>
        <time>2020-08-04T16:35:35.000Z</time>
      </trkpt>
      <trkpt lat="48.46858" lon="2.19353">
        <ele>70.599998474121</ele>
        <time>2020-08-04T16:35:36.000Z</time>
      </trkpt>
      <trkpt lat="48.46843" lon="2.19344">
        <ele>70.400001525879</ele>
        <time>2020-08-04T16:35:39.000Z</time>
      </trkpt>
      <trkpt lat="48.46793" lon="2.19313">
        <ele>70.199996948242</ele>
        <time>2020-08-04T16:35:48.000Z</time>
      </trkpt>
      <trkpt lat="48.46749" lon="2.19279">
        <ele>70</ele>
        <time>2020-08-04T16:35:56.000Z</time>
      </trkpt>
      <trkpt lat="48.46709" lon="2.19257">
        <ele>68.800003051758</ele>
        <time>2020-08-04T16:36:03.000Z</time>
      </trkpt>
      <trkpt lat="48.4667" lon="2.19246">
        <ele>68.599998474121</ele>
        <time>2020-08-04T16:36:10.000Z</time>
      </trkpt>
      <trkpt lat="48.46654" lon="2.19238">
        <ele>68.800003051758</ele>
        <time>2020-08-04T16:36:13.000Z</time>
      </trkpt>
      <trkpt lat="48.46644" lon="2.19231">
        <ele>69</ele>
        <time>2020-08-04T16:36:15.000Z</time>
      </trkpt>
      <trkpt lat="48.46602" lon="2.19211">
        <ele>70.199996948242</ele>
        <time>2020-08-04T16:36:22.000Z</time>
      </trkpt>
      <trkpt lat="48.4659" lon="2.19204">
        <ele>70</ele>
        <time>2020-08-04T16:36:24.000Z</time>
      </trkpt>
      <trkpt lat="48.46566" lon="2.19193">
        <ele>69.400001525879</ele>
        <time>2020-08-04T16:36:28.000Z</time>
      </trkpt>
      <trkpt lat="48.46555" lon="2.19187">
        <ele>69</ele>
        <time>2020-08-04T16:36:30.000Z</time>
      </trkpt>
      <trkpt lat="48.46538" lon="2.19177">
        <ele>68.599998474121</ele>
        <time>2020-08-04T16:36:33.000Z</time>
      </trkpt>
      <trkpt lat="48.46501" lon="2.19157">
        <ele>68</ele>
        <time>2020-08-04T16:36:39.000Z</time>
      </trkpt>
      <trkpt lat="48.46448" lon="2.19126">
        <ele>68</ele>
        <time>2020-08-04T16:36:48.000Z</time>
      </trkpt>
      <trkpt lat="48.46436" lon="2.19119">
        <ele>68</ele>
        <time>2020-08-04T16:36:50.000Z</time>
      </trkpt>
      <trkpt lat="48.46383" lon="2.19088">
        <ele>68</ele>
        <time>2020-08-04T16:36:59.000Z</time>
      </trkpt>
      <trkpt lat="48.46377" lon="2.19085">
        <ele>68</ele>
        <time>2020-08-04T16:37:00.000Z</time>
      </trkpt>
      <trkpt lat="48.46337" lon="2.19061">
        <ele>68</ele>
        <time>2020-08-04T16:37:07.000Z</time>
      </trkpt>
      <trkpt lat="48.4629" lon="2.19033">
        <ele>68</ele>
        <time>2020-08-04T16:37:15.000Z</time>
      </trkpt>
      <trkpt lat="48.46242" lon="2.19005">
        <ele>67.800003051758</ele>
        <time>2020-08-04T16:37:23.000Z</time>
      </trkpt>
      <trkpt lat="48.46202" lon="2.18984">
        <ele>67.599998474121</ele>
        <time>2020-08-04T16:37:30.000Z</time>
      </trkpt>
      <trkpt lat="48.46186" lon="2.18975">
        <ele>67.800003051758</ele>
        <time>2020-08-04T16:37:33.000Z</time>
      </trkpt>
      <trkpt lat="48.46171" lon="2.18965">
        <ele>68</ele>
        <time>2020-08-04T16:37:36.000Z</time>
      </trkpt>
      <trkpt lat="48.46157" lon="2.18958">
        <ele>68.400001525879</ele>
        <time>2020-08-04T16:37:39.000Z</time>
      </trkpt>
      <trkpt lat="48.46152" lon="2.18959">
        <ele>68.199996948242</ele>
        <time>2020-08-04T16:37:40.000Z</time>
      </trkpt>
      <trkpt lat="48.46149" lon="2.18963">
        <ele>68.199996948242</ele>
        <time>2020-08-04T16:37:41.000Z</time>
      </trkpt>
      <trkpt lat="48.46143" lon="2.18985">
        <ele>67.800003051758</ele>
        <time>2020-08-04T16:37:43.000Z</time>
      </trkpt>
      <trkpt lat="48.46143" lon="2.19037">
        <ele>68</ele>
        <time>2020-08-04T16:37:50.000Z</time>
      </trkpt>
      <trkpt lat="48.4614" lon="2.1908">
        <ele>68</ele>
        <time>2020-08-04T16:37:54.000Z</time>
      </trkpt>
      <trkpt lat="48.46139" lon="2.19096">
        <ele>68.400001525879</ele>
        <time>2020-08-04T16:37:56.000Z</time>
      </trkpt>
      <trkpt lat="48.46137" lon="2.19112">
        <ele>68.800003051758</ele>
        <time>2020-08-04T16:37:59.000Z</time>
      </trkpt>
      <trkpt lat="48.46137" lon="2.19135">
        <ele>69.400001525879</ele>
        <time>2020-08-04T16:38:02.000Z</time>
      </trkpt>
      <trkpt lat="48.46136" lon="2.19143">
        <ele>69.599998474121</ele>
        <time>2020-08-04T16:38:03.000Z</time>
      </trkpt>
      <trkpt lat="48.46135" lon="2.19177">
        <ele>70</ele>
        <time>2020-08-04T16:38:07.000Z</time>
      </trkpt>
      <trkpt lat="48.46134" lon="2.19203">
        <ele>70</ele>
        <time>2020-08-04T16:38:10.000Z</time>
      </trkpt>
      <trkpt lat="48.46133" lon="2.19219">
        <ele>70.199996948242</ele>
        <time>2020-08-04T16:38:12.000Z</time>
      </trkpt>
      <trkpt lat="48.46132" lon="2.19226">
        <ele>70.400001525879</ele>
        <time>2020-08-04T16:38:13.000Z</time>
      </trkpt>
      <trkpt lat="48.46129" lon="2.19234">
        <ele>70.599998474121</ele>
        <time>2020-08-04T16:38:15.000Z</time>
      </trkpt>
      <trkpt lat="48.46118" lon="2.19247">
        <ele>70.800003051758</ele>
        <time>2020-08-04T16:38:20.000Z</time>
      </trkpt>
      <trkpt lat="48.46115" lon="2.1925">
        <ele>70.800003051758</ele>
        <time>2020-08-04T16:38:21.000Z</time>
      </trkpt>
      <trkpt lat="48.46107" lon="2.19252">
        <ele>71</ele>
        <time>2020-08-04T16:38:23.000Z</time>
      </trkpt>
      <trkpt lat="48.46102" lon="2.19252">
        <ele>71</ele>
        <time>2020-08-04T16:38:24.000Z</time>
      </trkpt>
      <trkpt lat="48.46079" lon="2.19252">
        <ele>71.400001525879</ele>
        <time>2020-08-04T16:38:29.000Z</time>
      </trkpt>
      <trkpt lat="48.46039" lon="2.19256">
        <ele>71.800003051758</ele>
        <time>2020-08-04T16:38:37.000Z</time>
      </trkpt>
      <trkpt lat="48.45997" lon="2.1926">
        <ele>72.199996948242</ele>
        <time>2020-08-04T16:38:44.000Z</time>
      </trkpt>
      <trkpt lat="48.45972" lon="2.19258">
        <ele>72.199996948242</ele>
        <time>2020-08-04T16:38:49.000Z</time>
      </trkpt>
      <trkpt lat="48.45962" lon="2.19255">
        <ele>72.199996948242</ele>
        <time>2020-08-04T16:38:51.000Z</time>
      </trkpt>
      <trkpt lat="48.45932" lon="2.19244">
        <ele>72</ele>
        <time>2020-08-04T16:38:57.000Z</time>
      </trkpt>
      <trkpt lat="48.45901" lon="2.19232">
        <ele>71.599998474121</ele>
        <time>2020-08-04T16:39:03.000Z</time>
      </trkpt>
      <trkpt lat="48.45895" lon="2.1923">
        <ele>71.599998474121</ele>
        <time>2020-08-04T16:39:04.000Z</time>
      </trkpt>
      <trkpt lat="48.4586" lon="2.19215">
        <ele>71.199996948242</ele>
        <time>2020-08-04T16:39:10.000Z</time>
      </trkpt>
      <trkpt lat="48.4582" lon="2.19198">
        <ele>71.199996948242</ele>
        <time>2020-08-04T16:39:17.000Z</time>
      </trkpt>
      <trkpt lat="48.4579" lon="2.1918">
        <ele>71.199996948242</ele>
        <time>2020-08-04T16:39:23.000Z</time>
      </trkpt>
      <trkpt lat="48.45784" lon="2.19178">
        <ele>71.199996948242</ele>
        <time>2020-08-04T16:39:24.000Z</time>
      </trkpt>
      <trkpt lat="48.45756" lon="2.19168">
        <ele>71.199996948242</ele>
        <time>2020-08-04T16:39:29.000Z</time>
      </trkpt>
      <trkpt lat="48.45717" lon="2.19153">
        <ele>71.199996948242</ele>
        <time>2020-08-04T16:39:36.000Z</time>
      </trkpt>
      <trkpt lat="48.45682" lon="2.19142">
        <ele>71.199996948242</ele>
        <time>2020-08-04T16:39:42.000Z</time>
      </trkpt>
      <trkpt lat="48.45647" lon="2.19129">
        <ele>70.800003051758</ele>
        <time>2020-08-04T16:39:49.000Z</time>
      </trkpt>
      <trkpt lat="48.45592" lon="2.19107">
        <ele>69.800003051758</ele>
        <time>2020-08-04T16:39:58.000Z</time>
      </trkpt>
      <trkpt lat="48.4557" lon="2.19102">
        <ele>70</ele>
        <time>2020-08-04T16:40:02.000Z</time>
      </trkpt>
      <trkpt lat="48.45559" lon="2.19101">
        <ele>70</ele>
        <time>2020-08-04T16:40:04.000Z</time>
      </trkpt>
      <trkpt lat="48.45529" lon="2.19101">
        <ele>70</ele>
        <time>2020-08-04T16:40:09.000Z</time>
      </trkpt>
      <trkpt lat="48.45488" lon="2.19116">
        <ele>68.800003051758</ele>
        <time>2020-08-04T16:40:16.000Z</time>
      </trkpt>
      <trkpt lat="48.45447" lon="2.19129">
        <ele>68.599998474121</ele>
        <time>2020-08-04T16:40:23.000Z</time>
      </trkpt>
      <trkpt lat="48.45429" lon="2.19127">
        <ele>68.599998474121</ele>
        <time>2020-08-04T16:40:26.000Z</time>
      </trkpt>
      <trkpt lat="48.45417" lon="2.19123">
        <ele>69</ele>
        <time>2020-08-04T16:40:28.000Z</time>
      </trkpt>
      <trkpt lat="48.45386" lon="2.19106">
        <ele>69.400001525879</ele>
        <time>2020-08-04T16:40:34.000Z</time>
      </trkpt>
      <trkpt lat="48.45364" lon="2.19091">
        <ele>69.800003051758</ele>
        <time>2020-08-04T16:40:40.000Z</time>
      </trkpt>
      <trkpt lat="48.45357" lon="2.19079">
        <ele>69.800003051758</ele>
        <time>2020-08-04T16:40:43.000Z</time>
      </trkpt>
      <trkpt lat="48.45349" lon="2.19073">
        <ele>70</ele>
        <time>2020-08-04T16:40:45.000Z</time>
      </trkpt>
      <trkpt lat="48.45319" lon="2.19059">
        <ele>70.800003051758</ele>
        <time>2020-08-04T16:40:52.000Z</time>
      </trkpt>
      <trkpt lat="48.45306" lon="2.19052">
        <ele>71.199996948242</ele>
        <time>2020-08-04T16:40:56.000Z</time>
      </trkpt>
      <trkpt lat="48.45306" lon="2.19035">
        <ele>70.599998474121</ele>
        <time>2020-08-04T16:40:59.000Z</time>
      </trkpt>
      <trkpt lat="48.45308" lon="2.19028">
        <ele>70.400001525879</ele>
        <time>2020-08-04T16:41:00.000Z</time>
      </trkpt>
      <trkpt lat="48.4531" lon="2.19014">
        <ele>70.199996948242</ele>
        <time>2020-08-04T16:41:02.000Z</time>
      </trkpt>
      <trkpt lat="48.45311" lon="2.18998">
        <ele>70</ele>
        <time>2020-08-04T16:41:04.000Z</time>
      </trkpt>
      <trkpt lat="48.4531" lon="2.1899">
        <ele>69.800003051758</ele>
        <time>2020-08-04T16:41:05.000Z</time>
      </trkpt>
      <trkpt lat="48.45308" lon="2.18982">
        <ele>69.599998474121</ele>
        <time>2020-08-04T16:41:06.000Z</time>
      </trkpt>
      <trkpt lat="48.45299" lon="2.18959">
        <ele>69.400001525879</ele>
        <time>2020-08-04T16:41:09.000Z</time>
      </trkpt>
      <trkpt lat="48.45277" lon="2.18907">
        <ele>68.599998474121</ele>
        <time>2020-08-04T16:41:16.000Z</time>
      </trkpt>
      <trkpt lat="48.45245" lon="2.18839">
        <ele>67.800003051758</ele>
        <time>2020-08-04T16:41:25.000Z</time>
      </trkpt>
      <trkpt lat="48.45208" lon="2.18778">
        <ele>67.800003051758</ele>
        <time>2020-08-04T16:41:34.000Z</time>
      </trkpt>
      <trkpt lat="48.45204" lon="2.18771">
        <ele>67.800003051758</ele>
        <time>2020-08-04T16:41:35.000Z</time>
      </trkpt>
      <trkpt lat="48.45166" lon="2.1871">
        <ele>67.400001525879</ele>
        <time>2020-08-04T16:41:44.000Z</time>
      </trkpt>
      <trkpt lat="48.45148" lon="2.18682">
        <ele>66.800003051758</ele>
        <time>2020-08-04T16:41:48.000Z</time>
      </trkpt>
      <trkpt lat="48.45139" lon="2.18668">
        <ele>66.599998474121</ele>
        <time>2020-08-04T16:41:50.000Z</time>
      </trkpt>
      <trkpt lat="48.45131" lon="2.18655">
        <ele>66.400001525879</ele>
        <time>2020-08-04T16:41:52.000Z</time>
      </trkpt>
      <trkpt lat="48.45119" lon="2.18635">
        <ele>66.599998474121</ele>
        <time>2020-08-04T16:41:55.000Z</time>
      </trkpt>
      <trkpt lat="48.45111" lon="2.18621">
        <ele>66.599998474121</ele>
        <time>2020-08-04T16:41:57.000Z</time>
      </trkpt>
      <trkpt lat="48.45098" lon="2.18602">
        <ele>66.800003051758</ele>
        <time>2020-08-04T16:42:00.000Z</time>
      </trkpt>
      <trkpt lat="48.45081" lon="2.18574">
        <ele>67</ele>
        <time>2020-08-04T16:42:04.000Z</time>
      </trkpt>
      <trkpt lat="48.45072" lon="2.18561">
        <ele>66.800003051758</ele>
        <time>2020-08-04T16:42:06.000Z</time>
      </trkpt>
      <trkpt lat="48.45042" lon="2.18514">
        <ele>66.199996948242</ele>
        <time>2020-08-04T16:42:13.000Z</time>
      </trkpt>
      <trkpt lat="48.45021" lon="2.18481">
        <ele>66.400001525879</ele>
        <time>2020-08-04T16:42:19.000Z</time>
      </trkpt>
      <trkpt lat="48.45014" lon="2.18471">
        <ele>67</ele>
        <time>2020-08-04T16:42:21.000Z</time>
      </trkpt>
      <trkpt lat="48.45009" lon="2.18461">
        <ele>67.599998474121</ele>
        <time>2020-08-04T16:42:23.000Z</time>
      </trkpt>
      <trkpt lat="48.45007" lon="2.18455">
        <ele>67.800003051758</ele>
        <time>2020-08-04T16:42:24.000Z</time>
      </trkpt>
      <trkpt lat="48.45006" lon="2.18448">
        <ele>68.199996948242</ele>
        <time>2020-08-04T16:42:25.000Z</time>
      </trkpt>
      <trkpt lat="48.45009" lon="2.18437">
        <ele>68.400001525879</ele>
        <time>2020-08-04T16:42:27.000Z</time>
      </trkpt>
      <trkpt lat="48.45029" lon="2.18398">
        <ele>69</ele>
        <time>2020-08-04T16:42:34.000Z</time>
      </trkpt>
      <trkpt lat="48.45055" lon="2.18341">
        <ele>69.199996948242</ele>
        <time>2020-08-04T16:42:42.000Z</time>
      </trkpt>
      <trkpt lat="48.45055" lon="2.18324">
        <ele>69.199996948242</ele>
        <time>2020-08-04T16:42:44.000Z</time>
      </trkpt>
      <trkpt lat="48.45048" lon="2.18311">
        <ele>69.599998474121</ele>
        <time>2020-08-04T16:42:46.000Z</time>
      </trkpt>
      <trkpt lat="48.45043" lon="2.18305">
        <ele>69.800003051758</ele>
        <time>2020-08-04T16:42:47.000Z</time>
      </trkpt>
      <trkpt lat="48.45025" lon="2.18283">
        <ele>71</ele>
        <time>2020-08-04T16:42:51.000Z</time>
      </trkpt>
      <trkpt lat="48.45023" lon="2.18276">
        <ele>71.199996948242</ele>
        <time>2020-08-04T16:42:52.000Z</time>
      </trkpt>
      <trkpt lat="48.45021" lon="2.18268">
        <ele>71</ele>
        <time>2020-08-04T16:42:53.000Z</time>
      </trkpt>
      <trkpt lat="48.45021" lon="2.18251">
        <ele>70.599998474121</ele>
        <time>2020-08-04T16:42:55.000Z</time>
      </trkpt>
      <trkpt lat="48.45017" lon="2.18235">
        <ele>70.599998474121</ele>
        <time>2020-08-04T16:42:57.000Z</time>
      </trkpt>
      <trkpt lat="48.45013" lon="2.18229">
        <ele>70.400001525879</ele>
        <time>2020-08-04T16:42:58.000Z</time>
      </trkpt>
      <trkpt lat="48.45008" lon="2.18223">
        <ele>70.400001525879</ele>
        <time>2020-08-04T16:42:59.000Z</time>
      </trkpt>
      <trkpt lat="48.44993" lon="2.1821">
        <ele>70</ele>
        <time>2020-08-04T16:43:02.000Z</time>
      </trkpt>
      <trkpt lat="48.44952" lon="2.18175">
        <ele>69.199996948242</ele>
        <time>2020-08-04T16:43:10.000Z</time>
      </trkpt>
      <trkpt lat="48.44907" lon="2.1813">
        <ele>67.800003051758</ele>
        <time>2020-08-04T16:43:19.000Z</time>
      </trkpt>
      <trkpt lat="48.44902" lon="2.18125">
        <ele>67.599998474121</ele>
        <time>2020-08-04T16:43:20.000Z</time>
      </trkpt>
      <trkpt lat="48.4487" lon="2.18088">
        <ele>66.400001525879</ele>
        <time>2020-08-04T16:43:27.000Z</time>
      </trkpt>
      <trkpt lat="48.44866" lon="2.18083">
        <ele>66.199996948242</ele>
        <time>2020-08-04T16:43:28.000Z</time>
      </trkpt>
      <trkpt lat="48.44863" lon="2.18078">
        <ele>66</ele>
        <time>2020-08-04T16:43:29.000Z</time>
      </trkpt>
      <trkpt lat="48.44858" lon="2.18066">
        <ele>66.199996948242</ele>
        <time>2020-08-04T16:43:31.000Z</time>
      </trkpt>
      <trkpt lat="48.44858" lon="2.1806">
        <ele>66.400001525879</ele>
        <time>2020-08-04T16:43:32.000Z</time>
      </trkpt>
      <trkpt lat="48.44859" lon="2.18055">
        <ele>66.599998474121</ele>
        <time>2020-08-04T16:43:33.000Z</time>
      </trkpt>
      <trkpt lat="48.44865" lon="2.18045">
        <ele>66.800003051758</ele>
        <time>2020-08-04T16:43:35.000Z</time>
      </trkpt>
      <trkpt lat="48.44869" lon="2.18039">
        <ele>67</ele>
        <time>2020-08-04T16:43:36.000Z</time>
      </trkpt>
      <trkpt lat="48.44881" lon="2.18009">
        <ele>67.599998474121</ele>
        <time>2020-08-04T16:43:40.000Z</time>
      </trkpt>
      <trkpt lat="48.44899" lon="2.17954">
        <ele>67.199996948242</ele>
        <time>2020-08-04T16:43:47.000Z</time>
      </trkpt>
      <trkpt lat="48.44922" lon="2.17871">
        <ele>66.599998474121</ele>
        <time>2020-08-04T16:43:57.000Z</time>
      </trkpt>
      <trkpt lat="48.44944" lon="2.17796">
        <ele>64.800003051758</ele>
        <time>2020-08-04T16:44:06.000Z</time>
      </trkpt>
      <trkpt lat="48.44947" lon="2.17788">
        <ele>64.599998474121</ele>
        <time>2020-08-04T16:44:07.000Z</time>
      </trkpt>
      <trkpt lat="48.4497" lon="2.17723">
        <ele>64.400001525879</ele>
        <time>2020-08-04T16:44:15.000Z</time>
      </trkpt>
      <trkpt lat="48.44994" lon="2.17662">
        <ele>66.199996948242</ele>
        <time>2020-08-04T16:44:23.000Z</time>
      </trkpt>
      <trkpt lat="48.45013" lon="2.17614">
        <ele>66.400001525879</ele>
        <time>2020-08-04T16:44:29.000Z</time>
      </trkpt>
      <trkpt lat="48.45031" lon="2.17565">
        <ele>67.800003051758</ele>
        <time>2020-08-04T16:44:35.000Z</time>
      </trkpt>
      <trkpt lat="48.45037" lon="2.17549">
        <ele>68.599998474121</ele>
        <time>2020-08-04T16:44:37.000Z</time>
      </trkpt>
      <trkpt lat="48.45037" lon="2.17537">
        <ele>68.800003051758</ele>
        <time>2020-08-04T16:44:39.000Z</time>
      </trkpt>
      <trkpt lat="48.45037" lon="2.17531">
        <ele>68.800003051758</ele>
        <time>2020-08-04T16:44:40.000Z</time>
      </trkpt>
      <trkpt lat="48.45041" lon="2.17522">
        <ele>69.400001525879</ele>
        <time>2020-08-04T16:44:42.000Z</time>
      </trkpt>
      <trkpt lat="48.45048" lon="2.17506">
        <ele>69.599998474121</ele>
        <time>2020-08-04T16:44:45.000Z</time>
      </trkpt>
      <trkpt lat="48.45049" lon="2.175">
        <ele>69.599998474121</ele>
        <time>2020-08-04T16:44:46.000Z</time>
      </trkpt>
      <trkpt lat="48.45049" lon="2.17493">
        <ele>69.400001525879</ele>
        <time>2020-08-04T16:44:47.000Z</time>
      </trkpt>
      <trkpt lat="48.45047" lon="2.17479">
        <ele>69.800003051758</ele>
        <time>2020-08-04T16:44:49.000Z</time>
      </trkpt>
      <trkpt lat="48.45047" lon="2.17472">
        <ele>70</ele>
        <time>2020-08-04T16:44:50.000Z</time>
      </trkpt>
      <trkpt lat="48.45048" lon="2.17465">
        <ele>70.400001525879</ele>
        <time>2020-08-04T16:44:51.000Z</time>
      </trkpt>
      <trkpt lat="48.45054" lon="2.17446">
        <ele>71.400001525879</ele>
        <time>2020-08-04T16:44:54.000Z</time>
      </trkpt>
      <trkpt lat="48.45052" lon="2.17416">
        <ele>71.599998474121</ele>
        <time>2020-08-04T16:44:58.000Z</time>
      </trkpt>
      <trkpt lat="48.45048" lon="2.17403">
        <ele>71.400001525879</ele>
        <time>2020-08-04T16:45:00.000Z</time>
      </trkpt>
      <trkpt lat="48.45042" lon="2.17391">
        <ele>71</ele>
        <time>2020-08-04T16:45:02.000Z</time>
      </trkpt>
      <trkpt lat="48.45028" lon="2.17364">
        <ele>70</ele>
        <time>2020-08-04T16:45:08.000Z</time>
      </trkpt>
      <trkpt lat="48.45028" lon="2.17356">
        <ele>70</ele>
        <time>2020-08-04T16:45:10.000Z</time>
      </trkpt>
      <trkpt lat="48.45031" lon="2.17349">
        <ele>70</ele>
        <time>2020-08-04T16:45:12.000Z</time>
      </trkpt>
      <trkpt lat="48.45037" lon="2.17322">
        <ele>70.800003051758</ele>
        <time>2020-08-04T16:45:17.000Z</time>
      </trkpt>
      <trkpt lat="48.45046" lon="2.17297">
        <ele>71.599998474121</ele>
        <time>2020-08-04T16:45:23.000Z</time>
      </trkpt>
      <trkpt lat="48.4505" lon="2.17282">
        <ele>71.800003051758</ele>
        <time>2020-08-04T16:45:29.000Z</time>
      </trkpt>
      <trkpt lat="48.45051" lon="2.17281">
        <ele>72</ele>
        <time>2020-08-04T16:45:30.000Z</time>
      </trkpt>
      <trkpt lat="48.45052" lon="2.17274">
        <ele>71.800003051758</ele>
        <time>2020-08-04T16:45:32.000Z</time>
      </trkpt>
      <trkpt lat="48.45054" lon="2.1727">
        <ele>71.800003051758</ele>
        <time>2020-08-04T16:45:33.000Z</time>
      </trkpt>
      <trkpt lat="48.45064" lon="2.17243">
        <ele>71.400001525879</ele>
        <time>2020-08-04T16:45:39.000Z</time>
      </trkpt>
      <trkpt lat="48.45076" lon="2.17204">
        <ele>71.199996948242</ele>
        <time>2020-08-04T16:45:46.000Z</time>
      </trkpt>
      <trkpt lat="48.45086" lon="2.17178">
        <ele>70.400001525879</ele>
        <time>2020-08-04T16:45:51.000Z</time>
      </trkpt>
      <trkpt lat="48.45098" lon="2.17143">
        <ele>70.199996948242</ele>
        <time>2020-08-04T16:45:58.000Z</time>
      </trkpt>
      <trkpt lat="48.45102" lon="2.17134">
        <ele>70.400001525879</ele>
        <time>2020-08-04T16:46:00.000Z</time>
      </trkpt>
      <trkpt lat="48.4511" lon="2.17133">
        <ele>70.400001525879</ele>
        <time>2020-08-04T16:46:02.000Z</time>
      </trkpt>
      <trkpt lat="48.45113" lon="2.17132">
        <ele>70.599998474121</ele>
        <time>2020-08-04T16:46:03.000Z</time>
      </trkpt>
      <trkpt lat="48.45119" lon="2.17125">
        <ele>70.599998474121</ele>
        <time>2020-08-04T16:46:05.000Z</time>
      </trkpt>
      <trkpt lat="48.45125" lon="2.17108">
        <ele>71</ele>
        <time>2020-08-04T16:46:08.000Z</time>
      </trkpt>
      <trkpt lat="48.45128" lon="2.17096">
        <ele>70.800003051758</ele>
        <time>2020-08-04T16:46:10.000Z</time>
      </trkpt>
      <trkpt lat="48.45131" lon="2.17084">
        <ele>70.599998474121</ele>
        <time>2020-08-04T16:46:12.000Z</time>
      </trkpt>
      <trkpt lat="48.45136" lon="2.17073">
        <ele>70.800003051758</ele>
        <time>2020-08-04T16:46:14.000Z</time>
      </trkpt>
      <trkpt lat="48.45138" lon="2.17067">
        <ele>71</ele>
        <time>2020-08-04T16:46:15.000Z</time>
      </trkpt>
      <trkpt lat="48.45165" lon="2.17027">
        <ele>71.400001525879</ele>
        <time>2020-08-04T16:46:24.000Z</time>
      </trkpt>
      <trkpt lat="48.45177" lon="2.17005">
        <ele>71.199996948242</ele>
        <time>2020-08-04T16:46:30.000Z</time>
      </trkpt>
      <trkpt lat="48.45191" lon="2.16984">
        <ele>71.400001525879</ele>
        <time>2020-08-04T16:46:35.000Z</time>
      </trkpt>
      <trkpt lat="48.4521" lon="2.16945">
        <ele>72.800003051758</ele>
        <time>2020-08-04T16:46:42.000Z</time>
      </trkpt>
      <trkpt lat="48.45227" lon="2.16911">
        <ele>73</ele>
        <time>2020-08-04T16:46:48.000Z</time>
      </trkpt>
      <trkpt lat="48.45248" lon="2.16877">
        <ele>73.800003051758</ele>
        <time>2020-08-04T16:46:55.000Z</time>
      </trkpt>
      <trkpt lat="48.4526" lon="2.16842">
        <ele>75.400001525879</ele>
        <time>2020-08-04T16:47:02.000Z</time>
      </trkpt>
      <trkpt lat="48.4526" lon="2.16815">
        <ele>76.400001525879</ele>
        <time>2020-08-04T16:47:07.000Z</time>
      </trkpt>
      <trkpt lat="48.4526" lon="2.1678">
        <ele>77.400001525879</ele>
        <time>2020-08-04T16:47:13.000Z</time>
      </trkpt>
      <trkpt lat="48.45262" lon="2.16764">
        <ele>77.599998474121</ele>
        <time>2020-08-04T16:47:15.000Z</time>
      </trkpt>
      <trkpt lat="48.45268" lon="2.1675">
        <ele>77.800003051758</ele>
        <time>2020-08-04T16:47:17.000Z</time>
      </trkpt>
      <trkpt lat="48.4529" lon="2.16716">
        <ele>75.800003051758</ele>
        <time>2020-08-04T16:47:23.000Z</time>
      </trkpt>
      <trkpt lat="48.45308" lon="2.16692">
        <ele>74.199996948242</ele>
        <time>2020-08-04T16:47:27.000Z</time>
      </trkpt>
      <trkpt lat="48.45313" lon="2.16685">
        <ele>74</ele>
        <time>2020-08-04T16:47:28.000Z</time>
      </trkpt>
      <trkpt lat="48.45348" lon="2.16629">
        <ele>72.199996948242</ele>
        <time>2020-08-04T16:47:36.000Z</time>
      </trkpt>
      <trkpt lat="48.45375" lon="2.16566">
        <ele>72.199996948242</ele>
        <time>2020-08-04T16:47:44.000Z</time>
      </trkpt>
      <trkpt lat="48.45394" lon="2.16506">
        <ele>71.599998474121</ele>
        <time>2020-08-04T16:47:51.000Z</time>
      </trkpt>
      <trkpt lat="48.45409" lon="2.16444">
        <ele>71.199996948242</ele>
        <time>2020-08-04T16:47:58.000Z</time>
      </trkpt>
      <trkpt lat="48.45419" lon="2.16372">
        <ele>70.599998474121</ele>
        <time>2020-08-04T16:48:06.000Z</time>
      </trkpt>
      <trkpt lat="48.45428" lon="2.16301">
        <ele>69.400001525879</ele>
        <time>2020-08-04T16:48:14.000Z</time>
      </trkpt>
      <trkpt lat="48.45435" lon="2.16243">
        <ele>68.199996948242</ele>
        <time>2020-08-04T16:48:21.000Z</time>
      </trkpt>
      <trkpt lat="48.45446" lon="2.16194">
        <ele>70.199996948242</ele>
        <time>2020-08-04T16:48:27.000Z</time>
      </trkpt>
      <trkpt lat="48.45462" lon="2.16157">
        <ele>70.599998474121</ele>
        <time>2020-08-04T16:48:32.000Z</time>
      </trkpt>
      <trkpt lat="48.45466" lon="2.16153">
        <ele>70.599998474121</ele>
        <time>2020-08-04T16:48:33.000Z</time>
      </trkpt>
      <trkpt lat="48.45471" lon="2.1615">
        <ele>70.599998474121</ele>
        <time>2020-08-04T16:48:34.000Z</time>
      </trkpt>
      <trkpt lat="48.45482" lon="2.16149">
        <ele>70.400001525879</ele>
        <time>2020-08-04T16:48:36.000Z</time>
      </trkpt>
      <trkpt lat="48.45488" lon="2.16151">
        <ele>70.400001525879</ele>
        <time>2020-08-04T16:48:37.000Z</time>
      </trkpt>
      <trkpt lat="48.45493" lon="2.16156">
        <ele>70.199996948242</ele>
        <time>2020-08-04T16:48:38.000Z</time>
      </trkpt>
      <trkpt lat="48.45515" lon="2.16178">
        <ele>70.199996948242</ele>
        <time>2020-08-04T16:48:42.000Z</time>
      </trkpt>
      <trkpt lat="48.45543" lon="2.16196">
        <ele>69.800003051758</ele>
        <time>2020-08-04T16:48:47.000Z</time>
      </trkpt>
      <trkpt lat="48.45563" lon="2.162">
        <ele>69.599998474121</ele>
        <time>2020-08-04T16:48:51.000Z</time>
      </trkpt>
      <trkpt lat="48.45568" lon="2.16198">
        <ele>69.599998474121</ele>
        <time>2020-08-04T16:48:52.000Z</time>
      </trkpt>
      <trkpt lat="48.45572" lon="2.16194">
        <ele>69.599998474121</ele>
        <time>2020-08-04T16:48:53.000Z</time>
      </trkpt>
      <trkpt lat="48.4558" lon="2.1619">
        <ele>69.599998474121</ele>
        <time>2020-08-04T16:48:55.000Z</time>
      </trkpt>
      <trkpt lat="48.45618" lon="2.16187">
        <ele>70.199996948242</ele>
        <time>2020-08-04T16:49:03.000Z</time>
      </trkpt>
      <trkpt lat="48.45667" lon="2.16182">
        <ele>70.199996948242</ele>
        <time>2020-08-04T16:49:13.000Z</time>
      </trkpt>
      <trkpt lat="48.45708" lon="2.16176">
        <ele>71.599998474121</ele>
        <time>2020-08-04T16:49:21.000Z</time>
      </trkpt>
      <trkpt lat="48.45744" lon="2.1617">
        <ele>73.599998474121</ele>
        <time>2020-08-04T16:49:28.000Z</time>
      </trkpt>
      <trkpt lat="48.45758" lon="2.16168">
        <ele>74.599998474121</ele>
        <time>2020-08-04T16:49:31.000Z</time>
      </trkpt>
      <trkpt lat="48.45763" lon="2.1616">
        <ele>74.800003051758</ele>
        <time>2020-08-04T16:49:33.000Z</time>
      </trkpt>
      <trkpt lat="48.4576" lon="2.16141">
        <ele>74.400001525879</ele>
        <time>2020-08-04T16:49:36.000Z</time>
      </trkpt>
      <trkpt lat="48.45756" lon="2.16128">
        <ele>74</ele>
        <time>2020-08-04T16:49:38.000Z</time>
      </trkpt>
      <trkpt lat="48.45751" lon="2.16107">
        <ele>73.599998474121</ele>
        <time>2020-08-04T16:49:41.000Z</time>
      </trkpt>
      <trkpt lat="48.45742" lon="2.16055">
        <ele>72.800003051758</ele>
        <time>2020-08-04T16:49:48.000Z</time>
      </trkpt>
      <trkpt lat="48.45739" lon="2.16026">
        <ele>73</ele>
        <time>2020-08-04T16:49:52.000Z</time>
      </trkpt>
      <trkpt lat="48.45739" lon="2.16019">
        <ele>73</ele>
        <time>2020-08-04T16:49:53.000Z</time>
      </trkpt>
      <trkpt lat="48.4574" lon="2.16011">
        <ele>73.199996948242</ele>
        <time>2020-08-04T16:49:54.000Z</time>
      </trkpt>
      <trkpt lat="48.45749" lon="2.15982">
        <ele>73.800003051758</ele>
        <time>2020-08-04T16:49:58.000Z</time>
      </trkpt>
      <trkpt lat="48.45761" lon="2.15939">
        <ele>75.199996948242</ele>
        <time>2020-08-04T16:50:04.000Z</time>
      </trkpt>
      <trkpt lat="48.45773" lon="2.15906">
        <ele>76.199996948242</ele>
        <time>2020-08-04T16:50:09.000Z</time>
      </trkpt>
      <trkpt lat="48.45788" lon="2.15858">
        <ele>76.800003051758</ele>
        <time>2020-08-04T16:50:16.000Z</time>
      </trkpt>
      <trkpt lat="48.45799" lon="2.15824">
        <ele>76.599998474121</ele>
        <time>2020-08-04T16:50:21.000Z</time>
      </trkpt>
      <trkpt lat="48.45812" lon="2.15774">
        <ele>78</ele>
        <time>2020-08-04T16:50:28.000Z</time>
      </trkpt>
      <trkpt lat="48.4582" lon="2.15734">
        <ele>79.199996948242</ele>
        <time>2020-08-04T16:50:34.000Z</time>
      </trkpt>
      <trkpt lat="48.45823" lon="2.15718">
        <ele>79.400001525879</ele>
        <time>2020-08-04T16:50:36.000Z</time>
      </trkpt>
      <trkpt lat="48.45824" lon="2.1571">
        <ele>79.400001525879</ele>
        <time>2020-08-04T16:50:37.000Z</time>
      </trkpt>
      <trkpt lat="48.45828" lon="2.15679">
        <ele>79.199996948242</ele>
        <time>2020-08-04T16:50:41.000Z</time>
      </trkpt>
      <trkpt lat="48.45828" lon="2.15671">
        <ele>79.199996948242</ele>
        <time>2020-08-04T16:50:42.000Z</time>
      </trkpt>
      <trkpt lat="48.45831" lon="2.15622">
        <ele>79.800003051758</ele>
        <time>2020-08-04T16:50:48.000Z</time>
      </trkpt>
      <trkpt lat="48.45831" lon="2.15614">
        <ele>80</ele>
        <time>2020-08-04T16:50:49.000Z</time>
      </trkpt>
      <trkpt lat="48.45831" lon="2.15598">
        <ele>80.199996948242</ele>
        <time>2020-08-04T16:50:51.000Z</time>
      </trkpt>
      <trkpt lat="48.45832" lon="2.15576">
        <ele>80.400001525879</ele>
        <time>2020-08-04T16:50:54.000Z</time>
      </trkpt>
      <trkpt lat="48.45832" lon="2.15529">
        <ele>79</ele>
        <time>2020-08-04T16:51:00.000Z</time>
      </trkpt>
      <trkpt lat="48.45828" lon="2.15481">
        <ele>78.199996948242</ele>
        <time>2020-08-04T16:51:06.000Z</time>
      </trkpt>
      <trkpt lat="48.45827" lon="2.15472">
        <ele>78.199996948242</ele>
        <time>2020-08-04T16:51:07.000Z</time>
      </trkpt>
      <trkpt lat="48.45822" lon="2.15437">
        <ele>77.599998474121</ele>
        <time>2020-08-04T16:51:11.000Z</time>
      </trkpt>
      <trkpt lat="48.4582" lon="2.1542">
        <ele>77.199996948242</ele>
        <time>2020-08-04T16:51:13.000Z</time>
      </trkpt>
      <trkpt lat="48.45816" lon="2.15374">
        <ele>77.400001525879</ele>
        <time>2020-08-04T16:51:19.000Z</time>
      </trkpt>
      <trkpt lat="48.45813" lon="2.1536">
        <ele>77.800003051758</ele>
        <time>2020-08-04T16:51:21.000Z</time>
      </trkpt>
      <trkpt lat="48.45811" lon="2.15337">
        <ele>78.599998474121</ele>
        <time>2020-08-04T16:51:24.000Z</time>
      </trkpt>
      <trkpt lat="48.45809" lon="2.15313">
        <ele>78.599998474121</ele>
        <time>2020-08-04T16:51:27.000Z</time>
      </trkpt>
      <trkpt lat="48.45809" lon="2.15306">
        <ele>78.400001525879</ele>
        <time>2020-08-04T16:51:28.000Z</time>
      </trkpt>
      <trkpt lat="48.45807" lon="2.15269">
        <ele>77.800003051758</ele>
        <time>2020-08-04T16:51:33.000Z</time>
      </trkpt>
      <trkpt lat="48.45805" lon="2.15218">
        <ele>76.800003051758</ele>
        <time>2020-08-04T16:51:40.000Z</time>
      </trkpt>
      <trkpt lat="48.45798" lon="2.15179">
        <ele>75.599998474121</ele>
        <time>2020-08-04T16:51:46.000Z</time>
      </trkpt>
      <trkpt lat="48.45791" lon="2.15127">
        <ele>74.599998474121</ele>
        <time>2020-08-04T16:51:52.000Z</time>
      </trkpt>
      <trkpt lat="48.45789" lon="2.15111">
        <ele>74.400001525879</ele>
        <time>2020-08-04T16:51:54.000Z</time>
      </trkpt>
      <trkpt lat="48.45787" lon="2.15071">
        <ele>74</ele>
        <time>2020-08-04T16:51:59.000Z</time>
      </trkpt>
      <trkpt lat="48.4578" lon="2.15011">
        <ele>74</ele>
        <time>2020-08-04T16:52:07.000Z</time>
      </trkpt>
      <trkpt lat="48.45767" lon="2.14953">
        <ele>75.599998474121</ele>
        <time>2020-08-04T16:52:15.000Z</time>
      </trkpt>
      <trkpt lat="48.45746" lon="2.14891">
        <ele>75.800003051758</ele>
        <time>2020-08-04T16:52:24.000Z</time>
      </trkpt>
      <trkpt lat="48.45734" lon="2.14857">
        <ele>75.599998474121</ele>
        <time>2020-08-04T16:52:30.000Z</time>
      </trkpt>
      <trkpt lat="48.4573" lon="2.14845">
        <ele>75.599998474121</ele>
        <time>2020-08-04T16:52:32.000Z</time>
      </trkpt>
      <trkpt lat="48.4573" lon="2.14831">
        <ele>75.800003051758</ele>
        <time>2020-08-04T16:52:34.000Z</time>
      </trkpt>
      <trkpt lat="48.45736" lon="2.14821">
        <ele>76.800003051758</ele>
        <time>2020-08-04T16:52:36.000Z</time>
      </trkpt>
      <trkpt lat="48.45741" lon="2.14819">
        <ele>77.199996948242</ele>
        <time>2020-08-04T16:52:37.000Z</time>
      </trkpt>
      <trkpt lat="48.45786" lon="2.14796">
        <ele>79.800003051758</ele>
        <time>2020-08-04T16:52:47.000Z</time>
      </trkpt>
      <trkpt lat="48.45823" lon="2.14775">
        <ele>80.199996948242</ele>
        <time>2020-08-04T16:52:56.000Z</time>
      </trkpt>
      <trkpt lat="48.45832" lon="2.14765">
        <ele>80.599998474121</ele>
        <time>2020-08-04T16:52:59.000Z</time>
      </trkpt>
      <trkpt lat="48.45837" lon="2.14754">
        <ele>80.800003051758</ele>
        <time>2020-08-04T16:53:01.000Z</time>
      </trkpt>
      <trkpt lat="48.45841" lon="2.14742">
        <ele>81</ele>
        <time>2020-08-04T16:53:03.000Z</time>
      </trkpt>
      <trkpt lat="48.45847" lon="2.14723">
        <ele>81.400001525879</ele>
        <time>2020-08-04T16:53:06.000Z</time>
      </trkpt>
      <trkpt lat="48.45849" lon="2.14716">
        <ele>81.400001525879</ele>
        <time>2020-08-04T16:53:07.000Z</time>
      </trkpt>
      <trkpt lat="48.45857" lon="2.14684">
        <ele>81.800003051758</ele>
        <time>2020-08-04T16:53:12.000Z</time>
      </trkpt>
      <trkpt lat="48.45864" lon="2.14666">
        <ele>82</ele>
        <time>2020-08-04T16:53:15.000Z</time>
      </trkpt>
      <trkpt lat="48.45889" lon="2.14623">
        <ele>83.400001525879</ele>
        <time>2020-08-04T16:53:23.000Z</time>
      </trkpt>
      <trkpt lat="48.45912" lon="2.14566">
        <ele>82.800003051758</ele>
        <time>2020-08-04T16:53:32.000Z</time>
      </trkpt>
      <trkpt lat="48.45916" lon="2.14553">
        <ele>83</ele>
        <time>2020-08-04T16:53:34.000Z</time>
      </trkpt>
      <trkpt lat="48.45918" lon="2.14538">
        <ele>83</ele>
        <time>2020-08-04T16:53:36.000Z</time>
      </trkpt>
      <trkpt lat="48.45918" lon="2.14531">
        <ele>83</ele>
        <time>2020-08-04T16:53:37.000Z</time>
      </trkpt>
      <trkpt lat="48.45918" lon="2.14524">
        <ele>83.199996948242</ele>
        <time>2020-08-04T16:53:38.000Z</time>
      </trkpt>
      <trkpt lat="48.45915" lon="2.14501">
        <ele>83.599998474121</ele>
        <time>2020-08-04T16:53:41.000Z</time>
      </trkpt>
      <trkpt lat="48.45912" lon="2.14486">
        <ele>83.800003051758</ele>
        <time>2020-08-04T16:53:43.000Z</time>
      </trkpt>
      <trkpt lat="48.45904" lon="2.14425">
        <ele>85.800003051758</ele>
        <time>2020-08-04T16:53:51.000Z</time>
      </trkpt>
      <trkpt lat="48.45895" lon="2.1438">
        <ele>86.400001525879</ele>
        <time>2020-08-04T16:53:57.000Z</time>
      </trkpt>
      <trkpt lat="48.45893" lon="2.14374">
        <ele>86.400001525879</ele>
        <time>2020-08-04T16:53:58.000Z</time>
      </trkpt>
      <trkpt lat="48.45873" lon="2.14338">
        <ele>87</ele>
        <time>2020-08-04T16:54:05.000Z</time>
      </trkpt>
      <trkpt lat="48.45869" lon="2.14327">
        <ele>87.199996948242</ele>
        <time>2020-08-04T16:54:08.000Z</time>
      </trkpt>
      <trkpt lat="48.45869" lon="2.14323">
        <ele>87.199996948242</ele>
        <time>2020-08-04T16:54:09.000Z</time>
      </trkpt>
      <trkpt lat="48.45871" lon="2.14319">
        <ele>87.199996948242</ele>
        <time>2020-08-04T16:54:10.000Z</time>
      </trkpt>
      <trkpt lat="48.45877" lon="2.14315">
        <ele>87.400001525879</ele>
        <time>2020-08-04T16:54:12.000Z</time>
      </trkpt>
      <trkpt lat="48.45894" lon="2.14299">
        <ele>87.599998474121</ele>
        <time>2020-08-04T16:54:18.000Z</time>
      </trkpt>
      <trkpt lat="48.45909" lon="2.14285">
        <ele>88.199996948242</ele>
        <time>2020-08-04T16:54:23.000Z</time>
      </trkpt>
      <trkpt lat="48.45929" lon="2.14269">
        <ele>89.199996948242</ele>
        <time>2020-08-04T16:54:30.000Z</time>
      </trkpt>
      <trkpt lat="48.45933" lon="2.14262">
        <ele>89.599998474121</ele>
        <time>2020-08-04T16:54:33.000Z</time>
      </trkpt>
      <trkpt lat="48.45932" lon="2.14258">
        <ele>89.599998474121</ele>
        <time>2020-08-04T16:54:34.000Z</time>
      </trkpt>
      <trkpt lat="48.45926" lon="2.14239">
        <ele>89.800003051758</ele>
        <time>2020-08-04T16:54:38.000Z</time>
      </trkpt>
      <trkpt lat="48.45911" lon="2.14204">
        <ele>89.800003051758</ele>
        <time>2020-08-04T16:54:45.000Z</time>
      </trkpt>
      <trkpt lat="48.45902" lon="2.14172">
        <ele>89.800003051758</ele>
        <time>2020-08-04T16:54:51.000Z</time>
      </trkpt>
      <trkpt lat="48.45897" lon="2.14154">
        <ele>90</ele>
        <time>2020-08-04T16:54:54.000Z</time>
      </trkpt>
      <trkpt lat="48.45889" lon="2.14132">
        <ele>90.400001525879</ele>
        <time>2020-08-04T16:54:58.000Z</time>
      </trkpt>
      <trkpt lat="48.45883" lon="2.14114">
        <ele>91</ele>
        <time>2020-08-04T16:55:01.000Z</time>
      </trkpt>
      <trkpt lat="48.45875" lon="2.141">
        <ele>91</ele>
        <time>2020-08-04T16:55:04.000Z</time>
      </trkpt>
      <trkpt lat="48.45848" lon="2.14068">
        <ele>91.199996948242</ele>
        <time>2020-08-04T16:55:12.000Z</time>
      </trkpt>
      <trkpt lat="48.4583" lon="2.14033">
        <ele>91.400001525879</ele>
        <time>2020-08-04T16:55:19.000Z</time>
      </trkpt>
      <trkpt lat="48.45828" lon="2.14028">
        <ele>91.400001525879</ele>
        <time>2020-08-04T16:55:20.000Z</time>
      </trkpt>
      <trkpt lat="48.45819" lon="2.13999">
        <ele>92</ele>
        <time>2020-08-04T16:55:25.000Z</time>
      </trkpt>
      <trkpt lat="48.4581" lon="2.13969">
        <ele>93</ele>
        <time>2020-08-04T16:55:30.000Z</time>
      </trkpt>
      <trkpt lat="48.45806" lon="2.13958">
        <ele>93.599998474121</ele>
        <time>2020-08-04T16:55:32.000Z</time>
      </trkpt>
      <trkpt lat="48.45798" lon="2.13936">
        <ele>94.400001525879</ele>
        <time>2020-08-04T16:55:36.000Z</time>
      </trkpt>
      <trkpt lat="48.45796" lon="2.1393">
        <ele>94.599998474121</ele>
        <time>2020-08-04T16:55:37.000Z</time>
      </trkpt>
      <trkpt lat="48.45795" lon="2.13925">
        <ele>94.800003051758</ele>
        <time>2020-08-04T16:55:38.000Z</time>
      </trkpt>
      <trkpt lat="48.45784" lon="2.1389">
        <ele>95</ele>
        <time>2020-08-04T16:55:44.000Z</time>
      </trkpt>
      <trkpt lat="48.45771" lon="2.13862">
        <ele>94.400001525879</ele>
        <time>2020-08-04T16:55:50.000Z</time>
      </trkpt>
      <trkpt lat="48.45761" lon="2.13845">
        <ele>93.599998474121</ele>
        <time>2020-08-04T16:55:54.000Z</time>
      </trkpt>
      <trkpt lat="48.45755" lon="2.13833">
        <ele>93.199996948242</ele>
        <time>2020-08-04T16:55:57.000Z</time>
      </trkpt>
      <trkpt lat="48.45752" lon="2.13833">
        <ele>93</ele>
        <time>2020-08-04T16:55:58.000Z</time>
      </trkpt>
      <trkpt lat="48.45737" lon="2.13841">
        <ele>92</ele>
        <time>2020-08-04T16:56:03.000Z</time>
      </trkpt>
      <trkpt lat="48.45716" lon="2.1385">
        <ele>90.400001525879</ele>
        <time>2020-08-04T16:56:08.000Z</time>
      </trkpt>
      <trkpt lat="48.45699" lon="2.13856">
        <ele>89.400001525879</ele>
        <time>2020-08-04T16:56:13.000Z</time>
      </trkpt>
      <trkpt lat="48.45689" lon="2.13843">
        <ele>88.599998474121</ele>
        <time>2020-08-04T16:56:17.000Z</time>
      </trkpt>
      <trkpt lat="48.45684" lon="2.13835">
        <ele>88.199996948242</ele>
        <time>2020-08-04T16:56:20.000Z</time>
      </trkpt>
      <trkpt lat="48.45683" lon="2.13835">
        <ele>88.199996948242</ele>
        <time>2020-08-04T16:56:21.000Z</time>
      </trkpt>
      <trkpt lat="48.45683" lon="2.13838">
        <ele>88.199996948242</ele>
        <time>2020-08-04T16:56:24.000Z</time>
      </trkpt>
    </trkseg>
  </trk>
</gpx>